[[{"header":{"parameterUnit":"m.s-1","parameterCategory":1,"la1":30.6,"la2":28.766,"lo1":-90.7593,"lo2":-88.6598,"dy":0.0162,"dx":0.0183,"nx":116,"ny":114,"refTime":"2024-06-18T12:00:00:Z","depth":0,"parameterNumber":2,"parameterNumberName":"U-component_of_WINDS"},"data":[0.0,0.0,0.0,0.0,0.0,0.0,0.0,0.0,0.0,0.0,0.0,0.0,0.0,0.0,0.0,0.0,0.0,0.0,0.0,0.0,0.0,0.0,0.0,0.0,0.0,0.0,0.0,0.0,0.0,0.0,0.0,0.0,0.0,0.0,0.0,0.0,0.0,0.0,0.0,0.0,0.0,0.0,0.0,0.0,0.0,0.0,0.0,0.0,0.0,0.0,0.0,0.0,0.0,0.0,0.0,0.0,0.0,0.0,0.0,0.0,0.0,0.0,0.0,0.0,0.0,0.0,0.0,0.0,0.0,0.0,0.0,0.0,0.0,0.0,0.0,0.0,0.0,0.0,0.0,0.0,0.0,0.0,0.0,0.0,0.0,0.0,0.0,0.0,0.0,0.0,0.0,0.0,0.0,0.0,0.0,0.0,0.0,0.0,0.0,0.0,0.0,0.0,0.0,0.0,0.0,0.0,0.0,0.0,0.0,0.0,0.0,0.0,0.0,0.0,0.0,0.0,0.0,0.0,0.0,0.0,0.0,0.0,0.0,0.0,0.0,0.0,0.0,0.0,0.0,0.0,0.0,0.0,0.0,0.0,0.0,0.0,0.0,0.0,0.0,0.0,0.0,0.0,0.0,0.0,0.0,0.0,0.0,0.0,0.0,0.0,0.0,0.0,0.0,0.0,0.0,0.0,0.0,0.0,0.0,0.0,0.0,0.0,0.0,0.0,0.0,0.0,0.0,0.0,0.0,0.0,0.0,0.0,0.0,0.0,0.0,0.0,0.0,0.0,0.0,0.0,0.0,0.0,0.0,0.0,0.0,0.0,0.0,0.0,0.0,0.0,0.0,0.0,0.0,0.0,0.0,0.0,0.0,0.0,0.0,0.0,0.0,0.0,0.0,0.0,0.0,0.0,0.0,0.0,0.0,0.0,0.0,0.0,0.0,0.0,0.0,0.0,0.0,0.0,0.0,0.0,0.0,0.0,0.0,0.0,0.0,0.0,0.0,0.0,0.0,0.0,0.0,0.0,0.0,0.0,0.0,0.0,0.0,0.0,0.0,0.0,0.0,0.0,0.0,0.0,0.0,0.0,0.0,0.0,0.0,0.0,0.0,0.0,0.0,0.0,0.0,0.0,0.0,0.0,0.0,0.0,0.0,0.0,0.0,0.0,0.0,0.0,0.0,0.0,0.0,0.0,0.0,0.0,0.0,0.0,0.0,0.0,0.0,0.0,0.0,0.0,0.0,0.0,0.0,0.0,0.0,0.0,0.0,0.0,0.0,0.0,0.0,0.0,0.0,0.0,0.0,0.0,0.0,0.0,0.0,0.0,0.0,0.0,0.0,0.0,0.0,0.0,0.0,0.0,0.0,0.0,0.0,0.0,0.0,0.0,0.0,0.0,0.0,0.0,0.0,0.0,0.0,0.0,0.0,0.0,0.0,0.0,0.0,0.0,0.0,0.0,0.0,0.0,0.0,0.0,0.0,0.0,0.0,0.0,0.0,0.0,0.0,0.0,0.0,0.0,0.0,0.0,0.0,0.0,0.0,0.0,0.0,0.0,0.0,0.0,0.0,0.0,0.0,0.0,0.0,0.0,0.0,0.0,0.0,0.0,0.0,0.0,0.0,0.0,0.0,0.0,0.0,0.0,0.0,0.0,0.0,0.0,0.0,0.0,0.0,0.0,0.0,0.0,0.0,0.0,0.0,0.0,0.0,0.0,0.0,0.0,0.0,0.0,0.0,0.0,0.0,0.0,0.0,0.0,0.0,0.0,0.0,0.0,0.0,0.0,0.0,0.0,0.0,0.0,0.0,0.0,0.0,0.0,0.0,0.0,0.0,0.0,0.0,0.0,0.0,0.0,0.0,0.0,0.0,0.0,0.0,0.0,0.0,0.0,0.0,0.0,0.0,0.0,0.0,0.0,0.0,0.0,0.0,0.0,0.0,0.0,0.0,0.0,0.0,0.0,0.0,0.0,0.0,0.0,0.0,0.0,0.0,0.0,0.0,0.0,0.0,0.0,0.0,0.0,0.0,0.0,0.0,0.0,0.0,0.0,0.0,0.0,0.0,0.0,0.0,0.0,0.0,0.0,0.0,0.0,0.0,0.0,0.0,0.0,0.0,0.0,0.0,0.0,0.0,0.0,0.0,0.0,0.0,0.0,0.0,0.0,0.0,0.0,0.0,0.0,0.0,0.0,0.0,0.0,0.0,0.0,0.0,0.0,0.0,0.0,0.0,0.0,0.0,0.0,0.0,0.0,0.0,0.0,0.0,0.0,0.0,0.0,0.0,0.0,0.0,0.0,0.0,0.0,0.0,0.0,0.0,0.0,0.0,0.0,0.0,0.0,0.0,0.0,0.0,0.0,0.0,0.0,0.0,0.0,0.0,0.0,0.0,0.0,0.0,0.0,0.0,0.0,0.0,0.0,0.0,0.0,0.0,0.0,0.0,0.0,0.0,0.0,0.0,0.0,0.0,0.0,0.0,0.0,0.0,0.0,0.0,0.0,0.0,0.0,0.0,0.0,0.0,0.0,0.0,0.0,0.0,0.0,0.0,0.0,0.0,0.0,0.0,0.0,0.0,0.0,0.0,0.0,0.0,0.0,0.0,0.0,0.0,0.0,0.0,0.0,0.0,0.0,0.0,0.0,0.0,0.0,0.0,0.0,0.0,0.0,0.0,0.0,0.0,0.0,0.0,0.0,0.0,0.0,0.0,0.0,0.0,0.0,0.0,0.0,0.0,0.0,0.0,0.0,0.0,0.0,0.0,0.0,0.0,0.0,0.0,0.0,0.0,0.0,0.0,0.0,0.0,0.0,0.0,0.0,0.0,0.0,0.0,0.0,0.0,0.0,0.0,0.0,0.0,0.0,0.0,0.0,0.0,0.0,0.0,0.0,0.0,0.0,0.0,0.0,0.0,0.0,0.0,0.0,0.0,0.0,0.0,0.0,0.0,0.0,0.0,0.0,0.0,0.0,0.0,0.0,0.0,0.0,0.0,0.0,0.0,0.0,0.0,0.0,0.0,0.0,0.0,0.0,0.0,0.0,0.0,0.0,0.0,0.0,0.0,0.0,0.0,0.0,0.0,0.0,0.0,0.0,0.0,0.0,0.0,0.0,0.0,0.0,0.0,0.0,0.0,0.0,0.0,0.0,0.0,0.0,0.0,0.0,0.0,0.0,0.0,0.0,0.0,0.0,0.0,0.0,0.0,0.0,0.0,0.0,0.0,0.0,0.0,0.0,0.0,0.0,0.0,0.0,0.0,0.0,0.0,0.0,0.0,0.0,0.0,0.0,0.0,0.0,0.0,0.0,0.0,0.0,0.0,0.0,0.0,0.0,0.0,0.0,0.0,0.0,0.0,0.0,0.0,0.0,0.0,0.0,0.0,0.0,0.0,0.0,0.0,0.0,0.0,0.0,0.0,0.0,0.0,0.0,0.0,0.0,0.0,0.0,0.0,0.0,0.0,0.0,0.0,0.0,0.0,0.0,0.0,0.0,0.0,0.0,0.0,0.0,0.0,0.0,0.0,0.0,0.0,0.0,0.0,0.0,0.0,0.0,0.0,0.0,0.0,0.0,0.0,0.0,0.0,0.0,0.0,0.0,0.0,0.0,0.0,0.0,0.0,0.0,0.0,0.0,0.0,0.0,0.0,0.0,0.0,0.0,0.0,0.0,0.0,0.0,0.0,0.0,0.0,0.0,0.0,0.0,0.0,0.0,0.0,0.0,0.0,0.0,0.0,0.0,0.0,0.0,0.0,0.0,0.0,0.0,0.0,0.0,0.0,0.0,0.0,0.0,0.0,0.0,0.0,0.0,0.0,0.0,0.0,0.0,0.0,0.0,0.0,0.0,0.0,0.0,0.0,0.0,0.0,0.0,0.0,0.0,0.0,0.0,0.0,0.0,0.0,0.0,0.0,0.0,0.0,0.0,0.0,0.0,0.0,0.0,0.0,0.0,0.0,0.0,0.0,0.0,0.0,0.0,0.0,0.0,0.0,0.0,0.0,0.0,0.0,0.0,0.0,0.0,0.0,0.0,0.0,0.0,0.0,0.0,0.0,0.0,0.0,0.0,0.0,0.0,0.0,0.0,0.0,0.0,0.0,0.0,0.0,0.0,0.0,0.0,0.0,0.0,0.0,0.0,0.0,0.0,0.0,0.0,0.0,0.0,0.0,0.0,0.0,0.0,0.0,0.0,0.0,0.0,0.0,0.0,0.0,0.0,0.0,0.0,0.0,0.0,0.0,0.0,0.0,0.0,0.0,0.0,0.0,0.0,0.0,0.0,0.0,0.0,0.0,0.0,0.0,0.0,0.0,0.0,0.0,0.0,0.0,0.0,0.0,0.0,0.0,0.0,0.0,0.0,0.0,0.0,0.0,0.0,0.0,0.0,0.0,0.0,0.0,0.0,0.0,0.0,0.0,0.0,0.0,0.0,0.0,0.0,0.0,0.0,0.0,0.0,0.0,0.0,0.0,0.0,0.0,0.0,0.0,0.0,0.0,0.0,0.0,0.0,0.0,0.0,0.0,0.0,0.0,0.0,0.0,0.0,0.0,0.0,0.0,0.0,0.0,0.0,0.0,0.0,0.0,0.0,0.0,0.0,0.0,0.0,0.0,0.0,0.0,0.0,0.0,0.0,0.0,0.0,0.0,0.0,0.0,0.0,0.0,0.0,0.0,0.0,0.0,0.0,0.0,0.0,0.0,0.0,0.0,0.0,0.0,0.0,0.0,0.0,0.0,0.0,0.0,0.0,0.0,0.0,0.0,0.0,0.0,0.0,0.0,0.0,0.0,0.0,0.0,0.0,0.0,0.0,0.0,0.0,0.0,0.0,0.0,0.0,0.0,0.0,0.0,0.0,0.0,0.0,0.0,0.0,0.0,0.0,0.0,0.0,0.0,0.0,0.0,0.0,0.0,0.0,0.0,0.0,0.0,0.0,0.0,0.0,0.0,0.0,0.0,0.0,0.0,0.0,0.0,0.0,0.0,0.0,0.0,0.0,0.0,0.0,0.0,0.0,0.0,0.0,0.0,0.0,0.0,0.0,0.0,0.0,0.0,0.0,0.0,0.0,0.0,0.0,0.0,0.0,0.0,0.0,0.0,0.0,0.0,0.0,0.0,0.0,0.0,0.0,0.0,0.0,0.0,0.0,0.0,0.0,0.0,0.0,0.0,0.0,0.0,0.0,0.0,0.0,0.0,0.0,0.0,0.0,0.0,0.0,0.0,0.0,0.0,0.0,0.0,0.0,0.0,0.0,0.0,0.0,0.0,0.0,0.0,0.0,0.0,0.0,0.0,0.0,0.0,0.0,0.0,0.0,0.0,0.0,0.0,0.0,0.0,0.0,0.0,0.0,0.0,0.0,0.0,0.0,0.0,0.0,0.0,0.0,0.0,0.0,0.0,0.0,0.0,0.0,0.0,0.0,0.0,0.0,0.0,0.0,0.0,0.0,0.0,0.0,0.0,0.0,0.0,0.0,0.0,0.0,0.0,0.0,0.0,0.0,0.0,0.0,0.0,0.0,0.0,0.0,0.0,0.0,0.0,0.0,0.0,0.0,0.0,0.0,0.0,0.0,0.0,0.0,0.0,0.0,0.0,0.0,0.0,0.0,0.0,0.0,0.0,0.0,0.0,0.0,0.0,0.0,0.0,0.0,0.0,0.0,0.0,0.0,0.0,0.0,0.0,0.0,0.0,0.0,0.0,0.0,0.0,0.0,0.0,0.0,0.0,0.0,0.0,0.0,0.0,0.0,0.0,0.0,0.0,0.0,0.0,0.0,0.0,0.0,0.0,0.0,0.0,0.0,0.0,0.0,0.0,0.0,0.0,0.0,0.0,0.0,0.0,0.0,0.0,0.0,0.0,0.0,0.0,0.0,0.0,0.0,0.0,0.0,0.0,0.0,0.0,0.0,0.0,0.0,0.0,0.0,0.0,0.0,0.0,0.0,0.0,0.0,0.0,0.0,0.0,0.0,0.0,0.0,0.0,0.0,0.0,0.0,0.0,0.0,0.0,0.0,0.0,0.0,0.0,0.0,0.0,0.0,0.0,0.0,0.0,0.0,0.0,0.0,0.0,0.0,0.0,0.0,0.0,0.0,0.0,0.0,-0.0969,-0.1231,0.0,0.0,0.0,0.0,0.0,0.0,0.0,0.0,0.0,0.0,0.0,0.0,0.0,0.0,0.0,0.0,0.0,0.0,0.0,0.0,0.0,0.0,0.0,0.2785,0.2853,0.2994,0.3005,0.303,0.3091,0.3097,0.3069,0.3008,0.2975,0.2894,0.2804,0.2717,0.2687,0.2689,0.2597,0.2537,0.249,0.249,0.2474,0.2444,0.0,0.0,0.0,0.0,0.0,0.0,0.0,0.0,0.0,0.0,0.0,0.0,0.0,0.0,0.0,0.0,0.0,0.0,0.0,0.0,0.0,0.0,0.0,0.0,0.0,0.0,0.0,0.0,0.0,0.0,0.0,0.0,0.0,0.0,0.0,0.0,0.0,0.0,0.0,0.0,0.0,0.0,0.0,0.0,0.0,0.0,0.0,0.0,0.0,0.0,0.0,0.0,0.0,0.0,0.0,0.0,0.0,0.0,0.0,0.0,0.0,0.0,0.0,0.0,0.0,0.0,0.0,0.0,0.0,0.0,-0.0612,-0.0499,0.0,0.0,0.0,0.0,0.0,0.0,0.0,0.0,0.0,0.0,0.0,0.0,0.0,0.0,0.0,0.0,0.0,0.0,0.0,0.0,0.0,0.2608,0.2801,0.2828,0.2878,0.3011,0.3022,0.3041,0.3094,0.3108,0.3108,0.3097,0.3058,0.2985,0.2927,0.2908,0.2872,0.282,0.2749,0.264,0.2542,0.2542,0.2542,0.2542,0.2501,0.0,0.0,0.0,0.0,0.0,0.0,0.0,0.0,0.0,0.0,0.0,0.0,0.0,0.0,0.0,0.0,0.0,0.0,0.0,0.0,0.0,0.0,0.0,0.0,0.0,0.0,0.0,0.0,0.0,0.0,0.0,0.0,0.0,0.0,0.0,0.0,0.0,0.0,0.0,0.0,0.0,0.0,0.0,0.0,0.0,0.0,0.0,0.0,0.0,0.0,0.0,0.0,0.0,0.0,0.0,0.0,0.0,0.0,0.0,0.0,0.0,0.0,0.0,0.1627,0.1657,0.1661,0.0819,0.0314,0.0088,-0.0085,0.0141,0.0562,-0.1058,0.0,0.0,0.0,0.0,0.0,0.0,0.0,0.0,0.0,0.0,0.0,0.0,0.0,0.0,0.0,0.0,0.0,0.0,0.0,0.2717,0.287,0.2927,0.3008,0.3077,0.3086,0.3088,0.3097,0.3098,0.3104,0.3099,0.3093,0.3087,0.3075,0.2949,0.2892,0.2883,0.2771,0.2684,0.2668,0.2668,0.2668,0.2662,0.2559,0.2624,0.2823,0.0,0.0,0.0,0.0,0.0,0.0,0.0,0.0,0.0,0.0,0.0,0.0,0.0,0.0,0.0,0.0,0.0,0.0,0.0,0.0,0.0,0.0,0.0,0.0,0.0,0.0,0.0,0.0,0.0,0.0,0.0,0.0,0.0,0.0,0.0,0.0,0.0,0.0,0.0,0.0,0.0,0.3493,0.3545,0.0,0.0,0.0,0.0,0.0,0.0,0.0,0.0,0.0,0.0,0.0,0.0,0.0,0.2309,0.2306,0.3171,0.3593,0.3539,0.3669,0.3687,0.3634,0.3503,0.2937,0.2062,0.1123,0.0,-0.1429,-0.1685,0.0,0.0,0.0,0.0,0.0,0.0,0.0,0.0,0.0,0.0,0.0,0.0,0.0,0.0,0.0,0.0,0.0,0.0,0.0,0.0,0.0,0.3301,0.3461,0.3808,0.3838,0.3725,0.3444,0.3521,0.3418,0.3101,0.3133,0.3152,0.3153,0.3101,0.3025,0.2967,0.2823,0.2746,0.2692,0.2692,0.2711,0.276,0.2651,0.2673,0.2785,0.2621,0.0,0.0,0.0,0.0,0.0,0.0,0.0,0.0,0.0,0.0,0.0,0.0,0.0,0.0,0.0,0.0,0.0,0.0,0.0,0.0,0.0,0.0,0.0,0.0,0.0,0.0,0.0,0.0,0.0,0.0,0.0,0.0,0.0,0.0,0.0,0.0,0.0,0.0,0.0,0.3602,0.3713,0.3672,0.3351,0.3141,0.0,0.0,0.0,0.0,0.0,0.0,0.0,0.0,0.0,0.2722,0.3141,0.3353,0.3412,0.3838,0.4042,0.4018,0.4069,0.408,0.4021,0.3477,0.2977,0.251,0.1504,0.0252,-0.1102,-0.1647,-0.1524,-0.1053,0.0,0.0,0.0,0.0,-0.1798,-0.1798,0.0,0.0,0.0,0.0,0.0,0.0,0.0,0.0,0.0,0.0,0.0,0.0,0.3631,0.3699,0.389,0.4293,0.4363,0.4181,0.3724,0.382,0.3634,0.3115,0.3158,0.3182,0.3182,0.3152,0.3087,0.2983,0.2872,0.2804,0.276,0.276,0.2785,0.2826,0.2779,0.2768,0.2776,0.2662,0.2616,0.26,0.0,0.0,0.0,0.0,0.0,0.0,0.0,0.0,0.0,0.0,0.0,0.0,0.0,0.0,0.0,0.0,0.0,0.0,0.0,0.0,0.0,0.0,0.0,0.0,0.0,0.0,0.0,0.0,0.0,0.0,0.0,0.0,0.0,0.0,0.0,0.0,0.0,0.3781,0.3845,0.3755,0.3845,0.3856,0.0,0.0,0.0,0.0,0.0,0.0,0.3982,0.3963,0.4015,0.4072,0.4088,0.4118,0.4161,0.4164,0.4164,0.4164,0.4147,0.4139,0.4139,0.3388,0.2898,0.2573,0.189,0.078,-0.0549,-0.1242,-0.1243,-0.0867,-0.1571,-0.1836,-0.1834,-0.1834,-0.1861,-0.1847,0.0,0.0,0.0,0.0,0.0,0.0,0.0,0.0,0.0,0.0,0.0,0.3991,0.4066,0.4078,0.4082,0.4112,0.4233,0.4142,0.372,0.3769,0.3604,0.3112,0.3093,0.3095,0.3095,0.3054,0.2986,0.29,0.2894,0.2889,0.2886,0.2886,0.2889,0.2892,0.2889,0.2916,0.298,0.2782,0.2774,0.2867,0.2752,0.0,0.0,0.0,0.0,0.0,0.0,0.0,0.0,0.0,0.0,0.0,0.0,0.0,0.0,0.0,0.0,0.0,0.0,0.0,0.0,0.0,0.0,0.0,0.0,0.0,0.0,0.0,0.0,0.0,0.0,0.0,0.0,0.0,0.0,0.0,0.0,0.0,0.0,0.3893,0.3891,0.0,0.0,0.0,0.0,0.3915,0.4015,0.4104,0.4196,0.4169,0.4232,0.4292,0.4349,0.4382,0.4384,0.4384,0.4384,0.4384,0.4324,0.4297,0.4297,0.423,0.3658,0.2684,0.265,0.1432,-0.0492,-0.0478,-0.1038,-0.1914,-0.1979,-0.1949,-0.1898,-0.1959,-0.1999,-0.1994,0.0,0.0,0.0,0.4704,0.4684,0.4677,0.4847,0.4892,0.4859,0.4726,0.4591,0.4583,0.4722,0.4709,0.4802,0.5115,0.5171,0.501,0.457,0.4315,0.4004,0.358,0.3263,0.3109,0.3171,0.3103,0.3048,0.3023,0.3029,0.3033,0.3033,0.3033,0.3033,0.3033,0.3033,0.3044,0.3052,0.2848,0.2798,0.2834,0.279,0.2798,0.0,0.0,0.0,0.0,0.0,0.0,0.0,0.0,0.0,0.0,0.0,0.0,0.0,0.0,0.0,0.0,0.0,0.0,0.0,0.0,0.0,0.0,0.0,0.0,0.0,0.0,0.0,0.0,0.0,0.0,0.0,0.0,0.0,0.0,0.0,0.0,0.0,0.408,0.4104,0.0,0.4145,0.4185,0.4169,0.415,0.4289,0.4365,0.4387,0.4463,0.455,0.4572,0.4556,0.4564,0.4605,0.4491,0.4493,0.4605,0.4469,0.406,0.3322,0.3334,0.2692,0.16,0.1653,0.0838,-0.0501,-0.0463,-0.1106,-0.2078,-0.2069,-0.2057,-0.2018,-0.206,-0.2064,-0.2063,0.4726,0.4666,0.0,0.4721,0.4764,0.4846,0.4991,0.5219,0.5278,0.5004,0.504,0.5131,0.5191,0.5178,0.5291,0.5604,0.5664,0.5449,0.4863,0.4585,0.4179,0.3612,0.3294,0.3144,0.3169,0.3133,0.309,0.3109,0.3092,0.3097,0.3097,0.3097,0.3097,0.3097,0.3097,0.3097,0.3088,0.2969,0.2872,0.2837,0.2856,0.2864,0.2861,0.0,0.0,0.0,0.0,0.0,0.0,0.0,0.0,0.0,0.0,0.0,0.0,0.0,0.0,0.0,0.0,0.0,0.0,0.0,0.0,0.0,0.0,0.0,0.0,0.0,0.0,0.0,0.0,0.0,0.0,0.0,0.0,0.0,0.0,0.4038,0.4123,0.4237,0.4283,0.4313,0.4335,0.4392,0.442,0.4398,0.4507,0.4611,0.4611,0.467,0.4725,0.4725,0.4704,0.469,0.4732,0.4611,0.4589,0.4668,0.4567,0.3907,0.2768,0.2754,0.2108,0.1001,0.1061,0.0442,-0.0542,-0.0542,-0.117,-0.2127,-0.2127,-0.2121,-0.2111,-0.2111,-0.2105,-0.2096,0.4798,0.4795,0.4795,0.4806,0.4923,0.5099,0.5359,0.5578,0.5648,0.554,0.5621,0.5627,0.5436,0.5469,0.5513,0.5513,0.5621,0.538,0.4604,0.4522,0.414,0.3271,0.3251,0.3199,0.3129,0.3133,0.3112,0.3102,0.3102,0.3102,0.3102,0.3102,0.3102,0.3102,0.3102,0.3102,0.3102,0.3102,0.3036,0.2908,0.2986,0.3005,0.3011,0.0,0.0,0.0,0.0,0.0,0.0,0.0,0.0,0.0,0.0,0.0,0.0,0.0,0.0,0.0,0.0,0.0,0.0,0.0,0.0,0.0,0.0,0.0,0.0,0.0,0.0,0.0,0.0,0.0,0.0,0.0,0.0,0.0,0.4018,0.4066,0.4153,0.4305,0.442,0.4471,0.4417,0.4605,0.4685,0.4624,0.4734,0.4803,0.4803,0.4823,0.4818,0.4818,0.4798,0.4803,0.4806,0.4685,0.4624,0.4624,0.4561,0.3865,0.2704,0.2668,0.2034,0.0946,0.0911,0.0313,-0.0653,-0.0653,-0.1261,-0.219,-0.2189,-0.217,-0.211,-0.211,-0.2093,-0.2099,0.4906,0.4822,0.4803,0.5045,0.5116,0.5219,0.5442,0.561,0.5762,0.592,0.5794,0.5751,0.59,0.5746,0.5637,0.5637,0.5669,0.5638,0.5527,0.519,0.4785,0.4311,0.4294,0.4129,0.3747,0.3718,0.3521,0.318,0.318,0.318,0.318,0.318,0.318,0.318,0.318,0.318,0.318,0.318,0.3112,0.3042,0.3059,0.3044,0.3005,0.0,0.0,0.0,0.0,0.0,0.0,0.0,0.0,0.0,0.0,0.0,0.0,0.0,0.0,0.0,0.0,0.0,0.0,0.0,0.0,0.0,0.0,0.0,0.0,0.0,0.0,0.0,0.0,0.0,0.0,0.0,0.4161,0.4153,0.4137,0.433,0.448,0.4591,0.4668,0.4729,0.4683,0.4769,0.4856,0.4802,0.4946,0.5014,0.5014,0.5071,0.5104,0.5104,0.5046,0.5036,0.5079,0.4959,0.4921,0.4962,0.4861,0.4153,0.2963,0.2073,0.104,-0.0142,-0.095,-0.1505,-0.1743,-0.176,-0.1921,-0.2185,-0.2197,-0.2183,-0.2175,-0.2175,-0.217,-0.2163,0.496,0.4942,0.498,0.5168,0.5311,0.5442,0.5561,0.5751,0.5915,0.5996,0.5888,0.5816,0.5926,0.5794,0.5691,0.5691,0.5691,0.5693,0.5645,0.527,0.496,0.4802,0.4818,0.4713,0.446,0.4449,0.417,0.3624,0.3654,0.3523,0.3244,0.3269,0.3266,0.3244,0.3269,0.3266,0.3244,0.3269,0.3261,0.3223,0.3188,0.3136,0.3035,0.3035,0.3049,0.3068,0.3044,0.3057,0.309,0.3098,0.0,0.0,0.0,0.0,0.0,0.0,0.0,0.0,0.0,0.0,0.0,0.0,0.0,0.0,0.0,0.0,0.0,0.0,0.0,0.0,0.0,0.0,0.0,0.0,0.4316,0.4373,0.4401,0.4501,0.4641,0.4729,0.4836,0.488,0.4877,0.4958,0.501,0.501,0.5112,0.515,0.515,0.5183,0.5191,0.5166,0.5106,0.5079,0.509,0.4956,0.4926,0.4961,0.4894,0.3962,0.2269,0.1573,0.0333,-0.1318,-0.2,-0.2269,-0.2244,-0.2251,-0.223,-0.2215,0.0,0.0,0.0,0.0,-0.175,-0.175,0.4993,0.5116,0.5217,0.5224,0.5486,0.5719,0.5746,0.5937,0.6034,0.5953,0.5909,0.5827,0.574,0.5719,0.5691,0.5691,0.5735,0.5649,0.546,0.5194,0.5044,0.512,0.5176,0.5192,0.5197,0.5251,0.4962,0.4316,0.436,0.4093,0.3514,0.3572,0.3566,0.3514,0.3493,0.3461,0.3413,0.3416,0.3412,0.3409,0.3328,0.3234,0.3101,0.3093,0.3144,0.3179,0.3125,0.3104,0.3098,0.3098,0.0,0.0,0.0,0.0,0.0,0.0,0.0,0.0,0.0,0.0,0.0,0.0,0.0,0.0,0.0,0.0,0.0,0.0,0.0,0.0,0.0,0.0,0.0,0.0,0.4584,0.479,0.4875,0.4911,0.492,0.4846,0.4937,0.5041,0.5041,0.5145,0.5213,0.5213,0.5218,0.5224,0.5224,0.5224,0.0,0.0,0.0,0.4999,0.4948,0.4894,0.4861,0.4848,0.4856,0.3659,0.1402,0.1266,-0.0038,-0.2195,-0.2306,-0.2314,-0.2226,-0.2196,-0.2131,-0.2065,-0.2114,-0.1888,-0.1515,-0.1212,-0.1111,-0.1111,0.5148,0.519,0.5246,0.5426,0.5578,0.5778,0.5991,0.5969,0.6002,0.62,0.5947,0.5773,0.586,0.5767,0.5691,0.5691,0.5909,0.6112,0.6345,0.6391,0.6417,0.6443,0.6437,0.6269,0.5848,0.584,0.5576,0.5004,0.502,0.4967,0.4846,0.4835,0.4835,0.482,0.4335,0.412,0.408,0.3592,0.3412,0.3412,0.3374,0.3296,0.3182,0.3109,0.3117,0.3106,0.3095,0.3089,0.3095,0.3109,0.3098,0.3106,0.3155,0.3212,0.0,0.0,0.0,0.0,0.0,0.0,0.0,0.0,0.0,0.0,0.0,0.0,0.0,0.0,0.0,0.0,0.0,0.0,0.0,0.4594,0.5201,0.5746,0.6037,0.6638,0.6522,0.5122,0.5087,0.5166,0.5166,0.5234,0.5275,0.5275,0.5322,0.5349,0.5349,0.5349,0.5343,0.5333,0.5319,0.5308,0.5297,0.5286,0.5232,0.5134,0.5183,0.0,0.2688,0.1788,0.0502,-0.1059,-0.1648,-0.1897,-0.1885,-0.1481,-0.1314,-0.1331,-0.1653,-0.1564,-0.1178,-0.1111,-0.1111,-0.1111,0.5574,0.5499,0.5497,0.5675,0.5854,0.604,0.6183,0.6151,0.6149,0.6328,0.6094,0.5931,0.5991,0.5942,0.5865,0.58,0.604,0.6279,0.6488,0.6618,0.6763,0.6888,0.6975,0.6872,0.6601,0.663,0.6327,0.5688,0.5759,0.564,0.5352,0.5416,0.5411,0.5352,0.5115,0.4969,0.4893,0.4647,0.4519,0.4505,0.4467,0.4384,0.4165,0.3503,0.3256,0.3257,0.3257,0.3257,0.3257,0.3206,0.3405,0.3607,0.3305,0.3652,0.4076,0.0,0.0,0.0,0.0,0.0,0.0,0.0,0.0,0.0,0.0,0.0,0.0,0.0,0.0,0.5534,0.558,0.0,0.5862,0.6017,0.6451,0.6838,0.7087,0.7509,0.7309,0.5912,0.5838,0.5739,0.5289,0.5303,0.5338,0.5338,0.5368,0.5384,0.5384,0.5384,0.5371,0.5341,0.5754,0.5781,0.5294,0.6199,0.5959,0.4552,0.5028,0.4048,0.1821,0.1274,0.0277,-0.1011,-0.1383,-0.1518,-0.1497,-0.1242,-0.104,-0.0885,-0.1055,-0.1009,-0.079,-0.0614,-0.0544,-0.0544,0.6083,0.598,0.5913,0.5911,0.6176,0.6365,0.6317,0.6293,0.6325,0.6368,0.6219,0.6118,0.614,0.6145,0.61,0.6045,0.6225,0.6393,0.6509,0.6628,0.6823,0.7046,0.7193,0.7253,0.7253,0.7323,0.7053,0.6456,0.6568,0.6351,0.5881,0.6007,0.5998,0.5881,0.5867,0.5821,0.5717,0.5697,0.566,0.5615,0.5568,0.5465,0.5276,0.4219,0.379,0.3757,0.3757,0.3722,0.3704,0.3691,0.3979,0.4269,0.376,0.4321,0.4974,0.3974,0.4092,0.0,0.0,0.0,0.0,0.0,0.0,0.0,0.0,0.5497,0.5748,0.643,0.6781,0.6975,0.7031,0.7218,0.7373,0.7461,0.7688,0.7941,0.8052,0.8319,0.8151,0.7159,0.6968,0.6635,0.5932,0.5897,0.5927,0.5927,0.5927,0.5927,0.5927,0.5927,0.5903,0.5849,0.6511,0.6522,0.5768,0.6866,0.6326,0.4162,0.4533,0.3263,0.0609,0.0609,-0.0081,-0.1278,-0.1221,-0.1082,-0.0983,-0.0961,-0.0765,-0.0469,-0.0468,-0.0464,-0.0353,-0.0104,0.0,0.0,0.6567,0.6657,0.6508,0.5989,0.6318,0.6579,0.6341,0.6293,0.6298,0.6309,0.6194,0.6151,0.626,0.6271,0.6353,0.6498,0.6536,0.6676,0.691,0.7057,0.7182,0.7262,0.7387,0.7481,0.7481,0.7462,0.7428,0.7343,0.737,0.7346,0.7277,0.7298,0.7298,0.7248,0.6745,0.6482,0.6429,0.5927,0.5697,0.5689,0.5677,0.5664,0.5648,0.5443,0.5206,0.5002,0.5002,0.4924,0.4842,0.494,0.496,0.4908,0.495,0.5194,0.5305,0.4602,0.4569,0.4627,0.4048,0.4434,0.5206,0.6033,0.6125,0.6065,0.0,0.6495,0.66,0.6806,0.7012,0.7204,0.7255,0.7319,0.7473,0.7723,0.8379,0.8899,0.9101,0.9804,1.0014,0.9193,0.8419,0.7881,0.7797,0.7805,0.7809,0.7809,0.7809,0.7809,0.7809,0.7809,0.7805,0.7797,0.7881,0.7877,0.7781,0.6401,0.5496,0.5113,0.3668,0.2156,0.0609,0.065,-0.004,-0.1278,-0.0859,-0.046,-0.0151,-0.0149,-0.0111,-0.0074,-0.0073,-0.0073,-0.0036,0.0,0.0,0.0,0.6856,0.7078,0.7133,0.6673,0.6809,0.6958,0.6835,0.681,0.681,0.681,0.6764,0.6777,0.6879,0.6811,0.6777,0.6838,0.6834,0.6904,0.71,0.7192,0.7285,0.7305,0.7495,0.7589,0.7489,0.7589,0.7589,0.7489,0.7589,0.7627,0.7627,0.7693,0.7687,0.7598,0.7424,0.7329,0.7242,0.7065,0.6936,0.6852,0.6852,0.6813,0.6745,0.6637,0.651,0.6227,0.4782,0.4237,0.0,0.426,0.4453,0.4777,0.5196,0.5863,0.6158,0.4518,0.4925,0.5893,0.5882,0.6137,0.6481,0.6888,0.6986,0.7036,0.7356,0.7469,0.7696,0.8289,0.8568,0.875,0.8859,0.8972,0.913,0.9391,0.9718,0.9978,1.0102,1.0413,1.0511,1.019,0.982,0.923,0.8186,0.8102,0.8102,0.8102,0.8102,0.8102,0.8102,0.8102,0.8102,0.8102,0.8608,0.8608,0.8102,0.7345,0.6154,0.4544,0.3269,0.1841,0.0249,0.0288,0.0,-0.0519,-0.0351,-0.0154,0.0,0.0,0.0,0.0,0.0,0.0,0.0,0.0,0.0,0.0,0.7148,0.7406,0.754,0.738,0.7396,0.7366,0.721,0.721,0.721,0.721,0.721,0.7241,0.737,0.7355,0.7267,0.7082,0.718,0.7192,0.7111,0.7315,0.7407,0.7354,0.7616,0.7709,0.7616,0.7703,0.7703,0.7616,0.7703,0.7747,0.7747,0.7864,0.7859,0.7752,0.7864,0.7853,0.7752,0.7864,0.7853,0.7747,0.7747,0.7693,0.76,0.7414,0.7381,0.7109,0.489,0.406,0.3986,0.3708,0.387,0.4283,0.476,0.5523,0.5897,0.4033,0.4661,0.6098,0.6644,0.7071,0.7449,0.7705,0.7866,0.8034,0.8293,0.8454,0.8754,0.943,0.9748,0.9888,1.0047,1.0172,1.0318,1.0566,1.0626,1.0634,1.0684,1.0695,1.0695,1.0695,1.0695,1.0195,0.8938,0.8813,0.8813,0.8813,0.8813,0.8813,0.8813,0.8813,0.8813,0.8813,0.9444,0.9235,0.8102,0.7592,0.6124,0.3612,0.2478,0.1262,0.0,0.0,0.0,0.0,0.0,0.0,0.0,0.0,0.0,0.0,0.0,0.0,0.0,0.0,0.0,0.0,0.0,0.7597,0.7668,0.7934,0.7963,0.7789,0.7285,0.721,0.721,0.721,0.721,0.7288,0.7555,0.7816,0.7762,0.7246,0.7606,0.7576,0.6844,0.7415,0.7703,0.7508,0.7741,0.7892,0.7892,0.7892,0.7892,0.7892,0.7892,0.7897,0.7897,0.7903,0.7903,0.7897,0.7903,0.7903,0.7897,0.7903,0.7903,0.7897,0.7897,0.7892,0.7864,0.76,0.7589,0.7482,0.5916,0.5249,0.499,0.3965,0.3527,0.3467,0.361,0.3776,0.3771,0.3115,0.353,0.4377,0.5212,0.6378,0.7544,0.8501,0.8816,0.8933,0.9201,0.9481,0.9688,0.9764,0.9888,1.0013,1.0177,1.0297,1.0457,1.0577,1.0655,1.069,1.0695,1.0695,1.0695,1.0695,1.0695,1.0695,1.0612,1.0612,1.0612,1.0612,1.0612,1.0612,1.0612,1.0612,1.0612,1.0612,1.0654,0.9856,0.8136,0.6376,0.4575,0.273,0.0926,0.0042,0.0,0.0,0.0,0.0,0.0,0.0,0.0,0.0,0.0,0.0,0.0,0.0,0.0,0.0,0.0,0.0,0.0,0.0,0.7776,0.7979,0.7988,0.7939,0.7764,0.7739,0.7772,0.7921,0.8072,0.0,0.0,0.0,0.0,0.0,0.808,0.8098,0.7749,0.8105,0.8254,0.8096,0.826,0.8334,0.8244,0.8244,0.8122,0.7903,0.7903,0.7903,0.7903,0.7903,0.7903,0.7903,0.7903,0.7903,0.7903,0.7903,0.7946,0.8017,0.7935,0.7952,0.8006,0.7842,0.7185,0.6193,0.0,0.4346,0.4087,0.2829,0.2382,0.2484,0.3337,0.3639,0.3814,0.4649,0.4624,0.4818,0.6845,0.788,0.8465,0.89,0.9101,0.9233,0.9547,0.9683,0.9813,0.9894,0.9953,1.0085,1.0286,1.0356,1.0449,1.0645,1.071,1.0695,1.0695,1.0695,1.0695,1.0695,1.0695,1.0695,1.0695,1.0695,1.0695,1.0695,1.0771,1.0814,1.0814,1.0933,1.0379,0.909,0.9047,0.816,0.632,0.4498,0.3301,0.2688,0.0884,0.0,0.0,0.0,0.0,0.0,0.0,0.0,0.0,0.0,0.0,0.0,0.0,0.0,0.0,0.0,0.0,0.0,0.0,0.0,0.0,0.8135,0.8128,0.0,0.0,0.0,0.0,0.0,0.0,0.0,0.0,0.0,0.0,0.0,0.0,0.8467,0.8182,0.8514,0.8668,0.8592,0.8677,0.8715,0.8716,0.8627,0.8512,0.8337,0.8292,0.8208,0.8086,0.8086,0.8025,0.7903,0.7903,0.7903,0.7903,0.7903,0.7946,0.8017,0.7979,0.8017,0.8046,0.7408,0.6614,0.0,0.381,0.3156,0.2953,0.1596,0.1171,0.1288,0.2075,0.2307,0.2496,0.3509,0.4086,0.4827,0.6602,0.8011,0.9022,0.9184,0.9378,0.952,0.9748,0.9834,0.9872,0.991,0.9948,1.0057,1.0172,1.0297,1.0433,1.0585,1.0641,1.0695,1.0695,1.0695,1.0695,1.0695,1.0695,1.0695,1.0695,1.0148,1.0023,1.0654,1.0809,1.062,0.9936,0.9997,0.9189,0.7241,0.7198,0.6311,0.4465,0.3295,0.238,0.1723,0.0547,0.0,0.0,0.0,0.0,0.0,0.0,0.0,0.0,0.0,0.0,0.0,0.0,0.0,0.0,0.0,0.0,0.0,0.0,0.0,0.0,0.0,0.0,0.0,0.0,0.0,0.0,0.0,0.0,0.0,0.0,0.0,0.0,0.0,0.0,0.0,0.8205,0.866,0.8934,0.8927,0.894,0.9069,0.9297,0.9063,0.9002,0.91,0.8971,0.8757,0.842,0.842,0.8231,0.7919,0.7919,0.7919,0.7919,0.7919,0.7894,0.7813,0.7957,0.7968,0.7754,0.6338,0.5851,0.5518,0.2792,0.1863,0.1696,0.0427,0.0,0.0,0.0,0.0,0.0,0.0067,0.2032,0.4273,0.468,0.686,0.9072,0.9449,0.9671,0.9802,0.9807,0.9894,0.9937,0.9818,0.9888,0.9937,0.9813,1.0134,1.0384,1.0384,1.0585,1.0695,1.0701,1.0706,1.0706,1.0712,1.0628,1.0586,1.0586,0.8989,0.8654,1.0294,1.0567,0.9861,0.8071,0.8027,0.7208,0.5345,0.5258,0.4388,0.2565,0.2579,0.1701,0.0,0.0,0.0,0.0,0.0,0.0,0.0,0.0,0.0,0.0,0.0,0.0,0.0,0.0,0.0,0.0,0.0,0.0,0.0,0.0,0.0,0.0,0.0,0.0,0.0,0.0,0.0,0.0,0.0,0.0,0.0,0.0,0.0,0.0,0.0,0.0,0.0,0.9072,0.9303,0.9407,0.942,0.9526,0.9542,0.9512,0.9544,0.945,0.9234,0.9229,0.9028,0.8712,0.8712,0.8491,0.8112,0.8112,0.8112,0.8112,0.8112,0.7583,0.6717,0.6636,0.6017,0.5072,0.4715,0.3918,0.2962,0.2272,0.1358,0.0448,0.0126,0.0,0.0,0.0,0.0,0.0199,0.1206,0.2124,0.333,0.5647,0.6954,0.8025,0.937,0.9753,0.9823,0.9915,0.9888,0.9813,0.9737,0.9802,0.9813,0.9737,1.0079,1.0384,1.0384,1.0585,1.0728,1.082,1.0831,1.0905,1.0998,0.9716,0.8856,0.8856,0.7181,0.6277,0.6709,0.6812,0.6672,0.6199,0.6265,0.546,0.3599,0.3554,0.2613,0.0704,0.0691,0.047,0.0,0.0,0.0,0.0,0.0,0.0,0.0,0.0,0.0,0.0,0.0,0.0,0.0,0.0,0.0,0.0,0.0,0.0,0.0,0.0,0.0,0.0,0.0,0.0,0.0,0.0,0.0,0.0,0.0,0.0,0.0,0.0,0.0,0.0,0.0,0.0,0.0,0.0,0.9564,0.9666,0.9765,0.9846,0.9899,0.9896,0.9878,0.9797,0.9608,0.9608,0.945,0.9134,0.9068,0.8805,0.846,0.8268,0.8204,0.8172,0.7554,0.6878,0.0,0.0,0.4763,0.4048,0.3444,0.2742,0.1971,0.1391,0.105,0.087,0.0926,0.0897,0.0873,0.0916,0.0499,0.0135,0.0901,0.1692,0.2832,0.5351,0.6627,0.7667,0.9461,0.984,0.9818,0.9888,0.9851,0.9731,0.9612,0.972,0.9731,0.9552,0.9949,1.0286,1.0231,1.0471,1.0721,1.0895,1.0191,0.972,0.9826,0.8149,0.6982,0.6982,0.5291,0.4216,0.4237,0.5022,0.5122,0.4316,0.4406,0.3582,0.1703,0.1614,0.1116,0.0,0.0,0.0,0.0,0.0,0.0,0.0,0.0,0.0,0.0,0.0,0.0,0.0,0.0,0.0,0.0,0.0,0.0,0.0,0.0,0.0,0.0,0.0,0.0,0.0,0.0,0.0,0.0,0.0,0.0,0.0,0.8892,0.9062,0.9214,0.9234,0.9349,0.0,0.0,0.0,0.0,0.0,0.0,0.9731,0.9977,1.0035,1.0123,1.0304,1.0143,1.0076,1.0076,1.0055,0.9893,0.9618,0.9387,0.9124,0.8773,0.8364,0.8103,0.7879,0.6654,0.5917,0.5454,0.4316,0.372,0.3435,0.0,0.1815,0.1647,0.0437,0.086,0.2034,0.2297,0.2231,0.2011,0.2067,0.1147,0.0,0.0,0.0942,0.2435,0.4446,0.5967,0.7492,0.9488,0.9888,0.9796,0.9796,0.9737,0.9649,0.9487,0.9639,0.965,0.9345,0.9758,1.0128,1.0036,1.0307,1.0669,1.0905,0.9318,0.8158,0.8259,0.6357,0.5053,0.5053,0.3401,0.232,0.234,0.3841,0.4062,0.243,0.2452,0.1748,0.0045,0.0,0.0,0.0,0.0,0.0,0.0,0.0,0.0,0.0,0.0,0.0,0.0,0.0,0.0,0.0,0.0,0.0,0.0,0.0,0.0,0.0,0.0,0.0,0.0,0.0,0.0,0.0,0.0,0.0,0.0,0.0,0.0,0.0,0.0,0.9062,0.9226,0.9356,0.9476,0.0,0.0,0.0,0.0,0.0,0.0,0.0,0.9977,1.0175,1.031,1.0453,1.0426,1.0412,1.0412,1.0297,1.0046,0.9691,0.943,0.9092,0.871,0.8364,0.7623,0.6622,0.6366,0.492,0.2786,0.2531,0.1757,0.067,0.0437,0.037,0.0,0.0101,0.0865,0.2199,0.3486,0.3076,0.2005,0.2073,0.1136,0.0,0.0,0.0185,0.109,0.4171,0.5191,0.613,0.9231,0.9888,0.9796,0.9796,0.9671,0.9487,0.9362,0.9449,0.947,0.9174,0.9531,0.9888,0.997,1.0242,1.0568,1.1009,0.9382,0.8271,0.8522,0.5475,0.334,0.334,0.1605,0.0447,0.0447,0.0761,0.0805,0.0492,0.0493,0.0359,0.0,0.0,0.0,0.0,0.0,0.0,0.0,0.0,0.0,0.0,0.0,0.0,0.0,0.0,0.0,0.0,0.0,0.0,0.0,0.0,0.0,0.0,0.0,0.0,0.0,0.0,0.0,0.0,0.0,0.0,0.0,0.0,0.8615,0.8791,0.9022,0.9138,0.924,0.939,0.9585,0.9717,0.0,0.0,0.0,0.0,0.0,0.0,1.0161,1.0243,1.0342,1.0378,1.0453,1.0453,1.0417,0.0,1.0038,0.9838,0.939,0.9101,0.8899,0.8485,0.7968,0.7284,0.5804,0.4379,0.3025,0.158,0.0598,0.0,0.0,0.0471,0.0,0.0269,0.1333,0.3231,0.4042,0.3794,0.3205,0.3239,0.1759,0.0,0.0,0.0681,0.1954,0.4444,0.581,0.7084,0.9494,0.9932,0.9753,0.9753,0.9519,0.9302,0.9302,0.94,0.9416,0.9141,0.9482,0.9818,0.9878,1.0182,1.0224,0.9654,0.7933,0.6466,0.5714,0.3136,0.139,0.139,0.0538,0.0,0.0,0.0,0.0,0.0,0.0,0.0,0.0,0.0,0.0,0.0,0.0,0.0,0.0,0.0,0.0,0.0,0.0,0.0,0.0,0.0,0.0,0.0,0.0,0.0,0.0,0.0,0.0,0.0,0.0,0.0122,0.032,0.0,0.0,0.0,0.0,0.0,0.0,0.8505,0.8615,0.8804,0.9104,0.9158,0.924,0.939,0.9618,0.9758,0.0,0.0,0.0,0.0,0.0,0.0,0.0,1.0324,1.0369,1.0403,0.0,0.0,1.0228,1.0019,0.0,0.0,0.0,0.0,0.0,0.8551,0.8178,0.7746,0.5148,0.3908,0.0,0.0,0.0,0.0,0.0,0.0,0.0,0.0,0.1372,0.3344,0.406,0.4099,0.3942,0.4542,0.2794,0.0438,0.0114,0.1268,0.3025,0.47,0.647,0.8189,0.9748,0.9894,0.9676,0.9703,0.9394,0.913,0.928,0.9378,0.9389,0.9168,0.9455,0.9748,0.9823,1.0166,0.9886,0.8419,0.6592,0.4774,0.3119,0.1164,0.0,0.0,0.0,0.0,0.0,0.0,0.0,0.0,0.0,0.0,0.0,0.0,0.0,0.0,0.0,0.0,0.0,0.0,0.0,0.0,0.0,0.0,0.0,0.0,0.0,0.0,0.0,0.0,0.0,0.0,0.0,0.0,0.0,0.0246,0.0604,0.0,0.0,0.0,0.0,0.0,0.0,0.8492,0.8615,0.8743,0.8912,0.9104,0.924,0.939,0.953,0.968,0.0,0.0,0.0,0.0,0.0,0.0,0.0,0.0,0.0,0.0,0.0,0.0,1.0019,0.9832,0.0,0.0,0.0,0.0,0.0,0.0,0.7451,0.6217,0.4605,0.0,0.0,0.0,0.0,0.0,0.0,0.0,0.0,0.0,0.017,0.0774,0.3405,0.3394,0.2773,0.5383,0.431,0.1804,0.0411,0.1183,0.2895,0.4549,0.6239,0.7928,0.9607,0.9769,0.9536,0.9682,0.9394,0.913,0.928,0.9313,0.9313,0.9291,0.9416,0.9628,0.9949,1.0221,0.9897,0.8416,0.6645,0.4841,0.3089,0.1204,0.0,0.0,0.0,0.0,0.0,0.0,0.0,0.0,0.0,0.0,0.0,0.0,0.0,0.0,0.0,0.0,0.0,0.0,0.0,0.0,0.0,0.0,0.0,0.0,0.0,0.0,0.0,0.0,0.0,0.0,0.0,0.0,0.0,0.0292,0.07,0.0,0.0,0.0,0.0,0.0,0.0,0.8485,0.8615,0.8832,0.9164,0.9206,0.9308,0.9612,0.9625,0.9666,0.9778,0.0,0.0,0.0,0.0,0.0,0.0,0.0,0.0,0.0,0.0,0.9944,0.9812,0.9488,0.0,0.0,0.0,0.0,0.0,0.0,0.7525,0.613,0.4641,0.0,0.0,0.0,0.0,0.0,0.0,0.0,0.0,0.0,0.0,0.2859,0.3932,0.4564,0.4947,0.5093,0.5034,0.4423,0.1961,0.2638,0.4036,0.3706,0.6368,0.9129,0.8602,0.8341,0.8164,0.8206,0.7215,0.663,0.7706,0.7923,0.8213,0.9121,0.9465,0.9688,0.9976,1.0226,0.983,0.8244,0.7486,0.5978,0.3011,0.2029,0.1202,0.009,0.0,0.0,0.0,0.0,0.0,0.0,0.0,0.0,0.0,0.0,0.0,0.0,0.0,0.0,0.0,0.0,0.0,0.0,0.0,0.0,0.0,0.0,0.0,0.0,0.0,0.0168,0.0421,0.0421,0.0589,0.0799,0.0799,0.1086,0.1487,0.0,0.0,0.0,0.0,0.0,0.8362,0.852,0.8642,0.8852,0.9288,0.9247,0.9335,0.9713,0.9673,0.9656,0.9839,0.9819,0.0,0.0,0.0,0.0,0.0,0.0,0.0,0.0,0.0,0.9628,0.9528,0.925,0.905,0.0,0.0,0.859,0.8584,0.0,0.0,0.0,0.0,0.0,0.0,0.0,0.0,0.0,0.0,0.0,0.0,0.0,0.0,0.0,0.0,0.0,0.5919,0.5163,0.5389,0.535,0.2352,0.3181,0.471,0.307,0.5984,0.914,0.7778,0.731,0.7228,0.7191,0.5791,0.4979,0.6661,0.7014,0.7489,0.9013,0.9503,0.9737,0.9932,1.0204,0.981,0.8194,0.8065,0.6755,0.3049,0.2722,0.2037,0.0179,0.0,0.0,0.0,0.0,0.0,0.0,0.0,0.0,0.0,0.0,0.0,0.0,0.0,0.0,0.0,0.0,0.0,0.0,0.0,0.0,0.0,0.0126,0.021,0.021,0.0337,0.0589,0.0884,0.0884,0.1052,0.1304,0.1304,0.159,0.1992,0.0,0.0,0.0,0.0,0.0,0.0,0.8662,0.871,0.8818,0.9173,0.9214,0.9301,0.9578,0.9612,0.9697,0.9988,0.9879,0.0,0.0,0.0,0.0,0.0,0.0,0.0,0.0,0.0,0.9489,0.9117,0.9117,0.8917,0.8623,0.859,0.859,0.8584,0.0,0.0,0.0,0.0,0.0,0.0,0.0,0.0,0.0,0.0,0.0,0.0,0.0,0.0,0.0,0.0,0.0,0.0,0.0,0.543,0.3748,0.087,0.2232,0.4374,0.2894,0.4865,0.7323,0.7319,0.7141,0.7039,0.7154,0.58,0.4981,0.6652,0.7014,0.7489,0.9013,0.9503,0.9709,0.978,1.0144,0.9856,0.8319,0.8165,0.6875,0.3302,0.291,0.2126,0.0179,0.0,0.0,0.0,0.0,0.0,0.0,0.0,0.0,0.0,0.0,0.0,0.0,0.0,0.0,0.0,0.0,0.0,0.0,0.0,0.0,0.0042,0.0505,0.0674,0.0716,0.1136,0.1304,0.1304,0.1304,0.1304,0.1304,0.1304,0.1598,0.2015,0.0,0.0,0.0,0.0,0.0,0.0,0.6074,0.5882,0.5889,0.61,0.612,0.6185,0.638,0.6392,0.6451,0.6643,0.8457,0.0,0.0,0.0,0.0,0.0,0.0,0.0,0.0,0.6706,0.6406,0.7245,0.7245,0.7712,0.8584,0.7579,0.765,0.8518,0.651,0.5365,0.0,0.0,0.0,0.0,0.0173,0.0,0.0,0.0,0.0,0.0,0.0,0.0,0.0,0.0,0.0,0.0,0.0,0.0,0.0,0.0839,0.1529,0.2829,0.122,0.322,0.5425,0.4185,0.3916,0.3917,0.388,0.2574,0.1874,0.3449,0.4687,0.5963,0.7586,0.8907,0.9851,1.0052,1.0253,1.0262,0.9909,0.8877,0.7252,0.4883,0.2413,0.0676,0.0045,0.0,0.0,0.0,0.0,0.0,0.0,0.0,0.0,0.0,0.0,0.0,0.0,0.0,0.0,0.0,0.0,0.0174,0.0478,0.0468,0.0631,0.0884,0.1052,0.1094,0.1136,0.1262,0.1472,0.1766,0.1766,0.1976,0.2272,0.2272,0.2356,0.2478,0.0,0.0,0.0,0.0,0.0,0.0,0.4717,0.455,0.4553,0.4679,0.4702,0.4748,0.4883,0.4896,0.4942,0.5092,0.6655,0.0,0.0,0.0,0.0,0.0,0.0,0.0,0.6164,0.4927,0.473,0.5603,0.5603,0.6071,0.694,0.6038,0.6105,0.6907,0.5098,0.3993,0.0,0.0,0.0,0.0,0.0,0.0,0.0,0.0,0.0,0.0,0.0,0.0,0.0,0.0,0.0,0.0,0.0,0.0,0.0,0.0,0.1171,0.1327,0.0292,0.1958,0.3716,0.2582,0.2352,0.2417,0.2331,0.109,0.0436,0.1965,0.3148,0.4533,0.6777,0.8098,0.8913,0.909,0.9732,0.9874,0.8851,0.8311,0.7145,0.4746,0.1799,0.0,0.0,0.0,0.0,0.0,0.0,0.0,0.0,0.0,0.0,0.0,0.0,0.0,0.0,0.0,0.009,0.0269,0.0264,0.0522,0.0956,0.0935,0.1052,0.1304,0.1472,0.1556,0.0,0.1766,0.2018,0.2272,0.2272,0.244,0.2692,0.2692,0.2692,0.269,0.0,0.0,0.0,0.0,0.0,0.0,0.0,0.4191,0.4214,0.436,0.438,0.4421,0.4548,0.4561,0.4611,0.4715,0.4462,0.0,0.0,0.0,0.0,0.0,0.0,0.0,0.4623,0.4197,0.4031,0.4132,0.4132,0.4199,0.43,0.4197,0.4194,0.4294,0.4093,0.3222,0.0,0.0,0.0,0.0,0.0,0.0,0.0,0.0,0.0,0.0,0.0,0.0,0.0,0.0,0.0,0.0,0.0,0.0,0.0,0.0,0.0,0.0,0.0,0.1047,0.2148,0.2148,0.213,0.2142,0.2154,0.103,0.0,0.1826,0.2222,0.3256,0.63,0.7124,0.7288,0.7168,0.8644,0.8802,0.5843,0.6647,0.6348,0.3076,0.1079,0.0,0.0,0.0,0.0,0.0,0.0,0.0,0.0,0.0,0.0,0.0045,0.0045,0.0045,0.0,0.0045,0.0269,0.0717,0.0746,0.1,0.1432,0.1359,0.1388,0.143,0.185,0.2061,0.2103,0.2524,0.2692,0.2692,0.2692,0.2692,0.2692,0.2692,0.2692,0.2692,0.0,0.0,0.0,0.0,0.0,0.0,0.0,0.0,0.0,0.0,0.1098,0.1119,0.1153,0.1137,0.1173,0.0,0.0,0.0,0.0,0.0,0.0,0.0,0.0,0.0,0.2721,0.1596,0.1537,0.2629,0.2629,0.3207,0.426,0.3139,0.3224,0.4194,0.1982,0.0807,0.0,0.0,0.0,0.0,0.0,0.0,0.0,0.0,0.0,0.0,0.0,0.0,0.0,0.0,0.0,0.0,0.0,0.0,0.0,0.0,0.0252,0.0,0.0,0.0,0.0547,0.0547,0.0548,0.0549,0.0,0.0256,0.011,0.0474,0.1542,0.2678,0.3459,0.5695,0.7057,0.5888,0.7134,0.7585,0.5743,0.4646,0.322,0.0971,0.027,0.0,0.0,0.0,0.0,0.0,0.0,0.0,0.0,0.0,0.018,0.0539,0.0534,0.0355,0.0,0.0358,0.0579,0.0701,0.1046,0.1472,0.1846,0.1862,0.2018,0.2398,0.2482,0.2524,0.2524,0.265,0.2692,0.2692,0.2692,0.2692,0.2692,0.2692,0.2692,0.2692,0.0,0.0,0.0,0.0,0.0,0.0,0.0,0.0,0.0,0.0,0.0,0.0,0.0,0.0,0.0,0.0,0.0,0.0,0.0,0.0,0.0,0.0,0.0,0.1136,0.1143,0.0407,0.0374,0.1122,0.1122,0.1559,0.2321,0.1503,0.1564,0.2262,0.0704,0.0,0.0,0.0,0.0,0.0,0.0,0.0,0.0,0.0,0.0,0.0,0.0,0.0,0.0,0.0,0.0935,0.1847,0.0,0.0,0.0,0.0,0.0,0.0,0.0,0.0,0.0,0.0,0.0,0.0,0.0,0.0,0.0,0.0,0.0733,0.1596,0.2357,0.3986,0.4945,0.4078,0.5368,0.5897,0.4341,0.2638,0.1168,0.0133,0.0,0.0,0.0,0.0,0.0,0.0,0.018,0.0314,0.0314,0.0539,0.0763,0.1032,0.1027,0.0888,0.0663,0.0885,0.1099,0.1348,0.1557,0.1892,0.2309,0.2326,0.244,0.2692,0.2692,0.2692,0.2692,0.2692,0.2692,0.2692,0.2692,0.2692,0.2692,0.2692,0.2692,0.2692,0.0,0.0,0.0,0.0,0.0,0.0,0.0,0.0,0.0,0.0,0.0,0.0,0.0,0.0,0.0,0.0,0.0,0.0,0.0,0.0,0.0,0.0,0.0,0.0,0.0,0.0,0.0,0.0,0.0,0.0,0.0,0.0,0.0,0.0,0.0,0.0,0.0,0.0,0.0,0.0,0.0,0.0,0.0,0.0,0.0,0.0,0.0,0.0,0.0,0.0,0.0919,0.1865,0.0454,0.0,0.0,0.0,0.0,0.0,0.0,0.0,0.0,0.0,0.0,0.0,0.0,0.0,0.0,0.0,0.0,0.0442,0.1854,0.2336,0.2412,0.2163,0.3323,0.3734,0.23,0.0876,0.0,0.0,0.0,0.0045,0.009,0.009,0.0135,0.0224,0.0584,0.0808,0.0808,0.1167,0.1436,0.1526,0.1522,0.1557,0.1631,0.1487,0.1652,0.2077,0.2103,0.2308,0.2688,0.2705,0.2692,0.2692,0.2692,0.2692,0.2692,0.2692,0.2692,0.2692,0.2692,0.2692,0.2692,0.2692,0.2692,0.2692,0.0,0.0,0.0,0.0,0.0,0.0,0.0,0.0,0.0,0.0,0.0,0.0,0.0,0.0,0.0,0.0,0.0,0.0,0.0,0.0,0.0,0.0,0.0,0.0,0.0,0.0,0.0,0.0,0.0,0.0,0.0,0.0,0.0,0.0,0.0,0.0,0.0,0.0,0.0,0.0,0.0,0.0,0.0,0.0,0.0,0.0,0.0,0.0,0.0,0.0,0.0944,0.1845,0.044,0.0,0.0,0.0,0.0,0.0,0.0,0.0,0.0,0.0,0.0,0.0,0.0,0.0,0.0,0.0,0.0,0.0074,0.0349,0.155,0.204,0.0621,0.0586,0.0668,0.0415,0.017,0.0,0.0,0.0,0.0178,0.0576,0.0581,0.0763,0.1167,0.1257,0.1302,0.1302,0.1347,0.1616,0.2066,0.2029,0.2184,0.2573,0.2196,0.2,0.203,0.243,0.2639,0.2699,0.2695,0.2692,0.2692,0.2692,0.2692,0.2692,0.2692,0.2692,0.2692,0.2692,0.2692,0.2692,0.2692,0.2692,0.2692,0.0,0.0,0.0,0.0,0.0,0.0,0.0,0.0,0.0,0.0,0.0,0.0,0.0,0.0,0.0,0.0,0.0,0.0,0.0,0.0,0.0,0.0,0.0,0.0,0.0,0.0,0.0,0.0,0.0,0.0,0.0,0.0,0.0,0.0,0.0,0.0,0.0,0.0,0.0,0.0,0.0,0.0,0.0,0.0,0.0,0.0,0.0,0.0,0.0,0.0,0.0438,0.0867,0.0203,0.0,0.0,0.0,0.0,0.0,0.0,0.0,0.0,0.0,0.0,0.0,0.0,0.0,0.0,0.0,0.0,0.0,0.0,0.0619,0.0903,0.0124,0.0,0.0,0.0,0.0,0.0,0.0,0.0217,0.0483,0.0662,0.0932,0.116,0.1391,0.1652,0.178,0.178,0.2004,0.2264,0.2516,0.2506,0.2574,0.2759,0.2512,0.2406,0.2398,0.2579,0.2706,0.2692,0.2692,0.2692,0.2692,0.2692,0.2692,0.2692,0.2692,0.2692,0.2692,0.2692,0.2692,0.2692,0.2692,0.2692,0.2692,0.0,0.0,0.0,0.0,0.0,0.0,0.0,0.0,0.0,0.0,0.0,0.0,0.0,0.0,0.0,0.0,0.0,0.0,0.0,0.0,0.0,0.0,0.0,0.0,0.0,0.0,0.0,0.0,0.0,0.0,0.0,0.0,0.0,0.0,0.0,0.0,0.0,0.0,0.0,0.0,0.0,0.0,0.0,0.0,0.0,0.0,0.0,0.0,0.0,0.0,0.0,0.0,0.0,0.0,0.0,0.0,0.0,0.0,0.0,0.0,0.0,0.0,0.0,0.0,0.0,0.0,0.0,0.0,0.0,0.0,0.0,0.0,0.0,0.0,0.0,0.0043,0.0169,0.0171,0.0215,0.0299,0.0603,0.0869,0.1008,0.1362,0.1592,0.1698,0.2082,0.2248,0.2253,0.2602,0.2807,0.2784,0.2799,0.2742,0.2695,0.2688,0.2716,0.2692,0.2692,0.2692,0.2692,0.2692,0.2692,0.2692,0.2692,0.2692,0.2692,0.2692,0.2692,0.2692,0.2692,0.2692,0.2692,0.2692,0.2692,0.2692,0.0,0.0,0.0,0.0,0.0,0.0,0.0,0.0,0.0,0.0,0.0,0.0,0.0,0.0,0.0,0.0,0.0,0.0,0.0,0.0,0.0,0.0,0.0,0.0,0.0,0.0,0.0,0.0,0.0,0.0,0.0,0.0,0.0,0.0,0.0,0.0,0.0,0.0,0.0,0.0,0.0,0.0,0.0,0.0,0.0,0.0,0.0,0.0,0.0,0.0,0.0,0.0,0.0,0.0,0.0,0.0,0.0,0.0,0.0,0.0,0.0,0.0,0.0,0.0,0.0,0.0,0.0,0.0,0.0,0.0,0.0,0.0,0.0,0.0,0.0,0.0169,0.059,0.0632,0.0801,0.1179,0.1233,0.1456,0.1972,0.2034,0.223,0.2652,0.2717,0.2755,0.2739,0.2801,0.2785,0.2784,0.2758,0.27,0.2695,0.271,0.2695,0.2692,0.2692,0.2692,0.2692,0.2692,0.2692,0.2692,0.2692,0.2692,0.2692,0.2692,0.2692,0.2692,0.2692,0.2692,0.2692,0.2692,0.2692,0.2692,0.0,0.0,0.0,0.0,0.0,0.0,0.0,0.0,0.0,0.0,0.0,0.0,0.0,0.0,0.0,0.0,0.0,0.0,0.0,0.0,0.0,0.0,0.0,0.0,0.0,0.0,0.0,0.0,0.0,0.0,0.0,0.0,0.0,0.0,0.0,0.0,0.0,0.0,0.0,0.0,0.0,0.0,0.0,0.0,0.0,0.0,0.0,0.0,0.0,0.0,0.0,0.0,0.0,0.0,0.0,0.0,0.0,0.0,0.0,0.0,0.0,0.0,0.0,0.0,0.0,0.0,0.0,0.0,0.0,0.0076,0.0393,0.0205,0.0084,0.0375,0.0419,0.0505,0.0674,0.0926,0.1136,0.1262,0.1562,0.1825,0.2094,0.2319,0.2551,0.2799,0.2772,0.2717,0.2728,0.2717,0.2746,0.2728,0.2733,0.2687,0.271,0.2698,0.2692,0.2692,0.2692,0.2692,0.2692,0.2692,0.2692,0.2692,0.2692,0.2692,0.2692,0.2692,0.2692,0.2692,0.2692,0.2692,0.2692,0.2692,0.2692,0.2692,0.0,0.0,0.0,0.0,0.0,0.0,0.0,0.0,0.0,0.0,0.0,0.0,0.0,0.0,0.0,0.0,0.0,0.0,0.0,0.0,0.0,0.0,0.0,0.0,0.0,0.0,0.0,0.0,0.0,0.0,0.0,0.0,0.0,0.0,0.0,0.0,0.0,0.0,0.0,0.0,0.0,0.0,0.0,0.0,0.0,0.0,0.0,0.0,0.0,0.0,0.0,0.0,0.0,0.0,0.0,0.0,0.0,0.0,0.0,0.0,0.0,0.0,0.0,0.0,0.0,0.0,0.0,0.0,0.0116,0.0234,0.0436,0.0327,0.0292,0.0663,0.0711,0.08,0.1052,0.1346,0.1556,0.1724,0.2018,0.2235,0.2296,0.2554,0.2736,0.2766,0.274,0.2685,0.2695,0.2687,0.2714,0.2692,0.2713,0.2713,0.2692,0.2692,0.2692,0.2692,0.2692,0.2692,0.2692,0.2692,0.2692,0.2692,0.2692,0.2692,0.2692,0.2692,0.2692,0.2692,0.2692,0.2692,0.2692,0.2692,0.2692,0.2692,0.0,0.0,0.0,0.0,0.0,0.0,0.0,0.0,0.0,0.0,0.0,0.0,0.0,0.0,0.0,0.0,0.0,0.0,0.0,0.0,0.0,0.0,0.0,0.0,0.0,0.0,0.0,0.0,0.0,0.0,0.0,0.0,0.0,0.0,0.0,0.0,0.0,0.0,0.0,0.0,0.0,0.0,0.0,0.0,0.0,0.0,0.0,0.0,0.0,0.0,0.0,0.0,0.0,0.0,0.0,0.0,0.0,0.0,0.0,0.0,0.0,0.0,0.0,0.0,0.0,0.0,0.0,0.0,0.032,0.0488,0.0081,0.0329,0.0621,0.0704,0.0711,0.101,0.1893,0.2018,0.2188,0.265,0.2692,0.2692,0.2692,0.2692,0.2705,0.2692,0.271,0.2706,0.2693,0.2709,0.2692,0.2692,0.2692,0.2692,0.2692,0.2692,0.2692,0.2692,0.2692,0.2692,0.2692,0.2692,0.2692,0.2692,0.2692,0.2692,0.2692,0.2692,0.2692,0.2692,0.2692,0.2692,0.2692,0.2692,0.2692,0.2692,0.0,0.0,0.0,0.0,0.0,0.0,0.0,0.0,0.0,0.0,0.0,0.0,0.0,0.0,0.0,0.0,0.0,0.0,0.0,0.0,0.0,0.0,0.0,0.0,0.0,0.0,0.0,0.0,0.0,0.0,0.0,0.0,0.0,0.0,0.0,0.0,0.0,0.0,0.0,0.0,0.0,0.0,0.0,0.0,0.0,0.0,0.0,0.0,0.0,0.0,0.0,0.0,0.0,0.0,0.0,0.0,0.0,0.0,0.0,0.0,0.0,0.0,0.0,0.0,0.0,0.0,0.0,0.0,0.0082,0.025,0.0454,0.0333,0.0377,0.1005,0.1133,0.1346,0.1934,0.2272,0.2524,0.2692,0.2692,0.2692,0.2692,0.2692,0.2697,0.2705,0.2698,0.2697,0.2705,0.2698,0.2692,0.2692,0.2692,0.2692,0.2692,0.2692,0.2692,0.2692,0.2692,0.2692,0.2692,0.2692,0.2692,0.2692,0.2692,0.2692,0.2692,0.2692,0.2692,0.2692,0.2692,0.2692,0.2692,0.2692,0.2692,0.2692,0.0,0.0,0.0,0.0,0.0,0.0,0.0,0.0,0.0,0.0,0.0,0.0,0.0,0.0,0.0,0.0,0.0,0.0,0.0,0.0,0.0,0.0,0.0,0.0,0.0,0.0,0.0,0.0,0.0,0.0,0.0,0.0,0.0,0.0,0.0,0.0,0.0,0.0,0.0,0.0,0.0,0.0,0.0,0.0,0.0,0.0,0.0,0.0,0.0,0.0,0.0,0.0,0.0,0.0,0.0,0.0,0.0,0.0,0.0,0.0,0.0034,0.0205,0.0105,0.0,0.0,0.0,0.0,0.0,0.0123,0.0332,0.0663,0.0583,0.0753,0.1462,0.1593,0.1724,0.223,0.2524,0.2692,0.2692,0.2692,0.2692,0.2692,0.2692,0.2692,0.2692,0.2692,0.2692,0.2692,0.2692,0.2692,0.2692,0.2692,0.2692,0.2692,0.2692,0.2692,0.2692,0.2692,0.2692,0.2692,0.2692,0.2692,0.2692,0.2692,0.2692,0.2692,0.2692,0.2692,0.2692,0.2692,0.2692,0.2692,0.2692,0.2692,0.2692,0.0,0.0,-0.0057,-0.0057,0.0,0.0,0.0,0.0,0.0,0.0,0.0,0.0,0.0,0.0,0.0,0.0,0.0,0.0,0.0,0.0,0.0,0.0,0.0,0.0,0.0,0.0,0.0,0.0,0.0,0.0,0.0,0.0,0.0,0.0,0.0,0.0,0.0,0.0,0.0,0.0,0.0,0.0,0.0,0.0,0.0,0.0,0.0,0.0,0.0,0.0,0.0,0.0,0.0,0.0,0.0,0.0,0.0,0.0,0.0,0.0034,0.0138,0.0455,0.0287,0.0,0.0,0.0039,0.004,0.0081,0.0326,0.0573,0.0745,0.1036,0.141,0.1905,0.2005,0.2146,0.265,0.2692,0.2692,0.2692,0.2692,0.2692,0.2692,0.2692,0.2692,0.2692,0.2692,0.2692,0.2692,0.2692,0.2692,0.2692,0.2692,0.2692,0.2692,0.2692,0.2692,0.2692,0.2692,0.2692,0.2692,0.2692,0.2692,0.2692,0.2692,0.2692,0.2692,0.2692,0.2692,0.2692,0.2692,0.2692,0.2692,0.2692,0.2692,0.2692,0.0,0.0,-0.0402,-0.038,0.0,0.0,0.0,0.0,0.0,0.0,0.0,0.0,0.0,0.0,0.0,0.0,0.0,0.0,0.0,0.0,0.0,0.0,0.0,0.0,0.0,0.0,0.0,0.0,0.0,0.0,0.0,0.0,0.0,0.0,0.0,0.0,0.0,0.0,0.0,0.0,0.0,0.0,0.0,0.0,0.0,0.0,0.0,0.0,0.0,0.0,0.0,0.0,0.0,0.0,0.0,0.0,0.0,0.0,0.0,0.0235,0.0404,0.0176,0.0074,0.0,0.0,0.0235,0.0475,0.0527,0.0328,0.0331,0.1046,0.0964,0.1091,0.1886,0.2015,0.2146,0.265,0.2692,0.2692,0.2692,0.2692,0.2692,0.2692,0.2692,0.2692,0.2692,0.2692,0.2692,0.2692,0.2692,0.2692,0.2692,0.2692,0.2692,0.2692,0.2692,0.2692,0.2692,0.2692,0.2692,0.2692,0.2692,0.2692,0.2692,0.2692,0.2692,0.2692,0.2692,0.2692,0.2692,0.2692,0.2692,0.2692,0.2692,0.2692,0.2692,0.0,0.0,0.0,0.0,0.0,0.0,0.0,0.0,0.0,0.0,0.0,0.0,0.0,0.0,0.0,0.0,0.0,0.0,0.0,0.0,0.0,0.0,0.0,0.0,0.0,0.0,0.0,0.0,0.0,0.0,0.0,0.0,0.0,0.0,0.0,0.0,0.0,0.0,0.0,0.0,0.0,0.0,0.0,0.0,0.0,0.0,0.0,0.0,0.0,0.0,0.0,0.0,0.0,0.0,0.0,0.0,0.0136,0.0272,0.0238,0.0544,0.0825,0.0612,0.056,0.0576,0.0626,0.0785,0.0987,0.1246,0.0937,0.0824,0.1499,0.1467,0.1557,0.223,0.2356,0.244,0.265,0.2692,0.2692,0.2692,0.2692,0.2692,0.2692,0.2692,0.2692,0.2692,0.2692,0.2692,0.2692,0.2692,0.2692,0.2692,0.2692,0.2692,0.2692,0.2692,0.2692,0.2692,0.2692,0.2692,0.2692,0.2692,0.2692,0.2692,0.2692,0.2692,0.2692,0.2692,0.2692,0.2692,0.2692,0.2692,0.2692,0.2692,0.2692,0.2692,0.0,0.0,0.0,0.0,0.0,0.0,0.0,0.0,0.0,0.0,0.0,0.0,0.0,0.0,0.0,0.0,0.0,0.0,0.0,0.0,0.0,0.0,0.0,0.0,0.0,0.0,0.0,0.0,0.0,0.0,0.0,0.0,0.0,0.0,0.0,0.0,0.0,0.0,0.0,0.0,0.0,0.0,0.0,0.0,0.0,0.0,0.0,0.0,0.0,0.0,0.0,0.0,0.0,0.0,0.0168,0.0102,0.0376,0.0684,0.0614,0.0866,0.1208,0.1292,0.1244,0.1226,0.129,0.1336,0.1497,0.1831,0.1572,0.147,0.2022,0.2045,0.2146,0.2608,0.2692,0.2692,0.2692,0.2692,0.2692,0.2692,0.2692,0.2692,0.2692,0.2692,0.2692,0.2692,0.2692,0.2692,0.2692,0.2692,0.2692,0.2692,0.2692,0.2692,0.2692,0.2692,0.2692,0.2692,0.2692,0.2692,0.2692,0.2692,0.2692,0.2692,0.2692,0.2692,0.2692,0.2692,0.2692,0.2692,0.2692,0.2692,0.2692,0.2692,0.2692,0.2692,0.0,0.0,0.0,0.0,0.0,0.0,0.0,0.0,0.0,0.0,0.0,0.0,0.0,0.0,0.0,0.0,0.0,0.0,0.0,0.0,0.0,0.0,0.0,0.0,0.0,0.0,0.0,0.0,0.0,0.0,0.0,0.0,0.0,0.0,0.0,0.0,0.0,0.0,0.0,0.0,0.0,0.0,0.0,0.0,0.0,0.0,0.0,0.0,0.0,0.0,0.0194,0.0,0.0,0.0,0.0793,0.053,0.0702,0.101,0.0964,0.1032,0.1225,0.1609,0.1499,0.1291,0.1295,0.1571,0.1847,0.189,0.1563,0.1552,0.2353,0.2253,0.2146,0.2608,0.2692,0.2692,0.2692,0.2692,0.2692,0.2692,0.2692,0.2692,0.2692,0.2692,0.2692,0.2692,0.2692,0.2692,0.2692,0.2692,0.2692,0.2692,0.2692,0.2692,0.2692,0.2692,0.2692,0.2692,0.2692,0.2692,0.2692,0.2692,0.2692,0.2692,0.2692,0.2692,0.2692,0.2692,0.2692,0.2692,0.2692,0.2692,0.2692,0.2692,0.2692,0.2692,0.0,0.0,0.0,0.0,0.0,0.0,0.0,0.0,0.0,0.0,0.0,0.0,0.0,0.0,0.0,0.0,0.0,0.0,0.0,0.0,0.0,0.0,0.0,0.0,0.0,0.0,0.0,0.0,0.0,0.0,0.0,0.0,0.0,0.0,0.0,0.0,0.0,0.0,0.0,0.0,0.0,0.0,0.0,0.0,0.0,0.0,0.0,0.0,0.0031,0.0222,0.0383,0.0511,0.0547,0.0,0.0,0.0,0.1065,0.1419,0.165,0.1556,0.1511,0.2015,0.1861,0.1647,0.1915,0.2121,0.2239,0.2239,0.2111,0.2143,0.2534,0.2439,0.2422,0.2648,0.2692,0.2692,0.2692,0.2692,0.2692,0.2692,0.2692,0.2692,0.2692,0.2692,0.2692,0.2692,0.2692,0.2692,0.2692,0.2692,0.2692,0.2692,0.2692,0.2692,0.2692,0.2692,0.2692,0.2692,0.2692,0.2692,0.2692,0.2692,0.2692,0.2692,0.2692,0.2692,0.2692,0.2692,0.2692,0.2692,0.2692,0.2692,0.2692,0.2692,0.2692,0.2692,0.0,0.0,0.0,0.0,0.0,0.0,0.0,0.0,0.0,0.0,0.0,0.0,0.0,0.0,0.0,0.0,0.0,0.0,0.0,0.0,0.0,0.0,0.0,0.0,0.0,0.0,0.0,0.0,0.0,0.0,0.0,0.0,0.0,0.0,0.0,0.0,0.0,0.0,0.0,0.0,0.0,0.0,0.0,0.0,0.0,0.0,0.0092,0.0123,0.0187,0.0501,0.0691,0.0786,0.0954,0.1118,0.0,0.0,0.0,0.1815,0.2173,0.2015,0.1867,0.2252,0.2171,0.2031,0.2398,0.2497,0.2503,0.2503,0.2527,0.2597,0.2586,0.2581,0.2613,0.2677,0.2687,0.2692,0.2692,0.2692,0.2692,0.2692,0.2692,0.2692,0.2692,0.2692,0.2692,0.2692,0.2692,0.2692,0.2692,0.2692,0.2692,0.2692,0.2692,0.2692,0.2692,0.2692,0.2692,0.2692,0.2692,0.2692,0.2692,0.2692,0.2692,0.2692,0.2692,0.2692,0.2692,0.2692,0.2692,0.2692,0.2692,0.2692,0.2692,0.2692,0.2692,0.2692,0.0,0.0,0.0,0.0,0.0,0.0,0.0,0.0,0.0,0.0,0.0,0.0,0.0,0.0,0.0,0.0,0.0,0.0,0.0,0.0,0.0,0.0,0.0,0.0,0.0,0.0,0.0,0.0,0.0,0.0,0.0,0.0,0.0,0.0,0.0,0.0,0.0,0.0,0.0,0.0,0.0,0.0,0.0,0.0,0.0,0.0032,0.0348,0.0473,0.0535,0.087,0.1175,0.1391,0.1083,0.1437,0.1895,0.0,0.0,0.0,0.218,0.2187,0.2186,0.2285,0.2342,0.2385,0.2389,0.245,0.251,0.251,0.2495,0.2526,0.2596,0.2608,0.2606,0.2607,0.2673,0.2692,0.2692,0.2692,0.2692,0.2692,0.2692,0.2692,0.2692,0.2692,0.2692,0.2692,0.2692,0.2692,0.2692,0.2692,0.2692,0.2692,0.2692,0.2692,0.2692,0.2692,0.2692,0.2692,0.2692,0.2692,0.2692,0.2692,0.2692,0.2692,0.2692,0.2692,0.2692,0.2692,0.2692,0.2692,0.2692,0.2692,0.2692,0.2692,0.2692,0.2692,0.0,0.0,0.0,0.0,0.0,0.0,0.0,0.0,0.0,0.0,0.0,0.0,0.0,0.0,0.0,0.0,0.0,0.0,0.0,0.0,0.0,0.0,0.0,0.0,0.0,0.0,0.0,0.0,0.0,0.0,0.0,0.0,0.0,0.0,0.0,0.0,0.0,0.0,0.0,0.0,0.0,0.0,0.0,0.0,0.0,0.0,0.0124,0.0309,0.056,0.0897,0.1235,0.1513,0.1606,0.1798,0.1963,0.1856,0.1944,0.2111,0.2185,0.2165,0.2153,0.2268,0.2335,0.2353,0.2373,0.2432,0.2446,0.2503,0.2516,0.2495,0.2525,0.2578,0.2583,0.2602,0.2672,0.2692,0.2692,0.2692,0.2692,0.2692,0.2692,0.2692,0.2692,0.2692,0.2692,0.2692,0.2692,0.2692,0.2692,0.2692,0.2692,0.2692,0.2692,0.2692,0.2692,0.2692,0.2692,0.2692,0.2692,0.2692,0.2692,0.2692,0.2692,0.2692,0.2692,0.2692,0.2692,0.2692,0.2692,0.2692,0.2692,0.2692,0.2692,0.2692,0.2692,0.2692,0.0,0.0,0.0,-0.1068,0.0,-0.0526,-0.0061,0.0,0.0,0.0,0.0,0.0,0.0,0.0,0.0,0.0,0.0,0.0,0.0,0.0,0.0,0.0,0.0,0.0,0.0,0.0,0.0,0.0,0.0,0.0,0.0,0.0,0.0,0.0,0.0,0.0,0.0,0.0,0.0,0.0,0.0,0.0,0.0,0.0,0.0,0.0,0.0126,0.0312,0.0564,0.1028,0.1306,0.1555,0.1897,0.2015,0.2013,0.2009,0.2039,0.2107,0.2159,0.2139,0.2166,0.2241,0.2297,0.2308,0.234,0.2401,0.2417,0.2447,0.25,0.2517,0.2508,0.2562,0.2608,0.2587,0.2657,0.2682,0.2691,0.2692,0.2692,0.2692,0.2692,0.2692,0.2692,0.2692,0.2692,0.2692,0.2692,0.2692,0.2692,0.2692,0.2692,0.2692,0.2692,0.2692,0.2692,0.2692,0.2692,0.2692,0.2692,0.2692,0.2692,0.2692,0.2692,0.2692,0.2692,0.2692,0.2692,0.2692,0.2692,0.2692,0.2692,0.2692,0.2692,0.2692,0.2692,0.2692,-0.2104,-0.2076,-0.187,-0.1131,-0.0989,-0.0755,-0.0093,0.0,0.0,0.0,0.0,0.0,0.0,0.0,0.0,0.0,0.0,0.0,0.0,0.0,0.0,0.0,0.0,0.0,0.0,0.0,0.0,0.0,0.0,0.0,0.0,0.0,0.0,0.0,0.0,0.0,0.0,0.0,0.0,0.0,0.0,0.0,0.0,0.0,0.0,0.0033,0.0362,0.049,0.0612,0.1237,0.1483,0.1546,0.1893,0.2,0.2013,0.2009,0.2038,0.2102,0.0,0.0,0.0,0.2201,0.2232,0.2297,0.2288,0.2354,0.2384,0.2416,0.2446,0.2514,0.2506,0.256,0.26,0.26,0.2586,0.2617,0.2687,0.2691,0.2692,0.2692,0.2692,0.2692,0.2692,0.2692,0.2692,0.2692,0.2692,0.2692,0.2692,0.2692,0.2692,0.2692,0.2692,0.2692,0.2692,0.2692,0.2692,0.2692,0.2692,0.2692,0.2692,0.2692,0.2692,0.2692,0.2692,0.2692,0.2692,0.2692,0.2692,0.2692,0.2692,0.2692,0.2692,0.2692,0.2692,0.2692,-0.2108,-0.1911,-0.1575,-0.1099,-0.0804,-0.0481,-0.0064,0.0,0.0,0.0,0.0,0.0,0.0,0.0,0.0,0.0,0.0,0.0,0.0,0.0,0.0,0.0,0.0,0.0,0.0,0.0,0.0,0.0,0.0,0.0,0.0,0.0,0.0,0.0,0.0,0.0,0.0,0.0,0.0,0.0,0.0,0.0,0.0,0.0,0.0,0.0,0.0098,0.0293,0.0523,0.0709,0.109,0.1567,0.1899,0.2014,0.2004,0.1992,0.2008,0.2038,0.21,0.0,0.0,0.0,0.0,0.0,0.2296,0.2309,0.233,0.238,0.2398,0.2413,0.2443,0.2515,0.2611,0.2611,0.2632,0.2675,0.262,0.2679,0.2692,0.2692,0.2692,0.2692,0.2692,0.2692,0.2692,0.2692,0.2692,0.2692,0.2692,0.2692,0.2692,0.2692,0.2692,0.2692,0.2692,0.2692,0.2692,0.2692,0.2692,0.2692,0.2692,0.2692,0.2692,0.2692,0.2692,0.2692,0.2692,0.2692,0.2692,0.2692,0.2692,0.2692,0.2692,0.2692,0.2692,0.2692,-0.2125,-0.1862,-0.1492,-0.1118,-0.0748,-0.0388,-0.0065,0.0,0.0,0.0,0.0,0.0,0.0,0.0,0.0,0.0,0.0,0.0,0.0,0.0,0.0,0.0,0.0,0.0,0.0,0.0,0.0,0.0,0.0,0.0,0.0,0.0,0.0,0.0,0.0,0.0,0.0,0.0,0.0,0.0,0.0,0.0,0.0,0.0,0.0,0.0,0.0,0.023,0.0494,0.049,0.0977,0.159,0.195,0.2037,0.2031,0.2003,0.2015,0.2041,0.2091,0.2086,0.2127,0.2166,0.0,0.0,0.2315,0.2318,0.2324,0.2384,0.2397,0.2406,0.2436,0.2546,0.26,0.26,0.2624,0.2672,0.2625,0.2682,0.2697,0.271,0.2712,0.2712,0.2712,0.2699,0.2692,0.2692,0.2692,0.2692,0.2692,0.2692,0.2692,0.2692,0.2692,0.2692,0.2692,0.2692,0.2692,0.2692,0.2692,0.2692,0.2692,0.2692,0.2692,0.2692,0.2692,0.2692,0.2692,0.2692,0.2692,0.2692,0.2692,0.2692,0.2692,0.2692,0.2692,0.2692,0.0,-0.175,-0.138,-0.1077,-0.0693,-0.0359,-0.0033,0.0,0.0,0.0,0.0,0.0,0.0,0.0,0.0,0.0,0.0,0.0,0.0,0.0,0.0,0.0,0.0,0.0,0.0,0.0,0.0,0.0,0.0,0.0,0.0,0.0,0.0,0.0,0.0,0.0,0.0,0.0,0.0,0.0,0.0,0.0,0.0,0.0,0.0,0.0,0.0,0.0201,0.0465,0.0497,0.0961,0.1588,0.195,0.2074,0.2105,0.2034,0.2045,0.21,0.21,0.2091,0.2135,0.2185,0.2213,0.0,0.2352,0.235,0.2311,0.2365,0.2375,0.2421,0.2448,0.2549,0.2593,0.259,0.2601,0.261,0.2679,0.2688,0.2702,0.2687,0.2691,0.2691,0.2695,0.271,0.2692,0.2692,0.2692,0.2692,0.2692,0.2692,0.2692,0.2692,0.2692,0.2692,0.2692,0.2692,0.2692,0.2692,0.2692,0.2692,0.2692,0.2692,0.2692,0.2692,0.2692,0.2692,0.2692,0.2692,0.2692,0.2692,0.2692,0.2692,0.2692,0.2692,0.2692,0.2692,-0.1379,-0.0976,-0.0707,-0.064,-0.0335,-0.0067,0.0,0.0,0.0,0.0,0.0,0.0,0.0,0.0,0.0,0.0,0.0,0.0,0.0,0.0,0.0,0.0,0.0,0.0,0.0,0.0,0.0,0.0,0.0,0.0,0.0,0.0,0.0,0.0,0.0,0.0,0.0,0.0,0.0,0.0,0.0,0.0,0.0,0.0,0.0,0.0,0.0,0.0035,0.014,0.0412,0.0824,0.124,0.1594,0.1934,0.2158,0.211,0.2076,0.2101,0.2101,0.2123,0.219,0.2199,0.2228,0.0,0.2309,0.232,0.23,0.2311,0.2314,0.2315,0.2322,0.2448,0.2515,0.253,0.2556,0.2612,0.2619,0.2661,0.2695,0.2701,0.2701,0.2712,0.2692,0.271,0.2692,0.2692,0.2692,0.2692,0.2692,0.2692,0.2692,0.2692,0.2692,0.2692,0.2692,0.2692,0.2692,0.2692,0.2692,0.2692,0.2692,0.2692,0.2692,0.2692,0.2692,0.2692,0.2692,0.2692,0.2692,0.2692,0.2692,0.2692,0.2692,0.2692,0.2692,0.2692,-0.1144,-0.0774,-0.0506,-0.0509,-0.0237,0.0,0.0,0.0,0.0,0.0,0.0,0.0,0.0,0.0,0.0,0.0,0.0,0.0,0.0,0.0,0.0,0.0,0.0,0.0,0.0,0.0,0.0,0.0,0.0,0.0,0.0,0.0,0.0,0.0,0.0,0.0,0.0,0.0,0.0,0.0,0.0,0.0,0.0,0.0,0.0,0.0,0.0,0.0,0.0071,0.0618,0.0927,0.1176,0.1525,0.1912,0.2177,0.215,0.2143,0.2148,0.2117,0.212,0.2147,0.2207,0.2221,0.0,0.0,0.2334,0.23,0.2352,0.2356,0.2356,0.2356,0.2431,0.2496,0.2552,0.2592,0.2581,0.2581,0.2645,0.2698,0.2713,0.2716,0.2721,0.2693,0.271,0.2692,0.2692,0.2692,0.2692,0.2692,0.2692,0.2692,0.2692,0.2692,0.2692,0.2692,0.2692,0.2692,0.2692,0.2692,0.2692,0.2692,0.2692,0.2692,0.2692,0.2692,0.2692,0.2692,0.2692,0.2692,0.2692,0.2692,0.2692,0.2692,0.2692,0.2692,0.2692,-0.0879,-0.0644,-0.0408,-0.041,-0.017,0.0,0.0,0.0,0.0,0.0,0.0,0.0,0.0,0.0,0.0,0.0,0.0,0.0,0.0,0.0,0.0,0.0,0.0,0.0,0.0,0.0,0.0,0.0,0.0,0.0,0.0,0.0,0.0,0.0,0.0,0.0,0.0,0.0,0.0,0.0,0.0,0.0,0.0,0.0,0.0,0.0,0.0,0.0,0.0106,0.0791,0.1032,0.1181,0.1585,0.1881,0.2113,0.2178,0.2143,0.2109,0.2118,0.2144,0.2169,0.2202,0.2232,0.226,0.0,0.0,0.0,0.2365,0.2369,0.2369,0.2369,0.2452,0.2509,0.2564,0.2584,0.2593,0.2599,0.2667,0.2682,0.2701,0.2671,0.268,0.2685,0.2702,0.2684,0.2684,0.2684,0.2686,0.2692,0.2692,0.2692,0.2692,0.2692,0.2692,0.2692,0.2692,0.2692,0.2692,0.2692,0.2692,0.2692,0.2692,0.2692,0.2692,0.2692,0.2692,0.2692,0.2692,0.2692,0.2692,0.2692,0.2692,0.2692,0.2692,0.2692,0.2692,-0.0137,-0.0104,-0.0069,-0.0068,-0.0034,0.0,0.0,0.0,0.0,0.0,0.0,0.0,0.0,0.0,0.0,0.0,0.0,0.0,0.0,0.0,0.0,0.0,0.0,0.0,0.0,0.0,0.0,0.0,0.0,0.0,0.0,0.0,0.0,0.0,0.0,0.0,0.0,0.0,0.0,0.0,0.0,0.0,0.0,0.0,0.0,0.0,0.0,0.0,0.0074,0.0502,0.0861,0.1153,0.1564,0.1728,0.1802,0.2119,0.1974,0.1836,0.2105,0.2232,0.2268,0.2289,0.2345,0.2354,0.2311,0.0,0.2367,0.2307,0.0,0.2301,0.2301,0.0,0.0,0.2433,0.2484,0.2529,0.2596,0.259,0.2604,0.2622,0.2626,0.2626,0.2695,0.2629,0.261,0.261,0.261,0.2622,0.2691,0.2692,0.2692,0.2692,0.2692,0.2692,0.2692,0.2692,0.2692,0.2692,0.2692,0.2692,0.2692,0.2692,0.2692,0.2692,0.2692,0.2692,0.2692,0.2692,0.2692,0.2692,0.2692,0.2692,0.2692,0.2692,0.2692,0.2692,0.0,0.0,0.0,0.0,0.0,0.0,0.0,0.0,0.0,0.0,0.0,0.0,0.0,0.0,0.0,0.0,0.0,0.0,0.0,0.0,0.0,0.0,0.0,0.0,0.0,0.0,0.0,0.0,0.0,0.0,0.0,0.0,0.0,0.0,0.0,0.0,0.0,0.0,0.0,0.0,0.0,0.0,0.0,0.0,0.0,0.0,0.0,0.0,0.0037,0.0179,0.0642,0.1079,0.1061,0.1531,0.2052,0.1997,0.2015,0.2065,0.2156,0.2062,0.2017,0.2257,0.2149,0.2032,0.2265,0.2305,0.2348,0.2299,0.0,0.0,0.0,0.0,0.0,0.0,0.2472,0.2499,0.2529,0.2544,0.2566,0.2605,0.2616,0.2639,0.2688,0.2624,0.262,0.2654,0.2625,0.2618,0.2691,0.2692,0.2692,0.2692,0.2692,0.2692,0.2692,0.2692,0.2692,0.2692,0.2692,0.2692,0.2692,0.2692,0.2692,0.2692,0.2692,0.2692,0.2692,0.2692,0.2692,0.2692,0.2692,0.2692,0.2692,0.2692,0.2692,0.2692,0.0,0.0,0.0,0.0,0.0,0.0,0.0,0.0,0.0,0.0,0.0,0.0,0.0,0.0,0.0,0.0,0.0,0.0,0.0,0.0,0.0,0.0,0.0,0.0,0.0,0.0,0.0,0.0,0.0,0.0,0.0,0.0,0.0,0.0,0.0,0.0,0.0,0.0,0.0,0.0,0.0,0.0,0.0,0.0,0.0,0.0,0.0,0.0,0.0,0.0143,0.0501,0.0903,0.0789,0.1223,0.1773,0.1631,0.1713,0.1859,0.2025,0.1892,0.1805,0.2187,0.21,0.1976,0.2225,0.231,0.2318,0.2311,0.2358,0.0,0.0,0.0,0.2452,0.2451,0.0,0.2487,0.25,0.2508,0.2536,0.2551,0.26,0.2622,0.2675,0.2618,0.2621,0.2656,0.2618,0.2606,0.2679,0.268,0.2684,0.2692,0.2692,0.2692,0.2692,0.2692,0.2692,0.2692,0.2692,0.2692,0.2692,0.2692,0.2692,0.2692,0.2692,0.2692,0.2692,0.2692,0.2692,0.2692,0.2692,0.2692,0.2692,0.2692,0.2692,0.2692,0.0,0.0,0.0,0.0,0.0,0.0,0.0,0.0,0.0,0.0,0.0,0.0,0.0,0.0,0.0,0.0,0.0,0.0,0.0,0.0,0.0,0.0,0.0,0.0,0.0,0.0,0.0,0.0,0.0,0.0,0.0,0.0,0.0,0.0,0.0,0.0,0.0,0.0,0.0,0.0,0.0,0.0,0.0,0.0,0.0,0.0,0.0,0.0,0.0074,0.0439,0.0551,0.0592,0.0974,0.0837,0.0628,0.101,0.0911,0.0813,0.1513,0.1749,0.1882,0.2233,0.2334,0.2369,0.2303,0.2342,0.2413,0.2383,0.2462,0.2455,0.2427,0.2446,0.2457,0.2429,0.2474,0.0,0.0,0.2496,0.2504,0.2516,0.2549,0.2613,0.2603,0.2606,0.2594,0.2608,0.2604,0.2616,0.2606,0.2607,0.2621,0.2691,0.2692,0.2692,0.2692,0.2692,0.2692,0.2692,0.2692,0.2692,0.2692,0.2692,0.2692,0.2692,0.2692,0.2692,0.2692,0.2692,0.2692,0.2692,0.2692,0.2692,0.2692,0.2692,0.2692,0.2692,0.0,0.0,0.0,0.0,0.0,0.0,0.0,0.0,0.0,0.0,0.0,0.0,0.0,0.0,0.0,0.0,0.0,0.0,0.0,0.0,0.0,0.0,0.0,0.0,0.0,0.0,0.0,0.0,0.0,0.0,0.0,0.0,0.0,0.0,0.0,0.0,0.0,0.0,0.0,0.0,0.0,0.0,0.0,0.0,0.0,0.0,0.0,0.0,0.0037,0.0148,0.0334,0.0484,0.0409,0.0628,0.0882,0.0808,0.0887,0.1039,0.1287,0.1203,0.115,0.1795,0.1768,0.1742,0.2262,0.2394,0.2371,0.2358,0.2413,0.2492,0.2403,0.2473,0.2503,0.2455,0.2488,0.2504,0.0,0.2461,0.2465,0.2495,0.2578,0.2587,0.2617,0.2594,0.261,0.2661,0.2643,0.2595,0.2605,0.2625,0.2672,0.2621,0.2682,0.2692,0.2692,0.2692,0.2692,0.2692,0.2692,0.2692,0.2692,0.2692,0.2692,0.2692,0.2692,0.2692,0.2692,0.2692,0.2692,0.2692,0.2692,0.2692,0.2692,0.2692,0.2692,0.2692,0.0,0.0,0.0,0.0,0.0,0.0,0.0,0.0,0.0,0.0,0.0,0.0,0.0,0.0,0.0,0.0,0.0,0.0,0.0,0.0,0.0,0.0,0.0,0.0,0.0,0.0,0.0,0.0,0.0,0.0,0.0,0.0,0.0,0.0,0.0,0.0,0.0,0.0,0.0,0.0,0.0,0.0,0.0,0.0,0.0,0.0,0.0,0.0,0.0,0.0,0.015,0.0302,0.0076,0.0338,0.0671,0.0449,0.0561,0.0785,0.093,0.0797,0.0772,0.1398,0.1367,0.1372,0.2054,0.2184,0.216,0.2115,0.2315,0.2398,0.2065,0.2281,0.2458,0.2292,0.2392,0.2517,0.0,0.2453,0.2454,0.2493,0.2519,0.2563,0.2616,0.2585,0.2602,0.2673,0.2606,0.2594,0.2605,0.2624,0.2672,0.2622,0.2683,0.2692,0.2692,0.2692,0.2692,0.2692,0.2692,0.2692,0.2692,0.2692,0.2692,0.2692,0.2692,0.2692,0.2692,0.2692,0.2692,0.2692,0.2692,0.2692,0.2692,0.2692,0.2692,0.2692,0.0,0.0,0.0,0.0,0.0,0.0,0.0,0.0,0.0,0.0,0.0,0.0,0.0,0.0,0.0,0.0,0.0,0.0,0.0,0.0,0.0,0.0,0.0,0.0,0.0,0.0,0.0,0.0,0.0,0.0,0.0,0.0,0.0,0.0,0.0,0.0,0.0,0.0,0.0,0.0,0.0,0.0,0.0,0.0,0.0,0.0,0.0,0.0,0.0,0.0,0.0,0.0,0.0,0.0,0.0,0.0,0.0,0.0076,0.0374,0.0526,0.0643,0.1009,0.1128,0.1285,0.168,0.1783,0.1769,0.1784,0.2126,0.221,0.1474,0.1999,0.2391,0.1929,0.226,0.2574,0.2512,0.2505,0.2506,0.2506,0.2492,0.2504,0.2591,0.2616,0.2612,0.2601,0.2616,0.2613,0.2603,0.2607,0.262,0.269,0.2692,0.2694,0.2692,0.2692,0.2692,0.2692,0.2692,0.2692,0.2692,0.2692,0.2692,0.2692,0.2692,0.2692,0.2692,0.2692,0.2692,0.2692,0.2692,0.2692,0.2692,0.2692,0.2692,0.2692,0.0,0.0,0.0,0.0,0.0,0.0,0.0,0.0,0.0,0.0,0.0,0.0,0.0,0.0,0.0,0.0,0.0,0.0,0.0,0.0,0.0,0.0,0.0,0.0,0.0,0.0,0.0,0.0,0.0,0.0,0.0,0.0,0.0,0.0,0.0,0.0,0.0,0.0,0.0,0.0,0.0,0.0,0.0,0.0,0.0,0.0,0.0,0.0,0.0,0.0,0.0,0.0,0.0,0.0,0.0,0.0,0.0,0.0,0.0115,0.0155,0.0236,0.0621,0.0738,0.0853,0.1264,0.1392,0.1399,0.1369,0.1489,0.1602,0.1682,0.191,0.2133,0.2287,0.2423,0.251,0.2448,0.2421,0.2435,0.2435,0.2442,0.2434,0.2503,0.2562,0.2582,0.2611,0.2586,0.2593,0.2603,0.2626,0.2673,0.2618,0.266,0.2716,0.2692,0.2692,0.2692,0.2692,0.2692,0.2692,0.2692,0.2692,0.2692,0.2692,0.2692,0.2692,0.2692,0.2692,0.2692,0.2692,0.2692,0.2692,0.2692,0.2692,0.2692,0.2692,0.0,0.0,0.0,0.0,0.0,0.0,0.0,0.0,0.0,0.0,0.0,0.0,0.0,0.0,0.0,0.0,0.0,0.0,0.0,0.0,0.0,0.0,0.0,0.0,0.0,0.0,0.0,0.0,0.0,0.0,0.0,0.0,0.0,0.0,0.0,0.0,0.0,0.0,0.0,0.0,0.0,0.0,0.0,0.0,0.0,0.0,0.0,0.0,0.0,0.0,0.0,0.0,0.0,0.0,0.0,0.0,0.0,0.0,0.0,0.0,0.004,0.0275,0.0353,0.0431,0.0851,0.0969,0.097,0.0957,0.1092,0.1188,0.1053,0.1339,0.1781,0.2188,0.2402,0.2491,0.2405,0.2413,0.2386,0.2386,0.2386,0.2409,0.2508,0.2518,0.2582,0.2597,0.2587,0.2598,0.2603,0.2622,0.2671,0.2625,0.2645,0.2654,0.2692,0.2692,0.2692,0.2692,0.2692,0.2692,0.2692,0.2692,0.2692,0.2692,0.2692,0.2692,0.2692,0.2692,0.2692,0.2692,0.2692,0.2692,0.2692,0.2692,0.2692,0.2692,0.0,0.0,0.0,0.0,0.0,0.0,0.0,0.0,0.0,0.0,0.0,0.0,0.0,0.0,0.0,0.0,0.0,0.0,0.0,0.0,0.0,0.0,0.0,0.0,0.0,0.0,0.0,0.0,0.0,0.0,0.0,0.0,0.0,0.0,0.0,0.0,0.0,0.0,0.0,0.0,0.0,0.0,0.0,0.0,0.0,0.0,0.0,0.0,0.0,0.0,0.0,0.0,0.0,0.0,0.0,0.0,0.0,0.0,0.0,0.0,0.0,0.0,0.0,0.0078,0.0426,0.0502,0.0502,0.0502,0.0813,0.0854,0.0196,0.0737,0.1424,0.177,0.2119,0.2302,0.2266,0.2233,0.2272,0.2332,0.2338,0.0,0.2491,0.2476,0.2499,0.2583,0.2583,0.2594,0.2593,0.2594,0.261,0.2686,0.2624,0.2624,0.2692,0.2692,0.2692,0.2692,0.2692,0.2692,0.2692,0.2692,0.2692,0.2692,0.2692,0.2692,0.2692,0.2692,0.2692,0.2692,0.2692,0.2692,0.2692,0.2692,0.2692,0.2692,0.0,0.0,0.0,0.0,0.0,0.0,0.0,0.0,0.0,0.0,0.0,0.0,0.0,0.0,0.0,0.0,0.0,0.0,0.0,0.0,0.0,0.0,0.0,0.0,0.0,0.0,0.0,0.0,0.0,0.0,0.0,0.0,0.0,0.0,0.0,0.0,0.0,0.0,0.0,0.0,0.0,0.0,0.0,0.0,0.0,0.0,0.0,0.0,0.0,0.0,0.0,0.0,0.0,0.0,0.0,0.0,0.0,0.0,0.0,0.0,0.0,0.0,0.0,0.0,0.0078,0.0117,0.0117,0.0117,0.0158,0.0277,0.0466,0.0919,0.1291,0.1329,0.1417,0.1487,0.1402,0.1471,0.1591,0.189,0.1914,0.2054,0.2401,0.242,0.2459,0.2525,0.2484,0.2489,0.2611,0.2615,0.26,0.2611,0.2675,0.2687,0.2692,0.2692,0.2692,0.2692,0.2692,0.2692,0.2692,0.2692,0.2692,0.2692,0.2692,0.2692,0.2692,0.2692,0.2692,0.2692,0.2692,0.2692,0.2692,0.2692,0.2692,0.2692,0.0,0.0,0.0,0.0,0.0,0.0,0.0,0.0,0.0,0.0,0.0,0.0,0.0,0.0,0.0,0.0,0.0,0.0,0.0,0.0,0.0,0.0,0.0,0.0,0.0,0.0,0.0,0.0,0.0,0.0,0.0,0.0,0.0,0.0,0.0,0.0,0.0,0.0,0.0,0.0,0.0,0.0,0.0,0.0,0.0,0.0,0.0,0.0,0.0,0.0,0.0,0.0,0.0,0.0,0.0,0.0,0.0,0.0,0.0,0.0,0.0,0.0,0.0,0.0,0.0,0.0,0.0,0.0,0.0,0.0079,0.0269,0.0646,0.0911,0.0878,0.112,0.128,0.1228,0.1231,0.13,0.1456,0.1479,0.1669,0.208,0.2121,0.2207,0.2426,0.2469,0.2489,0.2534,0.2536,0.2563,0.2581,0.2638,0.2653,0.2669,0.2684,0.2692,0.2692,0.2692,0.2692,0.2692,0.2692,0.2692,0.2692,0.2692,0.2692,0.2692,0.2692,0.2692,0.2692,0.2692,0.2692,0.2694,0.271,0.2716,0.2714,0.0,0.0,0.0,0.0,0.0,0.0,0.0,0.0,0.0,0.0,0.0,0.0,0.0,0.0,0.0,0.0,0.0,0.0,0.0,0.0,0.0,0.0,0.0,0.0,0.0,0.0,0.0,0.0,0.0,0.0,0.0,0.0,0.0,0.0,0.0,0.0,0.0,0.0,0.0,0.0,0.0,0.0,0.0,0.0,0.0,0.0,0.0,0.0,0.0,0.0,0.0,0.0,0.0,0.0,0.0,0.0,0.0,0.0,0.0,0.0,0.0,0.0,0.0,0.0,0.0,0.0,0.0,0.0,0.0,0.0,0.0,0.0266,0.0456,0.046,0.0776,0.1019,0.0945,0.0932,0.096,0.1034,0.1077,0.1252,0.1672,0.178,0.1923,0.2262,0.2388,0.2495,0.2495,0.2495,0.2522,0.2582,0.2594,0.2616,0.2605,0.2677,0.2692,0.2692,0.2692,0.2692,0.2692,0.2692,0.2692,0.2692,0.2692,0.2692,0.2692,0.2692,0.2692,0.2692,0.2699,0.2702,0.2706,0.2736,0.2704,0.2701,0.0,0.0,0.0,0.0,0.0,0.0,0.0,0.0,0.0,0.0,0.0,0.0,0.0,0.0,0.0,0.0,0.0,0.0,0.0,0.0,0.0,0.0,0.0,0.0,0.0,0.0,0.0,0.0,0.0,0.0,0.0,0.0,0.0,0.0,0.0,0.0,0.0,0.0,0.0,0.0,0.0,0.0,0.0,0.0,0.0,0.0,0.0,0.0,0.0,0.0,0.0,0.0,0.0,0.0,0.0,0.0,0.0,0.0,0.0,0.0,0.0,0.0,0.0,0.0,0.0,0.0,0.0,0.0,0.0,0.0,0.0,0.0038,0.0038,0.0038,0.0077,0.0115,0.0113,0.0113,0.0227,0.0523,0.062,0.0794,0.1136,0.1554,0.1824,0.1861,0.2187,0.2394,0.2394,0.2394,0.2421,0.2521,0.2574,0.2616,0.2605,0.2677,0.2692,0.2692,0.2692,0.2692,0.2692,0.2692,0.2692,0.2692,0.2692,0.2692,0.2692,0.2692,0.2692,0.2695,0.268,0.2691,0.2695,0.2767,0.278,0.2778,0.0,0.0,0.0,0.0,0.0,0.0,0.0,0.0,0.0,0.0,0.0,0.0,0.0,0.0,0.0,0.0,0.0,0.0,0.0,0.0,0.0,0.0,0.0,0.0,0.0,0.0,0.0,0.0,0.0,0.0,0.0,0.0,0.0,0.0,0.0,0.0,0.0,0.0,0.0,0.0,0.0,0.0,0.0,0.0,0.0,0.0,0.0,0.0,0.0,0.0,0.0,0.0,0.0,0.0,0.0,0.0,0.0,0.0,0.0,0.0,0.0,0.0,0.0,0.0,0.0,0.0,0.0,0.0,0.0,0.0,0.0,0.0,0.0,0.0,0.0,0.0,0.0,0.0,0.0039,0.0194,0.0225,0.0369,0.0753,0.1242,0.1578,0.1804,0.222,0.2478,0.2478,0.2478,0.2489,0.2514,0.2571,0.2608,0.262,0.2668,0.2692,0.2692,0.2692,0.2692,0.2692,0.2692,0.2692,0.2692,0.2692,0.2692,0.2692,0.2692,0.2703,0.2721,0.2691,0.2695,0.2701,0.2792,0.2799,0.2785,0.0,0.0,0.0,0.0,0.0,0.0,0.0,0.0,0.0,0.0,0.0,0.0,0.0,0.0,0.0,0.0,0.0,0.0,0.0,0.0,0.0,0.0,0.0,0.0,0.0,0.0,0.0,0.0,0.0,0.0,0.0,0.0,0.0,0.0,0.0,0.0,0.0,0.0,0.0,0.0,0.0,0.0,0.0,0.0,0.0,0.0,0.0,0.0,0.0,0.0,0.0,0.0,0.0,0.0,0.0,0.0,0.0,0.0,0.0,0.0,0.0,0.0,0.0,0.0,0.0,0.0,0.0,0.0,0.0,0.0,0.0,0.0,0.0,0.0,0.0,0.0,0.0,0.0,0.0,0.0,0.0,0.0112,0.0379,0.0828,0.1201,0.1469,0.2017,0.2397,0.245,0.2496,0.2506,0.2514,0.2571,0.2605,0.2615,0.2667,0.2692,0.2692,0.2692,0.2692,0.2692,0.2692,0.2692,0.2692,0.2692,0.2692,0.2692,0.2692,0.2705,0.2683,0.2692,0.27,0.2715,0.2766,0.2821,0.2812,0.0,0.0,0.0,0.0,0.0,0.0,0.0,0.0,0.0,0.0,0.0,0.0,0.0,0.0,0.0,0.0,0.0,0.0,0.0,0.0,0.0,0.0,0.0,0.0,0.0,0.0,0.0,0.0,0.0,0.0,0.0,0.0,0.0,0.0,0.0,0.0,0.0,0.0,0.0,0.0,0.0,0.0,0.0,0.0,0.0,0.0,0.0,0.0,0.0,0.0,0.0,0.0,0.0,0.0,0.0,0.0,0.0,0.0,0.0,0.0,0.0,0.0,0.0,0.0,0.0,0.0,0.0,0.0,0.0,0.0,0.0,0.0,0.0,0.0,0.0,0.0,0.0,0.0,0.0,0.0,0.0,0.0,0.0,0.0365,0.0624,0.0706,0.1518,0.2126,0.2391,0.2454,0.2484,0.2514,0.2571,0.2616,0.2605,0.2677,0.2692,0.2692,0.2692,0.2692,0.2692,0.2692,0.2692,0.2692,0.2692,0.2692,0.2692,0.2692,0.2692,0.2697,0.2684,0.2757,0.2787,0.2816,0.2848,0.2917,0.0,0.0,0.0,0.0,0.0,0.0,0.0,0.0,0.0,0.0,0.0,0.0,0.0,0.0,0.0,0.0,0.0,0.0,0.0,0.0,0.0,0.0,0.0,0.0,0.0,0.0,0.0,0.0,0.0,0.0,0.0,0.0,0.0,0.0,0.0,0.0,0.0,0.0,0.0,0.0,0.0,0.0,0.0,0.0,0.0,0.0,0.0,0.0,0.0,0.0,0.0,0.0,0.0,0.0,0.0,0.0,0.0,0.0,0.0,0.0,0.0,0.0,0.0,0.0,0.0,0.0,0.0,0.0,0.0,0.0,0.0,0.0,0.0,0.0,0.0,0.0,0.0,0.0,0.0,0.0,0.0,0.0,0.0,0.0368,0.0625,0.0616,0.1195,0.1671,0.2045,0.2385,0.2555,0.2585,0.2582,0.2616,0.2605,0.2677,0.2692,0.2692,0.2692,0.2692,0.2692,0.2692,0.2692,0.2692,0.2692,0.2692,0.2692,0.2692,0.2705,0.2681,0.2691,0.2701,0.2758,0.2766,0.2822,0.2818,0.0,0.0,0.0,0.0,0.0,0.0,0.0,0.0,0.0,0.0,0.0,0.0,0.0,0.0,0.0,0.0,0.0,0.0,0.0,0.0,0.0,0.0,0.0,0.0,0.0,0.0,0.0,0.0,0.0,0.0,0.0,0.0,0.0,0.0,0.0,0.0,0.0,0.0,0.0,0.0,0.0,0.0,0.0,0.0,0.0,0.0,0.0,0.0,0.0,0.0,0.0,0.0,0.0,0.0,0.0,0.0,0.0,0.0,0.0,0.0,0.0,0.0,0.0,0.0,0.0,0.0,0.0,0.0,0.0,0.0,0.0,0.0,0.0,0.0,0.0,0.0,0.0,0.0,0.0,0.0,0.0,0.0,0.0,0.0222,0.0369,0.0364,0.081,0.1234,0.1658,0.2091,0.2432,0.2577,0.2604,0.2593,0.2622,0.2683,0.2692,0.2692,0.2692,0.2692,0.2692,0.2692,0.2692,0.2692,0.2692,0.2692,0.2692,0.2692,0.2703,0.2721,0.2721,0.2735,0.2759,0.2797,0.2814,0.2823,0.0,0.0,0.0,0.0,0.0,0.0,0.0,0.0,0.0,0.0,0.0,0.0,0.0,0.0,0.0,0.0,0.0,0.0,0.0,0.0,0.0,0.0,0.0,0.0,0.0,0.0,0.0,0.0,0.0,0.0,0.0,0.0,0.0,0.0,0.0,0.0,0.0,0.0,0.0,0.0,0.0,0.0,0.0,0.0,0.0,0.0,0.0,0.0,0.0,0.0,0.0,0.0,0.0,0.0,0.0,0.0,0.0,0.0,0.0,0.0,0.0,0.0,0.0,0.0,0.0,0.0,0.0,0.0,0.0,0.0,0.0,0.0,0.0,0.0,0.0,0.0,0.0,0.0,0.0,0.0,0.0,0.0,0.0,0.0,0.0,0.0,0.0389,0.0831,0.1275,0.1638,0.2076,0.2601,0.259,0.262,0.2692,0.2692,0.2692,0.2692,0.2692,0.2694,0.2695,0.2694,0.2694,0.2695,0.2694,0.2692,0.2692,0.2692,0.2694,0.2695,0.2695,0.2732,0.2784,0.2785,0.2822,0.2916,0.0,0.0,0.0,0.0,0.0,0.0,0.0,0.0,0.0,0.0,0.0,0.0,0.0,0.0,0.0,0.0,0.0,0.0,0.0,0.0,0.0,0.0,0.0,0.0,0.0,0.0,0.0,0.0,0.0,0.0,0.0,0.0,0.0,0.0,0.0,0.0,0.0,0.0,0.0,0.0,0.0,0.0,0.0,0.0,0.0,0.0,0.0,0.0,0.0,0.0,0.0,0.0,0.0,0.0,0.0,0.0,0.0,0.0,0.0,0.0,0.0,0.0,0.0,0.0,0.0,0.0,0.0,0.0,0.0,0.0,0.0,0.0,0.0,0.0,0.0,0.0,0.0,0.0,0.0,0.0,0.0,0.0,0.0,0.0,0.0,0.0,0.0117,0.0514,0.1275,0.1409,0.1806,0.2562,0.259,0.262,0.2692,0.2692,0.2692,0.2692,0.2692,0.2705,0.2684,0.2703,0.2705,0.2684,0.2702,0.2692,0.2692,0.2692,0.2706,0.2684,0.2684,0.275,0.2787,0.281,0.2827,0.2842,0.0,0.0,0.0,0.0,0.0,0.0,0.0,0.0,0.0,0.0,0.0,0.0,0.0,0.0,0.0,0.0,0.0,0.0,0.0,0.0,0.0,0.0,0.0,0.0,0.0,0.0,0.0,0.0,0.0,0.0,0.0,0.0,0.0,0.0,0.0,0.0,0.0,0.0,0.0,0.0,0.0,0.0,0.0,0.0,0.0,0.0,0.0,0.0,0.0,0.0,0.0,0.0,0.0,0.0,0.0,0.0,0.0,0.0,0.0,0.0,0.0,0.0,0.0,0.0,0.0,0.0,0.0,0.0,0.0,0.0,0.0,0.0,0.0,0.0,0.0,0.0,0.0,0.0,0.0,0.0,0.0,0.0,0.0,0.0,0.0,0.0,0.0,0.0399,0.1246,0.1301,0.1696,0.2562,0.2645,0.2676,0.2692,0.2692,0.2692,0.2692,0.2692,0.2709,0.2695,0.2721,0.2729,0.2758,0.2742,0.2733,0.2733,0.2733,0.2744,0.2758,0.2758,0.2777,0.2806,0.2778,0.2837,0.2852,0.0,0.0,0.0,0.0,0.0,0.0,0.0,0.0,0.0,0.0,0.0,0.0,0.0,0.0,0.0,0.0,0.0,0.0,0.0,0.0,0.0,0.0,0.0,0.0,0.0,0.0,0.0,0.0,0.0,0.0,0.0,0.0,0.0,0.0,0.0,0.0,0.0,0.0,0.0,0.0,0.0,0.0,0.0,0.0,0.0,0.0,0.0,0.0,0.0,0.0,0.0,0.0,0.0,0.0,0.0,0.0,0.0,0.0,0.0,0.0,0.0,0.0,0.0,0.0,0.0,0.0,0.0,0.0,0.0,0.0,0.0,0.0,0.0,0.0,0.0,0.0,0.0,0.0,0.0,0.0,0.0,0.0,0.0,0.0,0.0,0.0,0.0,0.0363,0.1265,0.1314,0.1705,0.2569,0.2662,0.2692,0.2692,0.2692,0.2695,0.2699,0.2699,0.2717,0.2708,0.2704,0.2761,0.2789,0.2785,0.2784,0.2784,0.2784,0.2787,0.2791,0.2791,0.2808,0.2836,0.2836,0.2852,0.2919,0.0,0.0,0.0,0.0,0.0,0.0,0.0,0.0,0.0,0.0,0.0,0.0,0.0,0.0,0.0,0.0,0.0,0.0,0.0,0.0,0.0,0.0,0.0,0.0,0.0,0.0,0.0,0.0,0.0,0.0,0.0,0.0,0.0,0.0,0.0,0.0,0.0,0.0,0.0,0.0,0.0,0.0,0.0,0.0,0.0,0.0,0.0,0.0,0.0,0.0,0.0,0.0,0.0,0.0,0.0,0.0,0.0,0.0,0.0,0.0,0.0,0.0,0.0,0.0,0.0,0.0,0.0,0.0,0.0,0.0,0.0,0.0,0.0,0.0,0.0,0.0,0.0,0.0,0.0,0.0,0.0,0.0,0.0,0.0,0.0,0.0,0.0,0.0366,0.1255,0.1316,0.1699,0.2558,0.2673,0.2692,0.2692,0.2692,0.2705,0.2688,0.2688,0.2717,0.277,0.2788,0.2792,0.2821,0.2795,0.2784,0.2784,0.2784,0.2799,0.2822,0.2822,0.284,0.2867,0.2867,0.287,0.2919,0.0,0.0,0.0,0.0,0.0,0.0,0.0,0.0,0.0,0.0,0.0,0.0,0.0,0.0,0.0,0.0,0.0,0.0,0.0,0.0,0.0,0.0,0.0,0.0,0.0,0.0,0.0,0.0,0.0,0.0,0.0,0.0,0.0,0.0,0.0,0.0,0.0,0.0,0.0,0.0,0.0,0.0,0.0,0.0,0.0,0.0,0.0,0.0,0.0,0.0,0.0,0.0,0.0,0.0,0.0,0.0,0.0,0.0,0.0,0.0,0.0,0.0,0.0,0.0,0.0,0.0,0.0,0.0,0.0,0.0,0.0,0.0,0.0,0.0,0.0,0.0,0.0,0.0,0.0,0.0,0.0,0.0,0.0,0.0,0.0,0.0,0.0,0.037,0.1273,0.1287,0.1712,0.263,0.2686,0.2692,0.2692,0.2709,0.2681,0.2695,0.2755,0.2785,0.2785,0.2814,0.2825,0.2852,0.2838,0.2831,0.2831,0.2831,0.2841,0.2853,0.2853,0.2861,0.2919,0.2919,0.2919,0.2919,0.0,0.0,0.0,0.0,0.0,0.0,0.0,0.0,0.0,0.0,0.0,0.0,0.0,0.0,0.0,0.0,0.0,0.0,0.0,0.0,0.0,0.0,0.0,0.0,0.0,0.0,0.0,0.0,0.0,0.0,0.0,0.0,0.0,0.0,0.0,0.0,0.0,0.0,0.0,0.0,0.0,0.0,0.0,0.0,0.0,0.0,0.0,0.0,0.0,0.0,0.0,0.0,0.0,0.0,0.0,0.0,0.0,0.0,0.0,0.0,0.0,0.0,0.0,0.0,0.0,0.0,0.0,0.0,0.0,0.0,0.0,0.0,0.0,0.0,0.0,0.0,0.0,0.0,0.0,0.0,0.0,0.0,0.0,0.0,0.0,0.0,0.0,0.0374,0.1246,0.1298,0.1724,0.265,0.2692,0.2692,0.2692,0.268,0.2699,0.2705,0.278,0.281,0.284,0.284,0.2852,0.2919,0.2919,0.2919,0.2919,0.2919,0.2919,0.2919,0.2919,0.2919,0.2919,0.2919,0.2919,0.2919,0.0,0.0,0.0,0.0,0.0,0.0,0.0,0.0,0.0,0.0,0.0,0.0,0.0,0.0,0.0,0.0,0.0,0.0,0.0,0.0,0.0,0.0,0.0,0.0,0.0,0.0,0.0,0.0,0.0,0.0,0.0,0.0,0.0,0.0,0.0,0.0,0.0,0.0,0.0,0.0,0.0,0.0,0.0,0.0,0.0,0.0,0.0,0.0,0.0,0.0,0.0,0.0,0.0,0.0,0.0,0.0,0.0,0.0,0.0,0.0,0.0,0.0,0.0,0.0,0.0,0.0,0.0,0.0,0.0,0.0,0.0,0.0,0.0,0.0,0.0,0.0,0.0,0.0,0.0,0.0,0.0,0.0,0.0,0.0,0.0,0.0,0.0,0.0378,0.126,0.1303,0.1724,0.265,0.2692,0.2692,0.2692,0.268,0.2752,0.278,0.2811,0.2841,0.2916,0.2916,0.2917,0.2919,0.2919,0.2919,0.2919,0.2919,0.2919,0.2919,0.2919,0.2919,0.2919,0.2919,0.2919,0.2919,0.0,0.0,0.0,0.0,0.0,0.0,0.0,0.0,0.0,0.0,0.0,0.0,0.0,0.0,0.0,0.0,0.0,0.0,0.0,0.0,0.0,0.0,0.0,0.0,0.0,0.0,0.0,0.0,0.0,0.0,0.0,0.0,0.0,0.0,0.0,0.0,0.0,0.0,0.0,0.0,0.0,0.0,0.0,0.0,0.0,0.0,0.0,0.0,0.0,0.0,0.0,0.0,0.0,0.0,0.0,0.0,0.0,0.0,0.0,0.0,0.0,0.0,0.0,0.0,0.0,0.0,0.0,0.0,0.0,0.0,0.0,0.0,0.0,0.0,0.0,0.0,0.0,0.0,0.0,0.0,0.0,0.0,0.0,0.0,0.0,0.0,0.0,0.0379,0.1262,0.185,0.2314,0.2692,0.271,0.2721,0.2721,0.2727,0.2756,0.2812,0.2842,0.2863,0.2919,0.2919,0.2919,0.2919,0.2919,0.2919,0.2919,0.2919,0.2919,0.2919,0.2919,0.2919,0.2919,0.2919,0.2919,0.2919,0.0,0.0,0.0,0.0,0.0,0.0,0.0,0.0,0.0,0.0,0.0,0.0,0.0,0.0,0.0,0.0,0.0,0.0,0.0,0.0,0.0,0.0,0.0,0.0,0.0,0.0,0.0,0.0,0.0,0.0,0.0,0.0,0.0,0.0,0.0,0.0,0.0,0.0,0.0,0.0,0.0,0.0,0.0,0.0,0.0,0.0,0.0,0.0,0.0,0.0,0.0,0.0,0.0,0.0,0.0,0.0,0.0,0.0,0.0,0.0,0.0,0.0,0.0,0.0,0.0,0.0,0.0,0.0,0.0,0.0,0.0,0.0,0.0,0.0,0.0,0.0,0.0,0.0,0.0,0.0,0.0,0.0,0.0,0.0,0.0,0.0,0.0,0.0379,0.1268,0.2065,0.2574,0.272,0.2742,0.2713,0.2723,0.2763,0.2785,0.2785,0.2859,0.2919,0.2919,0.2919,0.2919,0.2919,0.2919,0.2919,0.2919,0.2919,0.2919,0.2919,0.2919,0.2919,0.2919,0.2919,0.2919,0.2919,0.0,0.0,0.0,0.0,0.0,0.0,0.0,0.0,0.0,0.0,0.0,0.0,0.0,0.0,0.0,0.0,0.0,0.0,0.0,0.0,0.0,0.0,0.0,0.0,0.0,0.0,0.0,0.0,0.0,0.0,0.0,0.0,0.0,0.0,0.0,0.0,0.0,0.0,0.0,0.0,0.0,0.0,0.0,0.0,0.0,0.0,0.0,0.0,0.0,0.0,0.0,0.0,0.0,0.0,0.0,0.0,0.0,0.0,0.0,0.0,0.0,0.0,0.0,0.0,0.0,0.0,0.0,0.0,0.0,0.0,0.0,0.0,0.0,0.0,0.0,0.0,0.0,0.0,0.0,0.0,0.0,0.0,0.0,0.0,0.0,0.0,0.0,0.0423,0.1368,0.1778,0.2252,0.2781,0.2784,0.2799,0.2785,0.2785,0.2785,0.2785,0.286,0.2919,0.2919,0.2919,0.2919,0.2919,0.2919,0.2919,0.2919,0.2919,0.2919,0.2919,0.2919,0.2919,0.2919,0.2919,0.2919,0.2919,0.0,0.0,0.0,0.0,0.0,0.0,0.0,0.0,0.0,0.0,0.0,0.0,0.0,0.0,0.0,0.0,0.0,0.0,0.0,0.0,0.0,0.0,0.0,0.0,0.0,0.0,0.0,0.0,0.0,0.0,0.0,0.0,0.0,0.0,0.0,0.0,0.0,0.0,0.0,0.0,0.0,0.0,0.0,0.0,0.0,0.0,0.0,0.0,0.0,0.0,0.0,0.0,0.0,0.0,0.0,0.0,0.0,0.0,0.0,0.0,0.0,0.0,0.0,0.0,0.0,0.0,0.0,0.0,0.0,0.0,0.0,0.0,0.0,0.0,0.0,0.0,0.0,0.0,0.0,0.0,0.0,0.0,0.0,0.0,0.0,0.0,0.0594,0.1108,0.1368,0.2147,0.2635,0.2782,0.2804,0.2819,0.2785,0.2849,0.286,0.286,0.287,0.2919,0.2919,0.2919,0.2919,0.2919,0.2919,0.2919,0.2919,0.2919,0.2919,0.2919,0.2919,0.2919,0.2919,0.2919,0.2919,0.2919,0.0,0.0,0.0,0.0,0.0,0.0,0.0,0.0,0.0,0.0,0.0,0.0,0.0,0.0,0.0,0.0,0.0,0.0,0.0,0.0,0.0,0.0,0.0,0.0,0.0,0.0,0.0,0.0,0.0,0.0,0.0,0.0,0.0,0.0,0.0,0.0,0.0,0.0,0.0,0.0,0.0,0.0,0.0,0.0,0.0,0.0,0.0,0.0,0.0,0.0,0.0,0.0,0.0,0.0,0.0,0.0,0.0,0.0,0.0,0.0,0.0,0.0,0.0,0.0,0.0,0.0,0.0,0.0,0.0,0.0,0.0,0.0,0.0,0.0,0.0,0.0,0.0,0.0,0.0,0.0,0.0,0.0,0.0,0.0,0.0,0.0,0.0515,0.0992,0.1386,0.1954,0.2444,0.2818,0.2826,0.2834,0.2846,0.2866,0.2919,0.2919,0.2919,0.2919,0.2919,0.2919,0.2919,0.2919,0.2919,0.2919,0.2919,0.2919,0.2919,0.2919,0.2919,0.2919,0.2919,0.2919,0.2919,0.2919,0.0,0.0,0.0,0.0,0.0,0.0,0.0,0.0,0.0,0.0,0.0,0.0,0.0,0.0,0.0,0.0,0.0,0.0,0.0,0.0,0.0,0.0,0.0,0.0,0.0,0.0,0.0,0.0,0.0,0.0,0.0,0.0,0.0,0.0,0.0,0.0,0.0,0.0,0.0,0.0,0.0,0.0,0.0,0.0,0.0,0.0,0.0,0.0,0.0,0.0,0.0,0.0,0.0,0.0,0.0,0.0,0.0,0.0,0.0,0.0,0.0,0.0,0.0,0.0,0.0,0.0,0.0,0.0,0.0,0.0,0.0,0.0,0.0,0.0,0.0,0.0,0.0,0.0,0.0,0.0,0.0,0.0,0.0,0.0,0.0,0.0,0.0044,0.0437,0.1369,0.1446,0.1892,0.2872,0.2846,0.2846,0.2919,0.2919,0.2919,0.2919,0.2921,0.2921,0.2919,0.2921,0.2921,0.2919,0.2919,0.2919,0.2919,0.2919,0.2919,0.2919,0.2919,0.2919,0.2919,0.2919,0.2919,0.2919,0.0,0.0,0.0,0.0,0.0,0.0,0.0,0.0,0.0,0.0,0.0,0.0,0.0,0.0,0.0,0.0,0.0,0.0,0.0,0.0,0.0,0.0,0.0,0.0,0.0,0.0,0.0,0.0,0.0,0.0,0.0,0.0,0.0,0.0,0.0,0.0,0.0,0.0,0.0,0.0,0.0,0.0,0.0,0.0,0.0,0.0,0.0,0.0,0.0,0.0,0.0,0.0,0.0,0.0,0.0,0.0,0.0,0.0,0.0,0.0,0.0,0.0,0.0,0.0,0.0,0.0,0.0,0.0,0.0,0.0,0.0,0.0,0.0,0.0,0.0,0.0,0.0,0.0,0.0,0.0,0.0,0.0,0.0,0.0,0.0,0.0,0.035,0.0793,0.137,0.1778,0.2279,0.2874,0.2868,0.2867,0.2919,0.2919,0.2919,0.2919,0.2897,0.2896,0.292,0.2897,0.2896,0.2919,0.2919,0.2919,0.2919,0.2919,0.2919,0.2919,0.2919,0.2919,0.2919,0.2919,0.2919,0.2919,0.0,0.0,0.0,0.0,0.0,0.0,0.0,0.0,0.0,0.0,0.0,0.0,0.0,0.0,0.0,0.0,0.0,0.0,0.0,0.0,0.0,0.0,0.0,0.0,0.0,0.0,0.0,0.0,0.0,0.0,0.0,0.0,0.0,0.0,0.0,0.0,0.0,0.0,0.0,0.0,0.0,0.0,0.0,0.0,0.0,0.0,0.0,0.0,0.0,0.0,0.0,0.0,0.0,0.0,0.0,0.0,0.0,0.0,0.0,0.0,0.0,0.0,0.0,0.0,0.0,0.0,0.0,0.0,0.0,0.0,0.0,0.0,0.0,0.0,0.0,0.0,0.0,0.0,0.0,0.0,0.0,0.0,0.0,0.0,0.0,0.0,0.0222,0.0668,0.138,0.1709,0.2171,0.2894,0.2953,0.2962,0.2962,0.2962,0.2962,0.2962,0.2916,0.2916,0.2962,0.2916,0.2908,0.2893,0.2881,0.2919,0.2919,0.2919,0.2919,0.2919,0.2919,0.2919,0.2919,0.2919,0.2919,0.2919,0.0,0.0,0.0,0.0,0.0,0.0,0.0,0.0,0.0,0.0,0.0,0.0,0.0,0.0,0.0,0.0,0.0,0.0,0.0,0.0,0.0,0.0,0.0,0.0,0.0,0.0,0.0,0.0,0.0,0.0,0.0,0.0,0.0,0.0,0.0,0.0,0.0,0.0,0.0,0.0,0.0,0.0,0.0,0.0,0.0,0.0,0.0,0.0,0.0,0.0,0.0,0.0,0.0,0.0,0.0,0.0,0.0,0.0,0.0,0.0,0.0,0.0,0.0,0.0,0.0,0.0,0.0,0.0,0.0,0.0,0.0,0.0,0.0,0.0,0.0,0.0,0.0,0.0,0.0,0.0,0.0,0.0,0.0,0.0,0.0,0.0,0.0,0.036,0.1215,0.1409,0.1874,0.274,0.2901,0.3007,0.3007,0.3007,0.301,0.3016,0.2943,0.2942,0.3007,0.2941,0.2926,0.2915,0.2891,0.2879,0.2919,0.2919,0.2919,0.2919,0.2919,0.2919,0.2919,0.2919,0.2919,0.2919,0.0,0.0,0.0,0.0,0.0,0.0,0.0,0.0,0.0,0.0,0.0,0.0,0.0,0.0,0.0,0.0,0.0,0.0,0.0,0.0,0.0,0.0,0.0,0.0,0.0,0.0,0.0,0.0,0.0,0.0,0.0,0.0,0.0,0.0,0.0,0.0,0.0,0.0,0.0,0.0,0.0,0.0,0.0,0.0,0.0,0.0,0.0,0.0,0.0,0.0,0.0,0.0,0.0,0.0,0.0,0.0,0.0,0.0,0.0,0.0,0.0,0.0,0.0,0.0,0.0,0.0,0.0,0.0,0.0,0.0,0.0,0.0,0.0,0.0,0.0,0.0,0.0,0.0,0.0,0.0,0.0,0.0,0.0,0.0,0.0,0.0,0.0,0.0228,0.0774,0.1241,0.1756,0.2262,0.2773,0.3007,0.3007,0.3007,0.3021,0.3001,0.2996,0.2983,0.3009,0.2984,0.2966,0.2916,0.2912,0.2897,0.2919,0.2919,0.2919,0.2919,0.2919,0.2919,0.2919,0.2919,0.2919,0.2919,0.0,0.0,0.0,0.0,0.0,0.0,0.0,0.0,0.0,0.0,0.0,0.0,0.0,0.0,0.0,0.0,0.0,0.0,0.0,0.0,0.0,0.0,0.0,0.0,0.0,0.0,0.0,0.0,0.0,0.0,0.0,0.0,0.0,0.0,0.0,0.0,0.0,0.0,0.0,0.0,0.0,0.0,0.0,0.0,0.0,0.0,0.0,0.0,0.0,0.0,0.0,0.0,0.0,0.0,0.0,0.0,0.0,0.0,0.0,0.0,0.0,0.0,0.0,0.0,0.0,0.0,0.0,0.0,0.0,0.0,0.0,0.0,0.0,0.0,0.0,0.0,0.0,0.0,0.0,0.0,0.0,0.0,0.0,0.0,0.0,0.0,0.0,0.0183,0.069,0.1201,0.1718,0.2193,0.2769,0.3058,0.3058,0.3058,0.3067,0.3079,0.3079,0.3072,0.3058,0.3038,0.2966,0.2939,0.2906,0.2886,0.2919,0.2919,0.2919,0.2919,0.2919,0.2919,0.2919,0.2919,0.2919,0.2919]},{"header":{"parameterUnit":"m.s-1","parameterCategory":1,"la1":30.6,"la2":28.766,"lo1":-90.7593,"lo2":-88.6598,"dy":0.0162,"dx":0.0183,"nx":116,"ny":114,"refTime":"2024-06-18T12:00:00:Z","depth":0,"parameterNumber":3,"parameterNumberName":"V-component_of_WINDS"},"data":[0.0,0.0,0.0,0.0,0.0,0.0,0.0,0.0,0.0,0.0,0.0,0.0,0.0,0.0,0.0,0.0,0.0,0.0,0.0,0.0,0.0,0.0,0.0,0.0,0.0,0.0,0.0,0.0,0.0,0.0,0.0,0.0,0.0,0.0,0.0,0.0,0.0,0.0,0.0,0.0,0.0,0.0,0.0,0.0,0.0,0.0,0.0,0.0,0.0,0.0,0.0,0.0,0.0,0.0,0.0,0.0,0.0,0.0,0.0,0.0,0.0,0.0,0.0,0.0,0.0,0.0,0.0,0.0,0.0,0.0,0.0,0.0,0.0,0.0,0.0,0.0,0.0,0.0,0.0,0.0,0.0,0.0,0.0,0.0,0.0,0.0,0.0,0.0,0.0,0.0,0.0,0.0,0.0,0.0,0.0,0.0,0.0,0.0,0.0,0.0,0.0,0.0,0.0,0.0,0.0,0.0,0.0,0.0,0.0,0.0,0.0,0.0,0.0,0.0,0.0,0.0,0.0,0.0,0.0,0.0,0.0,0.0,0.0,0.0,0.0,0.0,0.0,0.0,0.0,0.0,0.0,0.0,0.0,0.0,0.0,0.0,0.0,0.0,0.0,0.0,0.0,0.0,0.0,0.0,0.0,0.0,0.0,0.0,0.0,0.0,0.0,0.0,0.0,0.0,0.0,0.0,0.0,0.0,0.0,0.0,0.0,0.0,0.0,0.0,0.0,0.0,0.0,0.0,0.0,0.0,0.0,0.0,0.0,0.0,0.0,0.0,0.0,0.0,0.0,0.0,0.0,0.0,0.0,0.0,0.0,0.0,0.0,0.0,0.0,0.0,0.0,0.0,0.0,0.0,0.0,0.0,0.0,0.0,0.0,0.0,0.0,0.0,0.0,0.0,0.0,0.0,0.0,0.0,0.0,0.0,0.0,0.0,0.0,0.0,0.0,0.0,0.0,0.0,0.0,0.0,0.0,0.0,0.0,0.0,0.0,0.0,0.0,0.0,0.0,0.0,0.0,0.0,0.0,0.0,0.0,0.0,0.0,0.0,0.0,0.0,0.0,0.0,0.0,0.0,0.0,0.0,0.0,0.0,0.0,0.0,0.0,0.0,0.0,0.0,0.0,0.0,0.0,0.0,0.0,0.0,0.0,0.0,0.0,0.0,0.0,0.0,0.0,0.0,0.0,0.0,0.0,0.0,0.0,0.0,0.0,0.0,0.0,0.0,0.0,0.0,0.0,0.0,0.0,0.0,0.0,0.0,0.0,0.0,0.0,0.0,0.0,0.0,0.0,0.0,0.0,0.0,0.0,0.0,0.0,0.0,0.0,0.0,0.0,0.0,0.0,0.0,0.0,0.0,0.0,0.0,0.0,0.0,0.0,0.0,0.0,0.0,0.0,0.0,0.0,0.0,0.0,0.0,0.0,0.0,0.0,0.0,0.0,0.0,0.0,0.0,0.0,0.0,0.0,0.0,0.0,0.0,0.0,0.0,0.0,0.0,0.0,0.0,0.0,0.0,0.0,0.0,0.0,0.0,0.0,0.0,0.0,0.0,0.0,0.0,0.0,0.0,0.0,0.0,0.0,0.0,0.0,0.0,0.0,0.0,0.0,0.0,0.0,0.0,0.0,0.0,0.0,0.0,0.0,0.0,0.0,0.0,0.0,0.0,0.0,0.0,0.0,0.0,0.0,0.0,0.0,0.0,0.0,0.0,0.0,0.0,0.0,0.0,0.0,0.0,0.0,0.0,0.0,0.0,0.0,0.0,0.0,0.0,0.0,0.0,0.0,0.0,0.0,0.0,0.0,0.0,0.0,0.0,0.0,0.0,0.0,0.0,0.0,0.0,0.0,0.0,0.0,0.0,0.0,0.0,0.0,0.0,0.0,0.0,0.0,0.0,0.0,0.0,0.0,0.0,0.0,0.0,0.0,0.0,0.0,0.0,0.0,0.0,0.0,0.0,0.0,0.0,0.0,0.0,0.0,0.0,0.0,0.0,0.0,0.0,0.0,0.0,0.0,0.0,0.0,0.0,0.0,0.0,0.0,0.0,0.0,0.0,0.0,0.0,0.0,0.0,0.0,0.0,0.0,0.0,0.0,0.0,0.0,0.0,0.0,0.0,0.0,0.0,0.0,0.0,0.0,0.0,0.0,0.0,0.0,0.0,0.0,0.0,0.0,0.0,0.0,0.0,0.0,0.0,0.0,0.0,0.0,0.0,0.0,0.0,0.0,0.0,0.0,0.0,0.0,0.0,0.0,0.0,0.0,0.0,0.0,0.0,0.0,0.0,0.0,0.0,0.0,0.0,0.0,0.0,0.0,0.0,0.0,0.0,0.0,0.0,0.0,0.0,0.0,0.0,0.0,0.0,0.0,0.0,0.0,0.0,0.0,0.0,0.0,0.0,0.0,0.0,0.0,0.0,0.0,0.0,0.0,0.0,0.0,0.0,0.0,0.0,0.0,0.0,0.0,0.0,0.0,0.0,0.0,0.0,0.0,0.0,0.0,0.0,0.0,0.0,0.0,0.0,0.0,0.0,0.0,0.0,0.0,0.0,0.0,0.0,0.0,0.0,0.0,0.0,0.0,0.0,0.0,0.0,0.0,0.0,0.0,0.0,0.0,0.0,0.0,0.0,0.0,0.0,0.0,0.0,0.0,0.0,0.0,0.0,0.0,0.0,0.0,0.0,0.0,0.0,0.0,0.0,0.0,0.0,0.0,0.0,0.0,0.0,0.0,0.0,0.0,0.0,0.0,0.0,0.0,0.0,0.0,0.0,0.0,0.0,0.0,0.0,0.0,0.0,0.0,0.0,0.0,0.0,0.0,0.0,0.0,0.0,0.0,0.0,0.0,0.0,0.0,0.0,0.0,0.0,0.0,0.0,0.0,0.0,0.0,0.0,0.0,0.0,0.0,0.0,0.0,0.0,0.0,0.0,0.0,0.0,0.0,0.0,0.0,0.0,0.0,0.0,0.0,0.0,0.0,0.0,0.0,0.0,0.0,0.0,0.0,0.0,0.0,0.0,0.0,0.0,0.0,0.0,0.0,0.0,0.0,0.0,0.0,0.0,0.0,0.0,0.0,0.0,0.0,0.0,0.0,0.0,0.0,0.0,0.0,0.0,0.0,0.0,0.0,0.0,0.0,0.0,0.0,0.0,0.0,0.0,0.0,0.0,0.0,0.0,0.0,0.0,0.0,0.0,0.0,0.0,0.0,0.0,0.0,0.0,0.0,0.0,0.0,0.0,0.0,0.0,0.0,0.0,0.0,0.0,0.0,0.0,0.0,0.0,0.0,0.0,0.0,0.0,0.0,0.0,0.0,0.0,0.0,0.0,0.0,0.0,0.0,0.0,0.0,0.0,0.0,0.0,0.0,0.0,0.0,0.0,0.0,0.0,0.0,0.0,0.0,0.0,0.0,0.0,0.0,0.0,0.0,0.0,0.0,0.0,0.0,0.0,0.0,0.0,0.0,0.0,0.0,0.0,0.0,0.0,0.0,0.0,0.0,0.0,0.0,0.0,0.0,0.0,0.0,0.0,0.0,0.0,0.0,0.0,0.0,0.0,0.0,0.0,0.0,0.0,0.0,0.0,0.0,0.0,0.0,0.0,0.0,0.0,0.0,0.0,0.0,0.0,0.0,0.0,0.0,0.0,0.0,0.0,0.0,0.0,0.0,0.0,0.0,0.0,0.0,0.0,0.0,0.0,0.0,0.0,0.0,0.0,0.0,0.0,0.0,0.0,0.0,0.0,0.0,0.0,0.0,0.0,0.0,0.0,0.0,0.0,0.0,0.0,0.0,0.0,0.0,0.0,0.0,0.0,0.0,0.0,0.0,0.0,0.0,0.0,0.0,0.0,0.0,0.0,0.0,0.0,0.0,0.0,0.0,0.0,0.0,0.0,0.0,0.0,0.0,0.0,0.0,0.0,0.0,0.0,0.0,0.0,0.0,0.0,0.0,0.0,0.0,0.0,0.0,0.0,0.0,0.0,0.0,0.0,0.0,0.0,0.0,0.0,0.0,0.0,0.0,0.0,0.0,0.0,0.0,0.0,0.0,0.0,0.0,0.0,0.0,0.0,0.0,0.0,0.0,0.0,0.0,0.0,0.0,0.0,0.0,0.0,0.0,0.0,0.0,0.0,0.0,0.0,0.0,0.0,0.0,0.0,0.0,0.0,0.0,0.0,0.0,0.0,0.0,0.0,0.0,0.0,0.0,0.0,0.0,0.0,0.0,0.0,0.0,0.0,0.0,0.0,0.0,0.0,0.0,0.0,0.0,0.0,0.0,0.0,0.0,0.0,0.0,0.0,0.0,0.0,0.0,0.0,0.0,0.0,0.0,0.0,0.0,0.0,0.0,0.0,0.0,0.0,0.0,0.0,0.0,0.0,0.0,0.0,0.0,0.0,0.0,0.0,0.0,0.0,0.0,0.0,0.0,0.0,0.0,0.0,0.0,0.0,0.0,0.0,0.0,0.0,0.0,0.0,0.0,0.0,0.0,0.0,0.0,0.0,0.0,0.0,0.0,0.0,0.0,0.0,0.0,0.0,0.0,0.0,0.0,0.0,0.0,0.0,0.0,0.0,0.0,0.0,0.0,0.0,0.0,0.0,0.0,0.0,0.0,0.0,0.0,0.0,0.0,0.0,0.0,0.0,0.0,0.0,0.0,0.0,0.0,0.0,0.0,0.0,0.0,0.0,0.0,0.0,0.0,0.0,0.0,0.0,0.0,0.0,0.0,0.0,0.0,0.0,0.0,0.0,0.0,0.0,0.0,0.0,0.0,0.0,0.0,0.0,0.0,0.0,0.0,0.0,0.0,0.0,0.0,0.0,0.0,0.0,0.0,0.0,0.0,0.0,0.0,0.0,0.0,0.0,0.0,0.0,0.0,0.0,0.0,0.0,0.0,0.0,0.0,0.0,0.0,0.0,0.0,0.0,0.0,0.0,0.0,0.0,0.0,0.0,0.0,0.0,0.0,0.0,0.0,0.0,0.0,0.0,0.0,0.0,0.0,0.0,0.0,0.0,0.0,0.0,0.0,0.0,0.0,0.0,0.0,0.0,0.0,0.0,0.0,0.0,0.0,0.0,0.0,0.0,0.0,0.0,0.0,0.0,0.0,0.0,0.0,0.0,0.0,0.0,0.0,0.0,0.0,0.0,0.0,0.0,0.0,0.0,0.0,0.0,0.0,0.0,0.0,0.0,0.0,0.0,0.0,0.0,0.0,0.0,0.0,0.0,0.0,0.0,0.0,0.0,0.0,0.0,0.0,0.0,0.0,0.0,0.0,0.0,0.0,0.0,0.0,0.0,0.0,0.0,0.0,0.0,0.0,0.0,0.0,0.0,0.0,0.0,0.0,0.0,0.0,0.0,0.0,0.0,0.0,0.0,0.0,0.0,0.0,0.0,0.0,0.0,0.0,0.0,0.0,0.0,0.0,0.0,0.0,0.0,0.0,0.0,0.0,0.0,0.0,0.0,0.0,0.0,0.0,0.0,0.0,0.0,0.0,0.0,0.0,0.0,0.0,0.0,0.0,0.0,0.0,0.0,0.0,0.0,0.0,0.0,0.0,0.0,0.0,0.0,0.0,0.0,0.0,0.0,0.0,0.0,0.0,0.0,0.0,0.0,0.0,0.0,0.0,0.0,0.0,0.0,0.0,0.0,0.0,0.0,0.0,0.0,0.0,0.0,0.0,0.0,0.0,0.0,0.0,0.0,0.0,0.0,0.0,0.0,0.0,0.0,0.0,0.0,0.0,0.0,0.0,0.0,0.0,0.0,0.0,0.0,0.0,0.0,0.0,0.0,0.0,0.0,0.0,0.0,0.0,0.0,0.0,0.0,0.0,0.0,0.0,0.0,0.0,0.0,0.0,0.0,0.0,0.0,0.0,0.0,0.0,0.0,0.0,0.0,0.0,0.0,0.0,0.0,0.0,0.0,0.0,0.0,0.0,0.0,0.0,0.0,0.0,0.0,0.0,0.0,0.0,0.0,0.0,0.0,0.0,0.0,0.0,0.0,0.0,0.0,0.0,0.0,0.0,0.0,0.0,0.0,0.0,0.0,0.0,0.0,0.0,0.0,0.0,0.0,0.0,0.0,0.0,0.0,4.6748,4.6038,0.0,0.0,0.0,0.0,0.0,0.0,0.0,0.0,0.0,0.0,0.0,0.0,0.0,0.0,0.0,0.0,0.0,0.0,0.0,0.0,0.0,0.0,0.0,3.9511,4.0485,4.2159,4.2315,4.2666,4.3523,4.3601,4.3211,4.2354,4.1887,4.107,3.9784,3.885,3.8422,3.8461,3.7136,3.6279,3.589,3.589,3.5656,3.5228,0.0,0.0,0.0,0.0,0.0,0.0,0.0,0.0,0.0,0.0,0.0,0.0,0.0,0.0,0.0,0.0,0.0,0.0,0.0,0.0,0.0,0.0,0.0,0.0,0.0,0.0,0.0,0.0,0.0,0.0,0.0,0.0,0.0,0.0,0.0,0.0,0.0,0.0,0.0,0.0,0.0,0.0,0.0,0.0,0.0,0.0,0.0,0.0,0.0,0.0,0.0,0.0,0.0,0.0,0.0,0.0,0.0,0.0,0.0,0.0,0.0,0.0,0.0,0.0,0.0,0.0,0.0,0.0,0.0,0.0,4.8785,4.8161,0.0,0.0,0.0,0.0,0.0,0.0,0.0,0.0,0.0,0.0,0.0,0.0,0.0,0.0,0.0,0.0,0.0,0.0,0.0,0.0,0.0,3.7292,3.9745,4.0135,4.0836,4.2393,4.2549,4.2822,4.3562,4.3757,4.3757,4.3601,4.3056,4.2356,4.1538,4.1265,4.0758,4.0018,3.9005,3.7759,3.6356,3.6356,3.6356,3.6356,3.6046,0.0,0.0,0.0,0.0,0.0,0.0,0.0,0.0,0.0,0.0,0.0,0.0,0.0,0.0,0.0,0.0,0.0,0.0,0.0,0.0,0.0,0.0,0.0,0.0,0.0,0.0,0.0,0.0,0.0,0.0,0.0,0.0,0.0,0.0,0.0,0.0,0.0,0.0,0.0,0.0,0.0,0.0,0.0,0.0,0.0,0.0,0.0,0.0,0.0,0.0,0.0,0.0,0.0,0.0,0.0,0.0,0.0,0.0,0.0,0.0,0.0,0.0,0.0,5.3256,5.3294,5.2474,5.1751,5.2304,5.3711,5.2148,5.1523,5.1481,4.9754,0.0,0.0,0.0,0.0,0.0,0.0,0.0,0.0,0.0,0.0,0.0,0.0,0.0,0.0,0.0,0.0,0.0,0.0,0.0,3.885,4.0719,4.1538,4.2354,4.3328,4.3445,4.3484,4.3601,4.4306,4.4384,4.364,4.4228,4.415,4.3289,4.1849,4.1031,4.0914,3.9316,3.8383,3.8149,3.8149,3.8149,3.8071,3.659,3.7525,4.0057,0.0,0.0,0.0,0.0,0.0,0.0,0.0,0.0,0.0,0.0,0.0,0.0,0.0,0.0,0.0,0.0,0.0,0.0,0.0,0.0,0.0,0.0,0.0,0.0,0.0,0.0,0.0,0.0,0.0,0.0,0.0,0.0,0.0,0.0,0.0,0.0,0.0,0.0,0.0,0.0,0.0,4.9956,5.0696,0.0,0.0,0.0,0.0,0.0,0.0,0.0,0.0,0.0,0.0,0.0,0.0,0.0,5.4951,5.4873,5.6395,5.6722,5.5864,5.7422,5.7695,5.6876,5.6767,5.7229,5.8127,5.7176,0.0,5.2402,5.0636,0.0,0.0,0.0,0.0,0.0,0.0,0.0,0.0,0.0,0.0,0.0,0.0,0.0,0.0,0.0,0.0,0.0,0.0,0.0,0.0,0.0,4.1078,4.1928,4.2721,4.2797,4.2846,4.287,4.4117,4.4674,4.4345,4.5165,4.5438,4.5085,4.4345,4.3254,4.177,4.0057,3.8966,3.85,3.85,3.8772,3.9161,3.7915,3.8227,3.9511,3.7487,0.0,0.0,0.0,0.0,0.0,0.0,0.0,0.0,0.0,0.0,0.0,0.0,0.0,0.0,0.0,0.0,0.0,0.0,0.0,0.0,0.0,0.0,0.0,0.0,0.0,0.0,0.0,0.0,0.0,0.0,0.0,0.0,0.0,0.0,0.0,0.0,0.0,0.0,0.0,5.1515,5.2682,5.2097,5.2902,5.3267,0.0,0.0,0.0,0.0,0.0,0.0,0.0,0.0,0.0,5.6028,5.6397,5.6854,5.732,5.8076,5.8258,5.7908,5.8648,5.8804,5.8416,5.8412,5.8635,5.897,5.8652,5.7695,5.6122,5.392,5.2712,5.2177,0.0,0.0,0.0,0.0,5.1492,5.1492,0.0,0.0,0.0,0.0,0.0,0.0,0.0,0.0,0.0,0.0,0.0,0.0,3.9521,4.026,4.087,4.1497,4.1726,4.198,4.2297,4.3661,4.4618,4.4892,4.5515,4.5866,4.5866,4.5438,4.415,4.2003,4.0758,3.9784,3.9161,3.9161,3.9511,4.0096,3.9433,3.9277,3.9394,3.8071,3.7409,3.7175,0.0,0.0,0.0,0.0,0.0,0.0,0.0,0.0,0.0,0.0,0.0,0.0,0.0,0.0,0.0,0.0,0.0,0.0,0.0,0.0,0.0,0.0,0.0,0.0,0.0,0.0,0.0,0.0,0.0,0.0,0.0,0.0,0.0,0.0,0.0,0.0,0.0,5.3656,5.4552,5.3697,5.4552,5.4708,0.0,0.0,0.0,0.0,0.0,0.0,5.65,5.7128,5.7869,5.8687,5.8921,5.9349,5.9973,6.0012,6.0012,6.0012,5.9778,5.9661,5.9661,5.9669,5.9656,5.9671,5.9736,5.9604,5.9255,5.69,5.5572,5.4837,5.3336,5.2585,5.2507,5.3367,5.3288,5.2897,0.0,0.0,0.0,0.0,0.0,0.0,0.0,0.0,0.0,0.0,0.0,3.8583,3.9518,3.9634,3.9673,3.9749,4.0482,4.1356,4.2258,4.3078,4.3954,4.4853,4.4933,4.4972,4.4972,4.333,4.2042,4.1148,4.107,4.0992,4.0953,4.0953,4.0992,4.1031,4.0992,4.1382,4.1965,3.9472,3.9355,4.068,3.9044,0.0,0.0,0.0,0.0,0.0,0.0,0.0,0.0,0.0,0.0,0.0,0.0,0.0,0.0,0.0,0.0,0.0,0.0,0.0,0.0,0.0,0.0,0.0,0.0,0.0,0.0,0.0,0.0,0.0,0.0,0.0,0.0,0.0,0.0,0.0,0.0,0.0,0.0,5.6115,5.5645,0.0,0.0,0.0,0.0,5.6427,5.7869,5.9155,6.001,6.009,6.0516,6.1373,6.2192,6.2659,6.2698,6.2698,6.2698,6.2698,6.1841,6.1451,6.1451,6.1456,6.1454,6.1465,6.1466,6.1038,6.0193,5.8396,5.7647,5.7507,5.6684,5.5825,5.5202,5.6098,5.6371,5.6215,0.0,0.0,0.0,3.3342,3.3068,3.3148,3.4623,3.58,3.6908,3.8146,3.8792,3.9461,4.0271,4.0351,4.0379,4.038,4.0649,4.0984,4.131,4.2162,4.3056,4.3956,4.4568,4.5166,4.571,4.4031,4.3252,4.3567,4.2979,4.2705,4.2705,4.2705,4.2705,4.2705,4.2705,4.2861,4.2978,4.0407,3.9706,4.0213,3.9589,3.9706,0.0,0.0,0.0,0.0,0.0,0.0,0.0,0.0,0.0,0.0,0.0,0.0,0.0,0.0,0.0,0.0,0.0,0.0,0.0,0.0,0.0,0.0,0.0,0.0,0.0,0.0,0.0,0.0,0.0,0.0,0.0,0.0,0.0,0.0,0.0,0.0,0.0,5.8804,5.8685,0.0,5.9269,5.9854,6.009,5.9817,6.1334,6.2426,6.2737,6.3828,6.4566,6.4878,6.4644,6.4761,6.5346,6.4218,6.4257,6.5346,6.3906,6.3542,6.4054,6.2959,6.2442,6.2401,6.1853,6.1479,6.1209,6.0584,5.9638,5.8596,5.8323,5.801,5.7777,5.8088,5.8205,5.8166,3.3496,3.3071,0.0,3.3458,3.3767,3.4347,3.551,3.7135,3.831,3.8662,3.9445,3.9985,3.9937,4.0175,4.0358,4.0355,4.0623,4.1046,4.167,4.2291,4.3157,4.4345,4.4997,4.5321,4.5319,4.446,4.4189,4.4462,4.3875,4.3601,4.3601,4.3601,4.3601,4.3601,4.3601,4.3601,4.3484,4.1809,4.0758,4.0252,4.0524,4.0641,4.0602,0.0,0.0,0.0,0.0,0.0,0.0,0.0,0.0,0.0,0.0,0.0,0.0,0.0,0.0,0.0,0.0,0.0,0.0,0.0,0.0,0.0,0.0,0.0,0.0,0.0,0.0,0.0,0.0,0.0,0.0,0.0,0.0,0.0,0.0,5.7749,5.9427,6.0594,6.1257,6.1685,6.1997,6.2815,6.3205,6.2893,6.4452,6.5424,6.5424,6.679,6.7569,6.7569,6.6748,6.6554,6.7138,6.5424,6.5112,6.6242,6.48,6.4452,6.5019,6.3886,6.3324,6.3312,6.2725,6.2342,6.2146,6.2146,6.1278,5.9962,5.9962,5.9806,5.9533,5.9533,5.9338,5.9103,3.4275,3.4394,3.4394,3.4471,3.5165,3.6284,3.7983,3.9688,4.0507,3.9733,4.0313,4.0194,3.8525,3.9072,3.9539,3.9539,4.0313,4.1567,4.335,4.3476,4.426,4.6056,4.6135,4.5395,4.3716,4.446,4.4501,4.3679,4.3679,4.3679,4.3679,4.3679,4.3679,4.3679,4.3679,4.3679,4.3679,4.3679,4.2744,4.1265,4.2042,4.2315,4.2393,0.0,0.0,0.0,0.0,0.0,0.0,0.0,0.0,0.0,0.0,0.0,0.0,0.0,0.0,0.0,0.0,0.0,0.0,0.0,0.0,0.0,0.0,0.0,0.0,0.0,0.0,0.0,0.0,0.0,0.0,0.0,0.0,0.0,5.7908,5.8609,5.9856,6.1568,6.3205,6.3945,6.3166,6.5346,6.6476,6.5618,6.7177,6.8151,6.8151,6.8972,6.9442,6.9442,6.8621,6.8151,6.819,6.6476,6.5618,6.5618,6.4722,6.4337,6.4357,6.432,6.4265,6.4251,6.4212,6.3749,6.3043,6.3004,6.2487,6.1758,6.1719,6.1172,6.0432,6.0432,5.9924,5.9181,3.5049,3.4311,3.4038,3.5897,3.64,3.7135,3.8879,4.0078,4.1161,4.2125,4.1393,4.1084,4.1812,4.1045,4.0429,4.0429,4.0661,4.1257,4.2336,4.2457,4.3252,4.5028,4.5108,4.5202,4.5392,4.5042,4.5058,4.5475,4.5475,4.5475,4.5475,4.5475,4.5475,4.5475,4.5475,4.5475,4.5475,4.5475,4.4853,4.384,4.3408,4.2861,4.2315,0.0,0.0,0.0,0.0,0.0,0.0,0.0,0.0,0.0,0.0,0.0,0.0,0.0,0.0,0.0,0.0,0.0,0.0,0.0,0.0,0.0,0.0,0.0,0.0,0.0,0.0,0.0,0.0,0.0,0.0,0.0,5.9503,5.9856,5.9622,6.1919,6.4062,6.5151,6.6242,6.7099,6.7494,6.8741,6.944,6.9208,7.0726,7.17,7.17,7.2518,7.2986,7.2986,7.2167,7.2011,7.2635,7.092,7.0375,7.0959,6.9518,6.8507,6.7865,6.6647,6.5734,6.5117,6.4524,6.4162,6.3882,6.3257,6.2861,6.2579,6.1953,6.1563,6.1328,6.1328,6.1172,6.0977,3.5436,3.5162,3.5157,3.6629,3.7793,3.8879,3.9887,4.1084,4.2086,4.2667,4.1893,4.1548,4.2164,4.1393,4.0816,4.0816,4.0816,4.1328,4.2517,4.3313,4.4175,4.5214,4.5605,4.6048,4.6584,4.6467,4.6493,4.6695,4.7085,4.7056,4.6762,4.7113,4.7074,4.6762,4.7113,4.7074,4.6762,4.7113,4.6996,4.6451,4.5592,4.4499,4.341,4.341,4.3604,4.3877,4.3526,4.3721,4.4189,4.4306,0.0,0.0,0.0,0.0,0.0,0.0,0.0,0.0,0.0,0.0,0.0,0.0,0.0,0.0,0.0,0.0,0.0,0.0,0.0,0.0,0.0,0.0,0.0,0.0,6.1724,6.2542,6.2932,6.4374,6.5852,6.7099,6.8619,6.979,7.03,7.1469,7.2209,7.2209,7.3103,7.3648,7.3648,7.4116,7.4233,7.3882,7.3025,7.2635,7.2791,7.143,7.1001,7.1508,7.0533,6.977,6.9299,6.8654,6.7929,6.7096,6.665,6.6016,6.5274,6.4453,6.3867,6.3438,0.0,0.0,0.0,0.0,6.1694,6.1694,3.5668,3.64,3.6977,3.7174,3.9188,4.0852,4.1045,4.2241,4.2937,4.2357,4.2048,4.1625,4.1006,4.0852,4.0816,4.0816,4.0968,4.1847,4.3683,4.5368,4.6288,4.628,4.7021,4.7412,4.7451,4.8191,4.8222,4.7539,4.8319,4.8303,4.7644,4.8423,4.8345,4.7644,4.8429,4.8353,4.769,4.8473,4.8787,4.8748,4.7971,4.6607,4.505,4.4933,4.5321,4.5827,4.5048,4.4736,4.4658,4.3953,0.0,0.0,0.0,0.0,0.0,0.0,0.0,0.0,0.0,0.0,0.0,0.0,0.0,0.0,0.0,0.0,0.0,0.0,0.0,0.0,0.0,0.0,0.0,0.0,6.4055,6.592,6.7089,6.6577,6.6694,6.8226,7.0609,7.2089,7.2089,7.357,7.4544,7.4544,7.4622,7.47,7.47,7.47,0.0,0.0,0.0,7.2053,7.1313,7.0533,7.0066,6.9871,6.9988,6.9826,6.9478,7.034,7.0234,6.9379,6.9297,6.8398,6.6877,6.5979,6.5082,6.4146,6.2503,6.1807,6.17,6.1707,6.1709,6.1709,3.6632,3.6784,3.7328,3.8763,4.0004,4.1277,4.2628,4.2473,4.2705,4.394,4.2318,4.1238,4.1699,4.12,4.0816,4.0816,4.2048,4.3834,4.6246,4.7344,4.7932,4.7928,4.8087,4.8227,4.828,4.8438,4.8469,4.8375,4.853,4.8535,4.8391,4.8549,4.8549,4.8393,4.8635,4.8615,4.8461,4.8696,4.8787,4.8787,4.8633,4.7503,4.5866,4.5166,4.4579,4.407,4.3914,4.3836,4.3914,4.4462,4.4658,4.4775,4.5477,4.6295,0.0,0.0,0.0,0.0,0.0,0.0,0.0,0.0,0.0,0.0,0.0,0.0,0.0,0.0,0.0,0.0,0.0,0.0,0.0,6.519,6.6085,6.7372,7.0327,7.0548,7.0558,7.1026,7.2752,7.3882,7.3882,7.4856,7.5441,7.5441,7.6103,7.6493,7.6493,7.6493,7.6415,7.6259,7.6064,7.5908,7.5752,7.5596,7.4817,7.3414,7.4116,0.0,7.0378,7.1266,7.0818,6.9367,6.8652,6.8177,6.7747,6.6233,6.5104,6.4205,6.3142,6.2324,6.1707,6.1709,6.1709,6.1709,3.815,3.8516,3.9265,4.0542,4.1819,4.2976,4.3824,4.3592,4.375,4.5026,4.3363,4.2202,4.2628,4.228,4.1896,4.1432,4.2976,4.4678,4.6345,4.7273,4.8121,4.901,4.9432,4.9683,4.972,5.0149,4.9952,4.9204,5.006,5.0231,4.987,5.0727,5.0688,4.987,5.0798,5.0734,4.9956,5.0882,5.1011,5.0542,5.0114,4.918,4.7905,4.7136,4.6566,4.6213,4.6213,4.6213,4.6213,4.6217,4.6164,4.6148,4.6171,4.6732,4.7482,0.0,0.0,0.0,0.0,0.0,0.0,0.0,0.0,0.0,0.0,0.0,0.0,0.0,0.0,6.1705,6.2603,0.0,6.5362,6.7506,6.8564,6.9822,7.1956,7.2974,7.3387,7.3081,7.4184,7.5015,7.5048,7.583,7.6337,7.6337,7.6765,7.6999,7.6999,7.6999,7.6804,7.6376,7.6307,7.6109,7.5713,7.5605,7.5194,7.4431,7.4831,7.4147,7.2555,7.2997,7.2538,7.1282,7.0416,6.9554,6.8616,6.6941,6.5734,6.4916,6.4483,6.3781,6.2964,6.2497,6.2341,6.2302,3.9811,4.0617,4.1416,4.189,4.343,4.4587,4.4594,4.4597,4.4829,4.5494,4.4253,4.3359,4.3514,4.3553,4.3401,4.3015,4.4291,4.549,4.65,4.7351,4.8546,5.0132,5.0979,5.1405,5.1405,5.2105,5.1827,5.0527,5.1851,5.2193,5.1619,5.2981,5.2903,5.1619,5.3036,5.2884,5.1677,5.3093,5.3294,5.2592,5.1889,5.1193,5.0467,4.9782,4.919,4.8762,4.8762,4.8647,4.8413,4.7905,4.7568,4.7308,4.6802,4.7303,4.8338,4.9803,5.0929,0.0,0.0,0.0,0.0,0.0,0.0,0.0,0.0,5.912,6.0038,6.1501,6.3192,6.4664,6.5522,6.6916,6.8353,6.9523,7.0912,7.2142,7.3152,7.4458,7.5184,7.4775,7.5382,7.5843,7.5901,7.6531,7.692,7.692,7.692,7.692,7.692,7.692,7.6609,7.5908,7.5854,7.55,7.4856,7.4724,7.4654,7.4728,7.4784,7.4733,7.449,7.449,7.4062,7.3231,7.2216,7.0851,6.929,6.7766,6.6753,6.6092,6.5936,6.5428,6.4686,6.3633,6.3164,6.289,4.1317,4.2331,4.275,4.2115,4.341,4.4516,4.459,4.4597,4.4636,4.4713,4.3901,4.3592,4.4365,4.4442,4.5023,4.6422,4.6693,4.7502,4.9165,5.0012,5.0902,5.1877,5.2767,5.3227,5.3227,5.3308,5.3274,5.3088,5.3282,5.3324,5.3255,5.341,5.341,5.3259,5.3483,5.3515,5.3325,5.3579,5.3643,5.3566,5.3449,5.3333,5.3177,5.2335,5.0592,4.861,4.861,4.8108,4.7567,4.8263,4.7947,4.7442,4.8105,4.9415,5.0739,5.1004,5.2222,5.3903,5.5712,5.6741,5.7695,5.9264,5.8587,5.8318,0.0,6.2122,6.2465,6.3425,6.5013,6.6446,6.7266,6.8202,6.9639,7.1969,7.2486,7.3132,7.48,7.5105,7.5432,7.6245,7.6491,7.6588,7.6596,7.6674,7.6713,7.6713,7.6713,7.6713,7.6713,7.6713,7.6674,7.6596,7.6588,7.6549,7.6441,7.6529,7.6208,7.5491,7.6357,7.5985,7.449,7.4489,7.4062,7.3192,7.1557,7.0311,6.9336,6.8437,6.8008,6.7812,6.707,6.6679,6.6406,6.4765,6.3672,6.3008,4.1666,4.258,4.3204,4.3357,4.4403,4.521,4.5229,4.5232,4.5232,4.5232,4.4923,4.4842,4.5182,4.5746,4.6738,4.8465,4.8624,4.9126,5.0322,5.1177,5.1834,5.2186,5.354,5.4,5.3502,5.4,5.4,5.3502,5.4,5.4271,5.4271,5.4735,5.4697,5.4275,5.4772,5.4746,5.4324,5.482,5.4758,5.4335,5.4335,5.4025,5.3483,5.263,5.1622,5.0713,5.083,5.033,0.0,5.0602,5.0272,4.9614,4.9965,5.0481,5.1311,5.2972,5.3916,5.4919,5.7159,5.8389,5.9177,5.9878,5.9867,6.0294,6.2734,6.3704,6.4425,6.5729,6.7348,6.8781,6.9634,7.0525,7.1765,7.3819,7.4131,7.453,7.5775,7.589,7.5995,7.6433,7.6521,7.6555,7.6673,7.6682,7.6682,7.6682,7.6682,7.6682,7.6682,7.6682,7.6682,7.6682,7.6667,7.6667,7.6682,7.6719,7.6589,7.6349,7.6805,7.6696,7.6054,7.5546,7.457,7.3201,7.1444,7.0507,7.0078,6.9258,6.8906,6.8828,6.7969,6.7656,6.7461,6.5703,6.4844,6.4453,4.2013,4.2682,4.3452,4.4549,4.5259,4.5699,4.5684,4.5684,4.5684,4.5684,4.5684,4.5877,4.6371,4.7441,4.8442,4.922,4.9521,4.9796,5.0202,5.1436,5.229,5.2535,5.4194,5.4851,5.4194,5.4813,5.4813,5.4194,5.4813,5.5122,5.5122,5.5737,5.5698,5.5161,5.5737,5.5659,5.5161,5.5737,5.5659,5.5122,5.5122,5.4735,5.4078,5.296,5.2728,5.2884,5.2586,5.1951,5.1369,5.2212,5.2083,5.1541,5.1499,5.1737,5.2521,5.5087,5.6096,5.6822,5.8884,5.9739,6.0126,6.0566,6.1294,6.2336,6.4075,6.5314,6.6496,6.7903,6.9357,7.0639,7.1485,7.2375,7.3419,7.4883,7.5309,7.5662,7.6326,7.6403,7.6403,7.6403,7.6403,7.6472,7.6589,7.6604,7.6604,7.6604,7.6604,7.6604,7.6604,7.6604,7.6604,7.6604,7.6568,7.6594,7.6682,7.6656,7.6748,7.6946,7.6991,7.7099,7.7187,7.6289,7.4961,7.3242,7.1953,7.1289,7.0976,7.0117,6.9765,6.9687,6.8867,6.8555,6.8398,6.6875,6.6015,6.5508,0.0,4.3085,4.3628,4.5287,4.5599,4.5629,4.5673,4.5684,4.5684,4.5684,4.5684,4.6344,4.8042,4.9702,5.0066,4.8485,4.9062,4.9225,4.8504,5.075,5.2524,5.342,5.5084,5.593,5.593,5.593,5.593,5.593,5.593,5.5969,5.5969,5.6008,5.6008,5.5969,5.6008,5.6008,5.5969,5.6008,5.6008,5.5969,5.5969,5.593,5.5737,5.4078,5.4,5.4528,5.2952,5.1844,5.1242,5.2193,5.2499,5.2464,5.2454,5.3578,5.5223,5.7063,5.8761,6.0232,6.1106,6.0681,6.0351,6.1958,6.298,6.4068,6.5726,6.7462,6.8932,6.9749,7.0639,7.1529,7.2413,7.3264,7.411,7.496,7.5817,7.6365,7.6403,7.6403,7.6403,7.6403,7.6403,7.6403,7.6415,7.6415,7.6415,7.6415,7.6415,7.6415,7.6415,7.6415,7.6415,7.6415,7.6409,7.6477,7.66,7.6728,7.6856,7.6983,7.7143,7.7187,7.7187,7.6289,7.4961,7.3281,7.3242,7.2734,7.1875,7.1015,7.0664,7.0586,6.9765,6.9453,6.9336,6.8437,6.7031,6.5586,0.0,0.0,4.4244,4.5398,4.5594,4.5603,4.5633,4.5637,4.583,4.6399,4.7443,0.0,0.0,0.0,0.0,0.0,5.1558,5.1674,5.0898,5.2661,5.3626,5.3374,5.4455,5.5353,5.5998,5.5998,5.6016,5.6008,5.6008,5.6008,5.6008,5.6008,5.6008,5.6008,5.6008,5.6008,5.6008,5.6008,5.6317,5.682,5.624,5.6356,5.6743,5.5582,5.5041,5.4886,0.0,5.4083,5.3046,5.3988,5.3893,5.3536,5.4077,5.4605,5.5416,5.7076,5.9586,6.1648,6.067,6.141,6.2712,6.3835,6.4754,6.5958,6.8202,6.9169,6.9821,7.0678,7.1103,7.1756,7.3187,7.369,7.4347,7.574,7.6204,7.6403,7.6403,7.6403,7.6403,7.6403,7.6403,7.6403,7.6403,7.6403,7.6403,7.6403,7.6945,7.7254,7.7254,7.779,7.8181,7.8263,7.8268,7.8051,7.7594,7.7721,7.7547,7.6984,7.7143,7.7187,7.7187,7.6289,7.5586,7.4961,7.3789,7.3125,7.2773,7.1914,7.1562,7.1484,7.0625,7.0312,7.0117,6.8711,6.7812,6.7226,0.0,0.0,0.0,4.6283,4.6244,0.0,0.0,0.0,0.0,0.0,0.0,0.0,0.0,0.0,0.0,0.0,0.0,5.2169,5.1661,5.319,5.4154,5.4246,5.4786,5.561,5.6835,5.6256,5.6116,5.6418,5.6109,5.5964,5.5981,5.5981,5.599,5.6008,5.6008,5.6008,5.6008,5.6008,5.6317,5.682,5.6549,5.682,5.725,5.6745,5.641,0.0,5.6708,5.6122,5.5194,5.5211,5.5066,5.4907,5.5117,5.5616,5.6468,5.841,6.033,6.1765,6.1836,6.2969,6.445,6.561,6.6727,6.8009,6.9633,7.0252,7.0523,7.0794,7.1065,7.1562,7.2375,7.3264,7.4231,7.5314,7.6016,7.6403,7.6403,7.6403,7.6403,7.6403,7.6403,7.6403,7.6403,7.6438,7.6455,7.6409,7.7216,7.7715,7.7766,7.8585,7.9116,7.9279,7.9283,7.9084,7.8623,7.8407,7.7893,7.7051,7.7146,7.7187,7.7187,7.6601,7.6172,7.5859,7.4726,7.3867,7.3242,7.2695,7.2265,7.1953,7.1367,7.1172,7.1015,6.9609,6.9101,6.8867,0.0,0.0,0.0,0.0,0.0,0.0,0.0,0.0,0.0,0.0,0.0,0.0,0.0,0.0,0.0,0.0,0.0,0.0,5.0905,5.2454,5.4111,5.5774,5.5851,5.6661,5.8287,5.6821,5.6435,5.725,5.644,5.6078,5.613,5.613,5.6118,5.6124,5.6124,5.6124,5.6124,5.6124,5.6167,5.6257,5.7065,5.7379,5.7448,5.7582,5.8104,5.8647,5.8136,5.7861,5.7553,5.5975,5.6015,5.6601,5.5742,5.668,5.8555,6.0976,6.106,6.1101,6.44,6.5265,6.5586,6.723,6.8816,7.002,7.0059,7.0678,7.0987,7.0136,7.0639,7.0987,7.0098,7.2104,7.3883,7.3883,7.5314,7.6403,7.6442,7.6481,7.6481,7.6519,7.6531,7.6537,7.6537,7.6662,7.6701,7.6577,7.7328,7.7854,7.8021,7.885,7.94,7.9547,7.9553,7.9566,7.9685,7.8786,7.795,7.7265,7.7226,7.7187,7.7187,7.7187,7.6758,7.5976,7.5937,7.4961,7.3437,7.3398,7.2851,7.207,7.207,7.2031,7.1875,7.1015,7.0703,7.0351,0.0,0.0,0.0,0.0,0.0,0.0,0.0,0.0,0.0,0.0,0.0,0.0,0.0,0.0,0.0,0.0,0.0,0.0,5.2622,5.3613,5.4388,5.4821,5.5437,5.6267,5.742,5.7613,5.7827,5.8099,5.7862,5.7815,5.7863,5.7863,5.7896,5.795,5.795,5.795,5.795,5.795,5.8337,5.8954,5.8531,5.8794,5.9471,5.9501,5.9285,5.8988,5.9488,5.9281,5.867,5.7578,5.7812,5.8515,5.8281,5.9375,6.0859,6.1433,6.2776,6.421,6.495,6.6512,6.8123,6.9133,6.9672,7.0175,7.0833,7.0639,7.0098,6.928,6.9744,7.0098,6.928,7.1717,7.3883,7.3883,7.5314,7.6635,7.7293,7.737,7.7597,7.8254,7.8424,7.8486,7.8486,7.8618,7.8656,7.866,7.8847,7.9251,7.9877,8.0734,8.1262,8.1405,8.1407,8.1169,8.0661,7.9176,7.8358,7.8164,7.75,7.7187,7.7187,7.7187,7.707,7.6836,7.6172,7.5664,7.5195,7.4531,7.375,7.2969,7.2969,7.2578,7.1875,7.1015,7.0703,7.0508,0.0,0.0,0.0,0.0,0.0,0.0,0.0,0.0,0.0,0.0,0.0,0.0,0.0,0.0,0.0,0.0,0.0,0.0,0.0,5.4241,5.4818,5.5555,5.6016,5.6681,5.7593,5.7676,5.7769,5.7801,5.7801,5.7827,5.7877,5.8283,5.8481,5.8572,5.8599,5.8608,5.8613,5.8617,5.8936,0.0,0.0,5.9693,6.0255,6.0644,6.0524,6.0202,6.0726,6.0147,5.9056,5.8547,5.8704,5.9251,5.9993,6.0935,6.1992,6.3509,6.4626,6.5681,6.7052,6.843,6.9657,7.0382,7.0291,7.0136,7.0639,7.0092,6.9241,6.839,6.9164,6.9517,6.7965,7.0789,7.3187,7.28,7.4502,7.6281,7.7519,7.7733,7.8108,7.8961,7.9191,7.9302,7.9302,7.9394,7.9615,8.0005,7.9959,8.0149,8.0666,8.1521,8.2031,8.217,8.2171,8.1828,8.1015,8.0078,7.9219,7.8476,7.8008,7.7578,7.7187,7.7187,7.7187,7.7187,7.668,7.625,7.5859,7.5351,7.4648,7.3867,7.3867,7.3359,7.25,7.2031,7.1601,7.1211,0.0,0.0,0.0,0.0,0.0,0.0,0.0,0.0,0.0,5.0592,5.1395,5.1923,5.2038,5.2851,0.0,0.0,0.0,0.0,0.0,0.0,5.5362,5.6945,5.7093,5.7594,5.8434,5.7709,5.7324,5.7324,5.7209,5.7198,5.7284,5.8035,5.8432,5.8486,5.8586,5.8583,5.8613,5.8686,5.8765,5.9006,5.9844,6.0276,6.0488,0.0,6.1614,6.1618,6.1678,6.0619,5.9184,5.9291,5.9255,5.9458,6.1098,6.1864,6.2812,6.5976,6.6438,6.6596,6.9584,7.0412,7.0541,7.1167,7.0639,6.9982,6.9982,6.928,6.8385,6.7501,6.8584,6.8937,6.6495,6.9435,7.2065,7.1407,7.3342,7.5618,7.7597,7.8,7.8444,7.9415,7.9668,7.9762,7.9762,7.9888,8.024,8.0943,8.0885,8.0874,8.0979,8.1721,8.2169,8.2304,8.2304,8.1953,8.1172,8.1054,8.0195,7.8672,7.8555,7.8047,7.7187,7.7187,7.7187,7.7187,7.7187,7.6758,7.6055,7.6055,7.5547,7.4765,7.4765,7.4258,7.3476,7.3476,7.293,7.2187,0.0,0.0,0.0,0.0,0.0,0.0,0.0,0.0,0.0,0.0,5.1395,5.2159,5.289,5.3741,0.0,0.0,0.0,0.0,0.0,0.0,0.0,5.6945,5.7703,5.8473,5.9281,5.9127,5.905,5.905,5.8396,5.8083,5.8104,5.8305,5.8437,5.8496,5.8586,5.8647,5.869,5.8718,5.921,6.0052,6.022,6.0756,6.1442,6.1639,6.1678,0.0,6.1719,6.1009,6.0155,6.0798,6.0586,6.024,6.1293,6.3115,6.5195,6.6523,6.7773,6.8937,7.0071,7.0904,7.1417,7.1319,7.0639,6.9982,6.9982,6.8816,6.7501,6.6611,6.723,6.7384,6.5533,6.8086,7.0639,7.1219,7.2877,7.5198,7.8332,7.8897,7.9532,8.1077,8.1496,8.1611,8.1611,8.1742,8.1874,8.203,8.2028,8.2027,8.203,8.2186,8.2265,8.2304,8.2304,8.2226,8.207,8.1367,8.0508,7.9492,7.8828,7.8047,7.7187,7.7187,7.7187,7.7187,7.7187,7.7109,7.6953,7.6953,7.6445,7.5664,7.5664,7.5156,7.4375,7.4375,7.3828,7.3086,0.0,0.0,0.0,0.0,0.0,0.0,0.0,4.8856,4.9856,5.1164,5.1659,5.2236,5.3082,5.4357,5.5285,0.0,0.0,0.0,0.0,0.0,0.0,5.7627,5.8088,5.8467,5.8858,5.9281,5.9281,5.889,0.0,5.8996,5.899,5.9498,5.978,5.9771,5.9436,5.9271,5.932,5.8933,5.937,6.0236,6.0331,6.0895,6.1719,6.1719,6.1678,0.0,6.1679,6.1079,6.0382,6.1156,6.1484,6.1792,6.312,6.4468,6.6015,6.8242,6.9411,7.0246,7.1385,7.2306,7.2742,7.2112,7.0672,6.9396,6.9396,6.7733,6.6185,6.6185,6.6882,6.6998,6.5301,6.7738,7.0136,7.0562,7.2452,7.5128,7.8628,7.9213,7.9934,8.1714,8.2088,8.2215,8.2215,8.2264,8.2304,8.2304,8.2304,8.2304,8.2304,8.2304,8.2304,8.2304,8.2304,8.2304,8.2304,8.1875,8.125,8.0351,7.9531,7.8672,7.7851,7.7422,7.7187,7.7187,7.7187,7.7187,7.7187,7.7187,7.6953,7.6562,7.6562,7.6055,7.5273,7.5273,7.4453,7.328,0.0,0.0,0.0,0.0,0.0,0.0,4.8082,4.8856,4.9933,5.1467,5.1774,5.2236,5.3082,5.4549,5.5516,0.0,0.0,0.0,0.0,0.0,0.0,0.0,5.855,5.8621,5.8813,0.0,0.0,5.8567,5.9078,0.0,0.0,0.0,0.0,0.0,5.9664,5.9361,5.934,5.8838,5.9129,0.0,0.0,6.0937,6.1719,0.0,0.0,0.0,0.0,6.1352,6.065,6.1428,6.2013,6.2767,6.4449,6.5644,6.6873,6.9414,7.0457,7.1068,7.2308,7.3034,7.3294,7.2512,7.0402,6.8578,6.8772,6.6843,6.5223,6.6031,6.6727,6.6804,6.5494,6.7544,6.9633,7.0175,7.2336,7.5094,7.8456,7.9336,8.0209,8.1659,8.2101,8.2304,8.2304,8.2304,8.2304,8.2304,8.2304,8.2304,8.2304,8.2304,8.2304,8.2304,8.2304,8.2304,8.2304,8.2304,8.1875,8.0976,8.0117,7.9297,7.8476,7.7617,7.7187,7.7187,7.7187,7.7187,7.7187,7.7187,7.7187,7.7187,7.7187,7.6797,7.6172,7.6172,7.5195,7.3825,0.0,0.0,0.0,0.0,0.0,0.0,4.8005,4.8856,4.9745,5.0707,5.1467,5.2236,5.3082,5.4049,5.4895,0.0,0.0,0.0,0.0,0.0,0.0,0.0,0.0,0.0,0.0,0.0,0.0,5.9474,5.8753,0.0,0.0,0.0,0.0,0.0,0.0,5.7567,5.7634,5.7707,0.0,0.0,0.0,0.0,0.0,0.0,0.0,0.0,0.0,6.2304,6.1675,6.2368,6.2173,6.1969,6.3522,6.6305,6.8882,6.8514,6.9951,7.1699,7.1809,7.176,7.1672,7.1466,6.9512,6.7849,6.8617,6.6843,6.5223,6.6031,6.6263,6.6263,6.6108,6.6998,6.8506,7.0789,7.2723,7.4856,7.7631,7.9449,8.0597,8.0878,8.1749,8.2304,8.2304,8.2304,8.2304,8.2304,8.2304,8.2304,8.2304,8.2304,8.2304,8.2304,8.2304,8.2304,8.2304,8.2304,8.1875,8.0976,8.0117,7.9297,7.8476,7.7617,7.7187,7.7187,7.7187,7.7187,7.7187,7.7187,7.7187,7.7187,7.7187,7.7148,7.707,7.707,7.6484,7.5543,0.0,0.0,0.0,0.0,0.0,0.0,4.7966,4.8856,5.0087,5.1972,5.2043,5.262,5.4511,5.4587,5.4818,5.5631,0.0,0.0,0.0,0.0,0.0,0.0,0.0,0.0,0.0,0.0,6.0437,6.0459,6.0115,0.0,0.0,0.0,0.0,0.0,0.0,5.8896,5.894,5.8566,0.0,0.0,0.0,0.0,0.0,0.0,0.0,0.0,0.0,0.0,6.2356,6.2611,6.2803,6.2852,6.2527,6.4413,6.6924,6.7823,6.9051,7.0392,7.1466,7.2337,7.271,7.1673,6.9501,6.7713,6.8062,6.6209,6.4779,6.6036,6.6325,6.629,6.621,6.7346,6.8932,7.0982,7.2761,7.4668,7.6824,7.8197,7.9267,7.9982,8.0873,8.1632,8.2226,8.2304,8.2304,8.2304,8.2304,8.2304,8.2304,8.2304,8.2304,8.2304,8.2304,8.2304,8.2304,8.2304,8.2148,8.1758,8.0351,7.9531,7.918,7.7812,7.7187,7.7187,7.7187,7.7187,7.7187,7.7187,7.7187,7.7186,7.7186,7.7185,7.7144,7.7144,7.6594,7.5727,0.0,0.0,0.0,0.0,0.0,4.7274,4.8317,4.9009,5.0202,5.2505,5.2274,5.2774,5.5088,5.4857,5.4939,5.5978,5.5862,0.0,0.0,0.0,0.0,0.0,0.0,0.0,0.0,0.0,6.1003,6.1018,6.0982,6.1012,0.0,0.0,6.1118,6.1079,0.0,0.0,0.0,0.0,0.0,0.0,0.0,0.0,0.0,0.0,0.0,0.0,0.0,0.0,0.0,0.0,0.0,6.3278,6.2129,6.2777,6.4387,6.6325,6.7777,6.898,7.0323,7.1547,7.2158,7.1021,6.9185,6.7701,6.7705,6.6192,6.5083,6.615,6.6388,6.6376,6.6225,6.7617,6.928,7.0672,7.2607,7.4513,7.6358,7.755,7.8695,7.9824,8.0462,8.1185,8.2187,8.2304,8.2304,8.2304,8.2304,8.2304,8.2304,8.2304,8.2304,8.2304,8.2304,8.2304,8.2304,8.2304,8.2304,8.2265,8.0547,7.9687,7.9648,7.7969,7.7187,7.7187,7.7187,7.7187,7.7187,7.7187,7.7185,7.7182,7.7182,7.7141,7.7098,7.7098,7.6702,7.6067,0.0,0.0,0.0,0.0,0.0,0.0,4.9125,4.9394,5.001,5.1692,5.1923,5.2582,5.4318,5.4511,5.517,5.6824,5.6209,0.0,0.0,0.0,0.0,0.0,0.0,0.0,0.0,0.0,6.0985,6.1002,6.1002,6.1032,6.1113,6.1118,6.1118,6.1079,0.0,0.0,0.0,0.0,0.0,0.0,0.0,0.0,6.3086,0.0,0.0,0.0,0.0,0.0,0.0,0.0,0.0,0.0,0.0,6.2067,6.1839,6.3783,6.5978,6.7867,6.7985,6.8499,6.8948,6.8909,6.8299,6.7682,6.7709,6.7133,6.6532,6.6425,6.6388,6.6376,6.6225,6.7617,6.9087,6.9865,7.2181,7.4546,7.6345,7.809,7.9586,8.0674,8.0807,8.1183,8.2187,8.2304,8.2304,8.2304,8.2304,8.2304,8.2304,8.2304,8.2304,8.2304,8.2304,8.2304,8.2304,8.2304,8.2304,8.2265,8.0547,7.9687,7.9648,7.7969,7.7187,7.7187,7.7186,7.7184,7.7184,7.714,7.7098,7.7098,7.7098,7.7098,7.7098,7.7098,7.7093,7.6966,0.0,0.0,0.0,0.0,0.0,0.0,4.9472,5.0164,5.095,5.2026,5.2693,5.3511,5.4668,5.5296,5.6351,5.8019,5.723,0.0,0.0,0.0,0.0,0.0,0.0,0.0,0.0,6.1235,6.1267,6.1213,6.1213,6.1156,6.1079,6.1173,6.1203,6.1089,6.0981,6.0936,0.0,0.0,0.0,0.0,6.3437,6.4258,6.4805,0.0,0.0,0.0,0.0,0.0,0.0,0.0,0.0,0.0,0.0,0.0,0.0,6.4096,6.5177,6.6463,6.7762,6.8596,6.8927,6.8427,6.766,6.7034,6.7036,6.6434,6.6067,6.6512,6.7024,6.7314,6.723,6.8525,7.0092,7.1523,7.2955,7.4492,7.6233,7.754,7.8925,8.0555,8.1917,8.2614,8.2344,8.2304,8.2304,8.2304,8.2304,8.2304,8.2304,8.2304,8.2304,8.2304,8.2304,8.2304,8.2304,8.2304,8.2304,8.2265,8.0547,7.9687,7.9647,7.7967,7.7185,7.7143,7.7141,7.7141,7.714,7.7099,7.7095,7.7089,7.7089,7.7084,7.7115,7.7115,7.7112,7.6991,0.0,0.0,0.0,0.0,0.0,0.0,5.013,5.0734,5.14,5.2173,5.3073,5.3932,5.4783,5.5958,5.7209,5.8568,5.8411,0.0,0.0,0.0,0.0,0.0,0.0,0.0,6.1214,6.1326,6.138,6.1346,6.1346,6.1301,6.1209,6.1305,6.1298,6.1213,6.1351,6.1433,0.0,0.0,0.0,0.0,6.3828,6.4414,6.4687,0.0,0.0,0.0,0.0,0.0,0.0,0.0,0.0,0.0,0.0,0.0,0.0,0.0,6.5067,6.5729,6.6913,6.7706,6.8063,6.7607,6.7342,6.7105,6.6756,6.6632,6.66,6.669,6.7074,6.7465,6.7669,6.8743,7.006,7.1455,7.2396,7.3756,7.6206,7.7053,7.8229,8.0485,8.2441,8.3125,8.1914,8.2109,8.2304,8.2304,8.2304,8.2304,8.2304,8.2304,8.2304,8.2304,8.2304,8.2304,8.2304,8.2304,8.2304,8.2265,8.0546,7.9686,7.9643,7.7924,7.7141,7.7098,7.7095,7.7093,0.0,7.7089,7.7083,7.7115,7.7115,7.711,7.7101,7.7101,7.7101,7.7023,0.0,0.0,0.0,0.0,0.0,0.0,0.0,5.1117,5.139,5.2123,5.3062,5.392,5.4733,5.6378,5.7785,5.8678,5.9599,0.0,0.0,0.0,0.0,0.0,0.0,0.0,6.131,6.1458,6.1509,6.1502,6.1502,6.1497,6.149,6.1458,6.1419,6.1412,6.1426,6.1478,0.0,0.0,0.0,0.0,6.3633,6.3867,0.0,0.0,0.0,0.0,0.0,0.0,0.0,0.0,0.0,0.0,0.0,0.0,0.0,0.0,0.0,0.0,0.0,6.6203,6.6723,6.6723,6.731,6.77,6.6918,6.7453,0.0,6.6928,6.676,6.703,6.7754,6.8498,6.9344,7.0417,7.1038,7.2672,7.6378,7.694,7.7945,8.0527,8.2454,8.2929,8.125,8.1836,8.2304,8.2304,8.2304,8.2304,8.2304,8.2304,8.2304,8.2304,8.2226,8.2226,8.2226,8.2265,8.2226,8.2106,8.0465,7.9681,7.9557,7.7879,7.7097,7.7096,7.7087,7.7082,7.7081,7.7107,7.7101,7.7101,7.7101,7.7101,7.7101,7.7101,7.7101,7.7101,0.0,0.0,0.0,0.0,0.0,0.0,0.0,0.0,0.0,0.0,5.2957,5.3973,5.4206,5.6356,5.8113,0.0,0.0,0.0,0.0,0.0,0.0,0.0,0.0,0.0,6.1541,6.2245,6.2598,6.2562,6.2562,6.2496,6.2394,6.1834,6.1517,6.1419,6.157,6.1635,0.0,0.0,0.0,0.0,6.414,6.457,0.0,0.0,0.0,0.0,6.4062,6.3867,0.0,0.0,0.0,0.0,0.0,0.0,0.0,0.0,6.6054,6.6601,6.6601,0.0,6.6834,6.6834,6.7029,6.7107,0.0,6.7031,6.7148,6.6912,6.7287,6.815,6.9641,6.9925,7.086,7.3789,7.3247,7.3712,7.7287,7.9513,8.0834,8.0931,8.2538,8.3164,8.2109,8.2187,8.2304,8.2304,8.2304,8.2304,8.2304,8.2304,8.2304,8.2303,8.1639,8.1327,8.1328,8.1952,8.1638,8.0309,7.9915,7.9361,7.8689,7.7595,7.7083,7.7111,7.7108,7.7107,7.7107,7.7103,7.7101,7.7101,7.7101,7.7101,7.7101,7.7101,7.7101,7.7101,0.0,0.0,0.0,0.0,0.0,0.0,0.0,0.0,0.0,0.0,5.293,5.3984,5.3984,5.6328,5.8242,0.0,0.0,0.0,0.0,0.0,0.0,0.0,0.0,6.1239,6.163,6.2147,6.2382,6.2334,6.2334,6.2129,6.1636,6.1231,6.0995,6.0974,6.148,6.1719,0.0,0.0,6.3281,6.375,6.414,0.0,0.0,0.0,0.0,0.0,6.293,6.2812,0.0,6.3867,6.347,6.2707,0.0,0.0,0.0,0.0,6.5625,6.6289,6.6289,6.6601,6.6914,6.6914,6.6914,6.6914,6.6914,6.6914,6.6914,6.6914,6.7222,6.8028,6.9687,7.0199,7.1274,7.395,7.3868,7.4415,7.7183,8.0582,8.2335,8.1133,8.2539,8.3242,8.2383,8.2304,8.2304,8.2304,8.2304,8.2304,8.2304,8.2303,8.2301,8.2298,8.1829,8.1401,8.1013,8.1089,8.0617,7.9715,7.9281,7.8844,7.8364,7.7504,7.711,7.7101,7.7101,7.7101,7.7101,7.7101,7.7101,7.7101,7.7101,7.7101,7.7101,7.7101,7.7101,7.7101,0.0,0.0,0.0,0.0,0.0,0.0,0.0,0.0,0.0,0.0,0.0,0.0,0.0,0.0,0.0,0.0,0.0,0.0,0.0,0.0,0.0,0.0,6.0976,6.0898,6.1484,6.1758,6.1836,6.1719,6.1836,6.1523,6.0781,6.0664,6.0586,6.0625,6.1367,6.1758,6.1953,6.2812,6.3281,6.3437,6.4062,0.0,0.0,0.0,0.0,0.0,0.0,0.0,0.0,6.3398,6.2376,6.1026,6.4061,0.0,0.0,0.0,0.0,0.0,6.5742,6.625,6.6719,6.6875,6.6914,6.6914,6.6914,6.6914,6.6914,6.6914,6.6914,6.7498,6.935,7.0195,7.1287,7.3405,7.4261,7.5181,7.6645,8.0308,8.2265,8.0781,8.2148,8.289,8.2187,8.2226,8.2304,8.2304,8.2302,8.2301,8.2301,8.2296,8.2292,8.229,8.2056,8.1547,8.0804,8.0181,7.9709,7.9309,7.8683,7.8325,7.8196,7.7453,7.7101,7.7101,7.7101,7.7101,7.7101,7.7101,7.7101,7.7101,7.7101,7.7101,7.7101,7.7101,7.7101,7.7101,0.0,0.0,0.0,0.0,0.0,0.0,0.0,0.0,0.0,0.0,0.0,0.0,0.0,0.0,0.0,0.0,0.0,0.0,0.0,0.0,0.0,6.1719,6.1562,6.1211,6.0625,6.2031,6.2422,6.1719,6.2422,6.2734,6.2578,6.1836,6.1484,6.1523,6.164,6.2109,6.2851,6.3711,6.4531,6.5156,6.4531,0.0,0.0,0.0,0.0,0.0,0.0,0.0,0.0,6.1992,6.179,6.1496,6.2108,0.0,0.0,0.0,0.0,0.0,6.6289,6.625,6.5976,6.6719,6.6914,6.6914,6.6914,6.6914,6.6914,6.6914,6.6914,6.7851,7.1015,7.1038,7.1924,7.5935,7.6677,7.6598,7.6132,7.7929,7.918,7.8906,8.0351,8.1367,8.1209,8.1873,8.2301,8.2296,8.2295,8.2294,8.2294,8.2293,8.2289,8.2318,8.0873,8.0048,7.9919,8.0517,7.9701,7.7512,7.8126,7.8002,7.7296,7.7179,7.7101,7.7101,7.7101,7.7101,7.7101,7.7101,7.7101,7.7101,7.7101,7.7101,7.7101,7.7101,7.7101,7.7101,0.0,0.0,0.0,0.0,0.0,0.0,0.0,0.0,0.0,0.0,0.0,0.0,0.0,0.0,0.0,0.0,0.0,0.0,0.0,6.1445,6.1484,6.1015,6.1015,6.082,6.039,6.1172,6.1406,6.1015,6.1406,6.1601,6.1601,6.1172,6.1015,6.1055,6.1992,6.2617,6.3086,6.4414,6.5234,6.5586,0.0,0.0,0.0,0.0,0.0,0.0,0.0,0.0,0.0,0.0,6.1756,6.1127,6.2109,0.0,0.0,0.0,0.0,0.0,6.5156,6.5547,6.5703,6.6094,6.6562,6.6914,6.6914,6.6914,6.6914,6.6914,6.6914,6.7812,7.0742,7.0935,7.1947,7.5859,7.7305,7.7617,7.6719,7.8086,7.8984,7.8555,7.957,8.0467,8.0935,8.1362,8.1788,8.2254,8.1858,8.1582,8.1582,8.1616,8.1375,8.0898,8.0586,7.9958,7.9014,7.9374,7.8752,7.7111,7.7496,7.7492,7.7101,7.7101,7.7101,7.7101,7.7101,7.7101,7.7101,7.7101,7.7101,7.7101,7.7101,7.7101,7.7101,7.7101,7.7101,7.7101,0.0,0.0,0.0,0.0,0.0,0.0,0.0,0.0,0.0,0.0,0.0,0.0,0.0,0.0,0.0,0.0,0.0,0.0,0.0,6.1211,6.1406,6.0742,6.0508,6.0234,5.9805,6.0195,6.0312,6.0117,6.0508,6.082,6.1015,6.1015,6.1015,6.1094,6.2617,6.3281,6.3398,6.4961,6.5703,6.5898,0.0,0.0,0.0,0.0,0.0,0.0,0.0,0.0,0.0,0.0,0.0,0.0,0.0,0.0,0.0,6.1484,6.2187,6.293,6.4023,6.4805,6.5351,6.5547,6.6094,6.664,6.6836,6.6914,6.6992,6.7383,6.75,6.8281,7.0859,7.1797,7.3086,7.5781,7.7305,7.7969,7.7304,7.832,7.8867,7.8241,7.8904,7.9644,8.0345,8.0574,8.1078,8.1935,8.1184,8.0789,8.0984,8.0817,8.0381,7.9717,8.0146,7.9757,7.8391,7.8196,7.7765,7.7101,7.7101,7.7101,7.7101,7.7101,7.7101,7.7101,7.7101,7.7101,7.7101,7.7101,7.7101,7.7101,7.7101,7.7101,7.7101,7.7101,7.7101,7.7101,0.0,0.0,0.0,0.0,0.0,0.0,0.0,0.0,0.0,0.0,0.0,0.0,0.0,0.0,0.0,0.0,0.0,0.0,0.0,6.1211,6.168,6.1601,6.082,5.9687,5.8125,5.9609,6.0039,5.9297,6.0859,6.2031,6.2812,6.2812,6.2812,6.2851,6.3789,6.4219,6.4258,6.5195,6.6055,6.6758,6.5937,0.0,0.0,0.0,0.0,0.0,0.0,0.0,0.0,0.0,0.0,0.0,0.0,0.0,6.1601,6.168,6.1758,6.2148,6.3828,6.4336,6.4609,6.539,6.5664,6.5898,6.6719,6.6914,6.7344,6.8906,6.9258,7.0078,7.2656,7.5117,7.6797,7.707,7.7226,7.7265,7.7224,7.7302,7.7339,7.7217,7.7959,7.8502,7.8569,7.931,8.0164,8.1011,8.0305,8.0148,8.0969,8.0224,7.9756,7.9717,7.8975,7.8547,7.8391,7.7609,7.7179,7.7101,7.7101,7.7101,7.7101,7.7101,7.7101,7.7101,7.7101,7.7101,7.7101,7.7101,7.7101,7.7101,7.7101,7.7101,7.7101,7.7101,7.7101,7.7101,0.0,0.0,0.0,0.0,0.0,0.0,0.0,0.0,0.0,0.0,0.0,5.6601,5.6601,0.0,0.0,0.0,0.0,0.0,5.9609,6.043,6.0898,6.0898,6.0586,5.9883,5.8711,5.9336,5.9765,5.9961,6.168,6.2109,6.1406,6.3047,6.293,6.1484,6.3437,6.3984,6.3594,6.5,6.5781,6.6094,6.6328,6.5547,0.0,0.0,0.0,0.0,0.0,0.0,0.0,0.0,6.1719,6.1719,6.1719,6.1719,6.1719,6.1719,6.1719,6.1953,6.3164,6.3906,6.4101,6.3359,6.3984,6.5156,6.6562,6.6484,6.6875,6.9648,6.9805,7.0078,7.2108,7.5078,7.7031,7.6483,7.6835,7.7186,7.7184,7.7143,7.714,7.7099,7.7406,7.7791,7.8331,7.8716,7.9256,8.0146,7.9366,7.9055,7.9367,7.9055,7.8624,7.8116,7.8272,7.8157,7.7609,7.7257,7.7101,7.7101,7.7101,7.7101,7.7101,7.7101,7.7101,7.7101,7.7101,7.7101,7.7101,7.7101,7.7101,7.7101,7.7101,7.7101,7.7101,7.7101,7.7101,7.7101,0.0,0.0,0.0,0.0,0.0,0.0,0.0,0.0,5.5625,0.0,0.0,0.0,0.0,5.6836,0.0,0.0,0.0,0.0,5.875,5.957,6.0117,6.039,6.0156,6.0,6.0,5.9453,5.9609,6.039,6.1875,6.2109,6.125,6.3047,6.2773,6.0898,6.3242,6.3672,6.2695,6.4453,6.5195,6.5234,6.5859,6.5195,0.0,0.0,0.0,0.0,0.0,0.0,0.0,0.0,6.1719,6.1719,6.1719,6.1719,6.1719,6.1719,6.1719,6.1836,6.2422,6.3437,6.3945,6.2461,6.3203,6.4844,6.6836,6.664,6.6992,7.039,7.1054,7.1406,7.2616,7.4999,7.6601,7.6013,7.6637,7.7183,7.718,7.7137,7.7093,7.709,7.7083,7.7311,7.7935,7.8005,7.835,7.9209,7.8468,7.8118,7.8391,7.8157,7.7726,7.7101,7.7687,7.7687,7.7101,7.7101,7.7101,7.7101,7.7101,7.7101,7.7101,7.7101,7.7101,7.7101,7.7101,7.7101,7.7101,7.7101,7.7101,7.7101,7.7101,7.7101,7.7101,7.7101,7.7101,7.7101,0.0,0.0,0.0,0.0,0.0,0.0,0.0,0.0,5.5625,5.6484,5.7344,0.0,0.0,0.0,0.0,0.0,0.0,0.0,5.789,5.8711,5.9531,6.0351,5.9648,6.0,6.164,6.0078,5.9609,6.039,6.1289,6.2148,6.2969,6.3008,6.2539,6.1758,6.3515,6.332,6.1797,6.3555,6.4297,6.4297,6.4297,6.3789,6.3008,0.0,0.0,0.0,0.0,0.0,0.0,0.0,6.1719,6.1719,6.1719,6.1719,6.1719,6.1719,6.1719,6.1719,6.1719,6.2969,6.4062,6.3203,6.3633,6.4961,6.7578,6.75,6.7851,7.1328,7.3398,7.4608,7.4609,7.5312,7.5896,7.5895,7.6637,7.7181,7.7125,7.7083,7.7117,7.7103,7.7101,7.7101,7.7101,7.7101,7.7453,7.8313,7.7609,7.7492,7.8352,7.757,7.7101,7.7101,7.7101,7.7101,7.7101,7.7101,7.7101,7.7101,7.7101,7.7101,7.7101,7.7101,7.7101,7.7101,7.7101,7.7101,7.7101,7.7101,7.7101,7.7101,7.7101,7.7101,7.7101,7.7101,7.7101,7.7101,0.0,0.0,0.0,0.0,0.0,0.0,0.0,0.0,5.6328,5.6562,5.6836,0.0,0.0,0.0,0.0,0.0,0.0,0.0,5.7851,5.8125,5.8906,6.0351,6.0156,6.0547,6.168,6.1211,6.0781,6.039,6.1875,6.2109,6.1211,6.2422,6.2226,6.082,6.1953,6.2187,6.1758,6.289,6.3398,6.3437,6.4062,6.3789,6.3008,0.0,0.0,0.0,0.0,0.0,0.0,0.0,0.0,0.0,6.1719,6.2109,6.25,6.1875,6.1719,6.1719,6.1719,6.164,6.164,6.1992,6.3203,6.4648,6.6055,6.664,6.8047,7.207,7.4804,7.6249,7.5623,7.6249,7.6796,7.6751,7.6945,7.7137,7.7085,7.7115,7.7107,7.7101,7.7101,7.7101,7.7101,7.7101,7.7218,7.7453,7.7257,7.7218,7.7453,7.7257,7.7101,7.7101,7.7101,7.7101,7.7101,7.7101,7.7101,7.7101,7.7101,7.7101,7.7101,7.7101,7.7101,7.7101,7.7101,7.7101,7.7101,7.7101,7.7101,7.7101,7.7101,7.7101,7.7101,7.7101,7.7101,7.7101,0.0,0.0,0.0,0.0,0.0,0.0,5.5117,5.5742,5.6211,5.6562,5.6601,5.6601,0.0,0.0,0.0,5.6601,5.6601,0.0,5.7344,5.7383,5.8125,5.9844,5.9922,6.0312,6.1172,6.1523,6.1289,6.039,6.1797,6.1953,6.0937,6.164,6.125,5.9961,6.0469,6.0508,6.0234,6.1133,6.168,6.1992,6.2539,6.2656,6.2461,0.0,0.0,0.0,0.0,0.0,0.0,0.0,0.0,0.0,6.1719,6.207,6.2461,6.2265,6.1953,6.1797,6.2109,6.1836,6.164,6.2539,6.4023,6.5742,6.7265,6.8281,6.9844,7.3125,7.5078,7.6093,7.5934,7.6326,7.6676,7.6587,7.6858,7.709,7.7116,7.7107,7.7101,7.7101,7.7101,7.7101,7.7101,7.7101,7.7101,7.7101,7.7101,7.7101,7.7101,7.7101,7.7101,7.7101,7.7101,7.7101,7.7101,7.7101,7.7101,7.7101,7.7101,7.7101,7.7101,7.7101,7.7101,7.7101,7.7101,7.7101,7.7101,7.7101,7.7101,7.7101,7.7101,7.7101,7.7101,7.7101,7.7101,7.7101,0.0,0.0,5.1797,5.2656,0.0,0.0,5.5039,5.5312,5.5625,5.6484,5.6601,5.6562,0.0,0.0,0.0,5.6484,5.6562,5.6601,5.6601,5.6601,5.7383,5.9101,5.9336,5.9765,6.0508,6.1289,6.1328,6.0508,6.1211,6.1601,6.168,6.0664,5.9844,5.9297,5.914,5.8672,5.8086,5.8867,5.9609,6.0273,6.0273,6.0781,6.1484,6.1484,0.0,0.0,0.0,0.0,0.0,0.0,0.0,0.0,6.1719,6.1758,6.1953,6.2656,6.2305,6.1875,6.2656,6.2812,6.3047,6.4139,6.5859,6.7851,7.0273,7.1445,7.25,7.4258,7.4648,7.4998,7.5856,7.6008,7.6002,7.5913,7.6575,7.7118,7.7103,7.7101,7.7101,7.7101,7.7101,7.7101,7.7101,7.7101,7.7101,7.7101,7.7101,7.7101,7.7101,7.7101,7.7101,7.7101,7.7101,7.7101,7.7101,7.7101,7.7101,7.7101,7.7101,7.7101,7.7101,7.7101,7.7101,7.7101,7.7101,7.7101,7.7101,7.7101,7.7101,7.7101,7.7101,7.7101,7.7101,7.7101,7.7101,7.7101,0.0,0.0,5.2694,5.3553,0.0,0.0,5.5039,5.5312,5.5625,5.6484,5.6601,5.6328,5.5664,5.6172,0.0,5.5625,5.6211,5.6601,5.6601,5.6601,5.7383,5.9101,6.0469,6.125,6.1406,6.1601,6.1601,6.1406,6.0937,6.1015,6.164,5.9453,5.9062,6.0078,5.8789,5.8476,5.8945,5.9101,5.9297,5.9453,5.9453,5.957,5.9726,5.9726,5.9726,0.0,0.0,0.0,0.0,0.0,0.0,0.0,6.1719,6.2187,6.2617,6.2148,6.1836,6.1758,6.1914,6.1484,6.1678,6.4609,6.7617,7.0195,7.1445,7.1874,7.2498,7.4256,7.5155,7.5858,7.6672,7.6869,7.6906,7.6813,7.6966,7.7118,7.7103,7.7101,7.7101,7.7101,7.7101,7.7101,7.7101,7.7101,7.7101,7.7101,7.7101,7.7101,7.7101,7.7101,7.7101,7.7101,7.7101,7.7101,7.7101,7.7101,7.7101,7.7101,7.7101,7.7101,7.7101,7.7101,7.7101,7.7101,7.7101,7.7101,7.7101,7.7101,7.7101,7.7101,7.7101,7.7101,7.7101,7.7101,7.7101,7.7101,0.0,0.0,0.0,0.0,0.0,0.0,0.0,0.0,5.6094,5.6523,5.625,5.5781,5.5351,5.5312,0.0,0.0,5.5469,5.5976,5.5976,5.6367,5.7383,5.9101,6.082,6.1719,6.1719,6.1289,6.1094,6.1094,5.9805,5.9844,6.1055,6.0156,5.9961,6.0351,5.9062,5.8789,5.914,5.832,5.8203,5.8594,5.8594,5.8828,5.9219,5.9219,5.9219,5.9258,5.9687,0.0,0.0,0.0,0.0,0.0,0.0,0.0,6.2383,6.2344,6.2304,6.2304,6.2304,6.2302,6.3002,6.6052,6.8435,7.0427,7.1716,7.1988,7.2376,7.37,7.4681,7.5503,7.6313,7.6861,7.7133,7.7116,7.7112,7.711,7.7103,7.7101,7.7101,7.7101,7.7101,7.7101,7.7101,7.7101,7.7101,7.7101,7.7101,7.7101,7.7101,7.7101,7.7101,7.7101,7.7101,7.7101,7.7101,7.7101,7.7101,7.7101,7.7101,7.7101,7.7101,7.7101,7.7101,7.7101,7.7101,7.7101,7.7101,7.7101,7.7101,7.7101,7.7101,7.7101,7.7101,7.7101,7.7101,7.7101,0.0,0.0,0.0,0.0,0.0,0.0,0.0,0.0,0.0,5.6562,5.5859,5.5234,5.5078,5.4414,5.3945,0.0,0.0,0.0,5.5273,5.625,5.7539,5.914,6.0664,6.1484,6.1484,6.0781,6.0312,6.0195,5.8789,5.8906,6.039,6.1015,6.0976,6.0351,5.957,5.9023,5.8672,5.7226,5.7031,5.7695,5.7695,5.8125,5.875,5.875,5.875,5.8789,5.8906,5.8984,5.9101,5.9922,0.0,0.0,0.0,0.0,6.1601,6.2344,6.2655,6.273,6.2575,6.351,6.5145,6.7683,6.909,7.0224,7.1668,7.2019,7.2211,7.2946,7.3889,7.4868,7.5637,7.6496,7.7118,7.7104,7.7101,7.7101,7.7101,7.7101,7.7101,7.7101,7.7101,7.7101,7.7101,7.7101,7.7101,7.7101,7.7101,7.7101,7.7101,7.7101,7.7101,7.7101,7.7101,7.7101,7.7101,7.7101,7.7101,7.7101,7.7101,7.7101,7.7101,7.7101,7.7101,7.7101,7.7101,7.7101,7.7101,7.7101,7.7101,7.7101,7.7101,7.7101,7.7101,7.7101,7.7101,7.7101,0.0,0.0,0.0,0.0,0.0,0.0,0.0,0.0,0.0,0.0,5.5859,5.5,5.4258,5.4062,5.3711,5.293,5.3672,5.4492,5.5234,0.0,0.0,5.914,6.0078,6.0586,6.0586,6.0469,6.0078,5.9375,5.914,5.9492,6.039,5.9805,5.9844,6.0351,5.957,5.8359,5.6914,5.6719,5.668,5.6758,5.6758,5.6836,5.6953,5.6953,5.6953,5.7031,5.7812,5.8086,5.8203,5.9062,5.9375,0.0,0.0,0.0,6.0581,6.0701,6.1285,6.171,6.0969,6.3038,6.6043,6.8575,7.0453,7.1707,7.1941,7.2014,7.2046,7.2163,7.346,7.4867,7.5666,7.649,7.7118,7.7104,7.7101,7.7101,7.7101,7.7101,7.7101,7.7101,7.7101,7.7101,7.7101,7.7101,7.7101,7.7101,7.7101,7.7101,7.7101,7.7101,7.7101,7.7101,7.7101,7.7101,7.7101,7.7101,7.7101,7.7101,7.7101,7.7101,7.7101,7.7101,7.7101,7.7101,7.7101,7.7101,7.7101,7.7101,7.7101,7.7101,7.7101,7.7101,7.7101,7.7101,7.7101,7.7101,0.0,0.0,0.0,0.0,0.0,0.0,0.0,0.0,0.0,0.0,0.0,5.4961,5.4101,5.3555,5.293,5.2031,5.2773,5.3633,5.4492,5.6211,5.7344,5.7734,5.9023,5.9726,5.9726,5.8789,5.8359,5.8476,5.6992,5.7695,6.039,6.0039,6.0859,6.2539,6.1719,6.0625,5.9336,5.7422,5.6328,5.582,5.5351,5.5742,5.6484,5.5508,5.6055,5.7265,5.664,5.6758,5.7305,5.8164,5.8475,5.8552,5.8982,0.0,0.0,0.0,6.1006,6.1937,6.3025,6.3379,6.4396,6.8408,6.9623,7.0215,7.1654,7.2,7.1996,7.1996,7.3016,7.4109,7.4918,7.5781,7.6524,7.7025,7.7101,7.7101,7.7101,7.7101,7.7101,7.7101,7.7101,7.7101,7.7101,7.7101,7.7101,7.7101,7.7101,7.7101,7.7101,7.7101,7.7101,7.7101,7.7101,7.7101,7.7101,7.7101,7.7101,7.7101,7.7101,7.7101,7.7101,7.7101,7.7101,7.7101,7.7101,7.7101,7.7101,7.7101,7.7101,7.7101,7.7101,7.7101,7.7101,7.7101,7.7101,7.7101,0.0,0.0,0.0,0.0,0.0,0.0,0.0,0.0,0.0,0.0,0.0,5.4726,5.4062,0.0,0.0,0.0,5.1992,5.2734,5.3594,5.5078,5.6133,5.6562,5.7851,5.8633,5.8867,5.7383,5.6797,5.7226,5.5273,5.6406,6.039,6.0625,6.2148,6.4609,6.3711,6.2344,6.0586,5.8242,5.6758,5.5898,5.5234,5.5781,5.6797,5.5742,5.6523,5.8047,5.6523,5.6367,5.6992,5.742,5.7574,5.7651,5.8273,5.8583,0.0,0.0,0.0,6.1614,6.4221,6.3679,6.3371,6.7658,6.8598,6.8954,7.0897,7.1519,7.1675,7.1675,7.2378,7.3235,7.4056,7.5073,7.601,7.6672,7.6945,7.7101,7.7101,7.7101,7.7101,7.7101,7.7101,7.7101,7.7101,7.7101,7.7101,7.7101,7.7101,7.7101,7.7101,7.7101,7.7101,7.7101,7.7101,7.7101,7.7101,7.7101,7.7101,7.7101,7.7101,7.7101,7.7101,7.7101,7.7101,7.7101,7.7101,7.7101,7.7101,7.7101,7.7101,7.7101,7.7101,7.7101,7.7101,7.7101,7.7101,7.7101,0.0,0.0,0.0,0.0,0.0,0.0,0.0,0.0,0.0,0.0,0.0,5.4062,5.3984,5.3203,5.2344,5.1484,5.1445,5.1836,5.2695,5.3633,5.4883,5.6523,5.668,0.0,5.7969,5.707,5.6211,5.543,5.5312,5.6992,6.043,6.125,6.3047,6.5508,6.4609,6.1953,5.8125,5.8789,5.8555,5.7773,5.7734,5.7734,5.789,5.8633,5.9023,5.9023,5.8085,5.7771,5.7693,5.6946,5.6667,5.6662,5.6708,5.7247,5.7899,0.0,0.0,0.0,6.2423,6.3634,6.4611,6.6484,6.8124,6.9373,6.949,7.0152,7.0776,7.0776,7.1441,7.2339,7.3196,7.4681,7.5814,7.5853,7.6555,7.7101,7.7101,7.7101,7.7101,7.7101,7.7101,7.7101,7.7101,7.7101,7.7101,7.7101,7.7101,7.7101,7.7101,7.7101,7.7101,7.7101,7.7101,7.7101,7.7101,7.7101,7.7101,7.7101,7.7101,7.7101,7.7101,7.7101,7.7101,7.7101,7.7101,7.7101,7.7101,7.7101,7.7101,7.7101,7.7101,7.7101,7.7101,7.7101,7.7101,7.7101,0.0,0.0,0.0,0.0,0.0,0.0,0.0,0.0,0.0,0.0,0.0,0.0,0.0,5.3711,5.2969,5.1523,5.1406,5.1523,5.1836,5.3203,5.4297,5.4883,5.6015,5.6758,5.707,5.6211,5.5625,5.5312,5.4726,5.5664,5.7969,5.8867,6.0078,6.1562,6.289,6.1992,5.9414,5.8086,5.7031,5.6211,5.6211,5.6914,5.7812,5.6992,5.7734,5.8945,5.6953,5.6601,5.7028,5.6712,5.6588,5.6581,5.6618,5.6807,5.7115,5.7665,5.8405,5.9533,6.1602,6.1993,6.2619,6.5977,6.6873,6.7381,6.9022,6.9645,7.0035,7.058,7.0932,7.1441,7.23,7.3822,7.5151,7.5697,7.6516,7.7101,7.7101,7.7101,7.7101,7.7101,7.7101,7.7101,7.7101,7.7101,7.7101,7.7101,7.7101,7.7101,7.7101,7.7101,7.7101,7.7101,7.7101,7.7101,7.7101,7.7101,7.7101,7.7101,7.7101,7.7101,7.7101,7.7101,7.7101,7.7101,7.7101,7.7101,7.7101,7.7101,7.7101,7.7101,7.7101,7.7101,7.7101,7.7101,7.7101,7.7101,0.0,0.0,0.0,5.7568,0.0,5.6755,5.5859,5.5976,5.5976,5.539,0.0,0.0,0.0,0.0,5.3867,5.2383,5.2266,5.2266,5.2266,5.3359,5.4141,5.4414,5.582,5.6758,5.7031,5.6172,5.5742,5.5742,5.4844,5.5312,5.707,5.793,5.8789,5.9648,6.1094,6.1094,5.9922,5.8789,5.7461,5.6211,5.6797,5.7539,5.8281,5.8008,5.8594,5.9375,5.7656,5.7226,5.7419,5.71,5.7016,5.701,5.7,5.68,5.6761,5.7543,5.8402,5.9416,6.086,6.1252,6.2032,6.5196,6.578,6.6092,6.8085,6.8747,6.9215,7.0074,7.0502,7.0971,7.1831,7.3354,7.4681,7.5268,7.6086,7.6789,7.7062,7.7101,7.7101,7.7101,7.7101,7.7101,7.7101,7.7101,7.7101,7.7101,7.7101,7.7101,7.7101,7.7101,7.7101,7.7101,7.7101,7.7101,7.7101,7.7101,7.7101,7.7101,7.7101,7.7101,7.7101,7.7101,7.7101,7.7101,7.7101,7.7101,7.7101,7.7101,7.7101,7.7101,7.7101,7.7101,7.7101,7.7101,7.7101,7.7101,6.0237,6.0394,6.0127,5.9247,5.8468,5.7651,5.6797,5.5976,5.543,5.543,0.0,0.0,0.0,0.0,0.0,5.4101,5.4023,5.4023,5.3984,5.4023,5.4414,5.5273,5.6172,5.7031,5.789,5.7109,5.664,5.6601,5.5781,5.6211,5.7851,5.8711,5.9531,6.0273,5.9492,5.914,5.9258,6.0859,6.0156,5.8047,5.9687,5.9883,5.9492,6.1953,6.1875,6.043,6.0389,5.9881,5.9098,5.8151,5.7832,5.7831,5.782,5.727,5.6761,5.7543,5.8363,5.9259,0.0,0.0,0.0,6.4025,6.4922,6.578,6.6562,6.742,6.8279,6.9176,7.0035,7.0893,7.1753,7.3315,7.4447,7.4447,7.5229,7.6127,7.6945,7.7062,7.7101,7.7101,7.7101,7.7101,7.7101,7.7101,7.7101,7.7101,7.7101,7.7101,7.7101,7.7101,7.7101,7.7101,7.7101,7.7101,7.7101,7.7101,7.7101,7.7101,7.7101,7.7101,7.7101,7.7101,7.7101,7.7101,7.7101,7.7101,7.7101,7.7101,7.7101,7.7101,7.7101,7.7101,7.7101,7.7101,7.7101,7.7101,6.0354,6.0399,6.0135,5.9247,5.8979,5.8748,5.8515,5.8281,5.8125,0.0,0.0,0.0,5.6367,5.5664,5.5195,5.4961,5.4922,5.4687,5.4023,5.4609,5.5039,5.5273,5.6758,5.7656,5.789,5.8281,5.7851,5.6601,5.6992,5.6797,5.6055,5.6914,5.7773,5.8594,5.8359,5.8242,5.8242,5.8086,5.7969,5.793,5.8398,5.918,6.0078,6.0195,6.0703,6.1172,5.9961,5.9765,5.9959,5.9097,5.8779,5.8612,5.8016,5.766,5.7387,5.7035,5.7504,5.8363,5.922,0.0,0.0,0.0,0.0,0.0,6.5741,6.6131,6.6717,6.8161,6.8669,6.9098,6.9957,7.2026,7.3625,7.3625,7.5384,7.6594,7.6205,7.6711,7.7101,7.7101,7.7101,7.7101,7.7101,7.7101,7.7101,7.7101,7.7101,7.7101,7.7101,7.7101,7.7101,7.7101,7.7101,7.7101,7.7101,7.7101,7.7101,7.7101,7.7101,7.7101,7.7101,7.7101,7.7101,7.7101,7.7101,7.7101,7.7101,7.7101,7.7101,7.7101,7.7101,7.7101,7.7101,7.7101,7.7101,7.7101,6.0861,6.0948,6.0763,6.0263,5.9644,5.9295,5.9648,5.9101,5.8789,0.0,0.0,0.0,5.7305,5.7305,5.7148,5.6445,5.6367,5.6172,5.5664,5.5742,5.5859,5.5859,5.75,5.8437,5.8437,5.9258,5.9023,5.7695,5.7812,5.7187,5.5859,5.6367,5.6875,5.7344,5.7344,5.7344,5.7305,5.6836,5.6875,5.7461,5.8906,5.9648,6.0,6.0976,6.125,6.1094,6.0469,6.0312,6.0349,5.9842,5.9679,5.9471,5.86,5.8324,5.8168,5.7348,5.7699,5.8441,5.8947,5.9729,6.09,6.301,0.0,0.0,6.6288,6.6366,6.6561,6.8279,6.863,6.8903,6.9762,7.1791,7.3313,7.3313,7.5149,7.6516,7.6361,7.6789,7.7218,7.7609,7.7648,7.7648,7.7648,7.7296,7.7101,7.7101,7.7101,7.7101,7.7101,7.7101,7.7101,7.7101,7.7101,7.7101,7.7101,7.7101,7.7101,7.7101,7.7101,7.7101,7.7101,7.7101,7.7101,7.7101,7.7101,7.7101,7.7101,7.7101,7.7101,7.7101,7.7101,7.7101,7.7101,7.7101,7.7101,7.7101,0.0,6.1694,6.1703,6.1709,6.0465,5.9764,6.0547,5.9336,5.8672,0.0,5.9687,5.9336,5.8555,5.9609,5.9844,5.8437,5.8164,5.8008,5.789,5.7187,5.6719,5.6601,5.8281,5.914,5.9062,6.0039,6.0117,5.9219,5.8437,5.7617,5.6758,5.664,5.6601,5.6601,5.6601,5.6601,5.6601,5.6719,5.668,5.6875,6.0039,6.043,5.9531,6.2695,6.2617,6.0937,6.1601,6.1484,6.0936,6.074,6.0734,6.0643,5.9577,5.9378,5.9338,5.8246,5.8558,5.922,5.922,5.9885,6.1134,6.3556,6.4376,0.0,6.7342,6.7303,6.7226,6.8787,6.91,6.9333,7.0113,7.1869,7.3118,7.304,7.4486,7.5932,7.6711,7.6984,7.7375,7.8157,7.8274,7.8274,7.8391,7.7609,7.7101,7.7101,7.7101,7.7101,7.7101,7.7101,7.7101,7.7101,7.7101,7.7101,7.7101,7.7101,7.7101,7.7101,7.7101,7.7101,7.7101,7.7101,7.7101,7.7101,7.7101,7.7101,7.7101,7.7101,7.7101,7.7101,7.7101,7.7101,7.7101,7.7101,7.7101,7.7101,6.1664,6.1711,6.1715,6.1715,6.1444,6.1484,6.2344,6.1601,6.1523,6.3086,6.2695,6.2187,6.2031,6.1055,6.0547,6.0937,5.9726,5.8633,5.7969,5.7734,5.7344,5.664,5.8281,5.8867,5.8164,6.0312,6.0703,5.9219,5.9023,5.8515,5.7617,5.6914,5.6601,5.6601,5.6601,5.6601,5.664,5.7344,5.7226,5.6719,5.8086,5.8867,5.9336,6.0664,6.2148,6.3476,6.293,6.3555,6.4375,6.2967,6.2963,6.3152,6.0877,6.1102,6.1798,5.9494,5.9456,6.0159,6.0159,6.0783,6.1758,6.2969,6.4805,0.0,6.6131,6.6444,6.6913,6.7226,6.7304,6.7343,6.7538,7.0113,7.2026,7.1322,7.3197,7.4798,7.4993,7.6203,7.7179,7.7335,7.7335,7.7648,7.8313,7.7609,7.7101,7.7101,7.7101,7.7101,7.7101,7.7101,7.7101,7.7101,7.7101,7.7101,7.7101,7.7101,7.7101,7.7101,7.7101,7.7101,7.7101,7.7101,7.7101,7.7101,7.7101,7.7101,7.7101,7.7101,7.7101,7.7101,7.7101,7.7101,7.7101,7.7101,7.7101,7.7101,6.1708,6.1714,6.1834,6.2263,6.1992,6.2148,6.3437,6.289,6.2969,6.4726,6.4961,6.4453,6.3125,6.3008,6.2656,6.1797,6.1328,6.0547,5.9219,5.914,5.8594,5.7305,5.8906,5.9414,5.8555,6.0625,6.1094,5.9805,5.9414,5.875,5.789,5.6992,5.6836,5.7226,5.6797,5.6836,5.7265,5.7265,5.6992,5.6797,5.8945,5.957,5.9414,6.1523,6.289,6.3633,6.3633,6.4219,6.4687,6.2927,6.2923,6.3426,6.213,6.2588,6.3322,6.1564,6.1369,6.1525,6.0627,6.0705,6.1486,6.3204,6.461,0.0,0.0,6.6834,6.6913,6.7342,6.7459,6.7459,6.7459,6.9606,7.148,7.1947,7.3079,7.39,7.39,7.5735,7.7257,7.7687,7.7765,7.7921,7.8352,7.7609,7.7101,7.7101,7.7101,7.7101,7.7101,7.7101,7.7101,7.7101,7.7101,7.7101,7.7101,7.7101,7.7101,7.7101,7.7101,7.7101,7.7101,7.7101,7.7101,7.7101,7.7101,7.7101,7.7101,7.7101,7.7101,7.7101,7.7101,7.7101,7.7101,7.7101,7.7101,7.7101,6.1986,6.2106,6.2303,6.2694,6.2461,6.2695,6.4101,6.3711,6.375,6.5156,6.625,6.6015,6.375,6.4765,6.4883,6.3125,6.2812,6.2383,6.1445,6.0937,6.0039,5.8672,5.9922,6.0273,5.9453,6.0937,6.1289,6.039,5.9609,5.8828,5.8125,5.7109,5.6992,5.7617,5.7109,5.7226,5.7851,5.7148,5.7031,5.7578,6.0508,6.0586,5.9297,6.2578,6.3476,6.3164,6.4375,6.4922,6.4765,6.3042,6.3038,6.3661,6.3144,6.3839,6.4536,6.3361,6.3362,6.3363,6.1604,6.1408,6.211,6.4064,6.4922,6.5742,0.0,0.0,0.0,6.7732,6.7849,6.7849,6.7849,6.9136,7.0737,7.2298,7.2845,7.3118,7.3274,7.5187,7.6789,7.7335,7.7688,7.7962,7.8118,7.7375,7.6867,7.6867,7.6867,7.6906,7.7101,7.7101,7.7101,7.7101,7.7101,7.7101,7.7101,7.7101,7.7101,7.7101,7.7101,7.7101,7.7101,7.7101,7.7101,7.7101,7.7101,7.7101,7.7101,7.7101,7.7101,7.7101,7.7101,7.7101,7.7101,7.7101,7.7101,7.7101,6.3008,6.3476,6.3555,6.2109,6.3047,6.4062,6.4258,6.4219,6.4219,6.4414,6.5898,6.6484,6.543,6.5469,6.6094,6.7344,6.4023,6.2734,6.4883,6.2851,6.1484,6.1289,6.1445,6.1133,6.0273,6.1211,6.1289,6.039,5.9609,5.914,5.9023,5.7383,5.664,5.6797,5.7461,5.7812,5.789,5.7773,5.8594,6.0078,6.1211,6.0234,5.8359,6.0976,6.2422,6.332,6.5742,6.7109,6.75,6.574,6.5736,6.6044,6.3731,6.4625,6.6069,6.3676,6.4618,6.599,6.4301,6.4922,6.5977,6.5546,6.7146,6.8475,6.7226,0.0,6.7771,6.7109,0.0,6.6952,6.6952,0.0,0.0,6.9684,7.1128,7.2417,7.3196,7.4173,7.4564,7.3938,7.5188,7.64,7.7179,7.6478,7.5932,7.5932,7.5932,7.6283,7.7062,7.7101,7.7101,7.7101,7.7101,7.7101,7.7101,7.7101,7.7101,7.7101,7.7101,7.7101,7.7101,7.7101,7.7101,7.7101,7.7101,7.7101,7.7101,7.7101,7.7101,7.7101,7.7101,7.7101,7.7101,7.7101,7.7101,7.7101,6.4023,6.4062,6.4219,6.3984,6.457,6.5234,6.5742,6.707,6.7851,6.7383,6.8359,6.9336,7.0,6.8281,6.7617,6.8867,6.6836,6.4844,6.3437,6.3711,6.2851,6.0351,6.2148,6.2344,6.043,6.1758,6.2031,6.1133,6.0312,5.9648,5.918,5.8437,5.8125,5.8125,5.8476,5.8906,5.9297,5.832,5.832,5.9023,5.9883,5.9609,5.9101,6.3164,6.4922,6.539,6.6523,6.7461,6.7851,6.5586,6.5426,6.5968,6.4835,6.5255,6.5984,6.536,6.5946,6.6413,6.4769,6.5163,6.6024,6.5664,6.6762,6.7704,6.6954,6.707,6.7224,6.6874,0.0,0.0,0.0,0.0,0.0,0.0,7.0777,7.1558,7.2417,7.2846,7.3471,7.4603,7.4915,7.5579,7.6984,7.6322,7.6205,7.722,7.6361,7.6166,7.7062,7.7101,7.7101,7.7101,7.7101,7.7101,7.7101,7.7101,7.7101,7.7101,7.7101,7.7101,7.7101,7.7101,7.7101,7.7101,7.7101,7.7101,7.7101,7.7101,7.7101,7.7101,7.7101,7.7101,7.7101,7.7101,7.7101,7.7101,6.5273,6.5,6.5078,6.5234,6.5625,6.6172,6.6797,6.8281,6.9336,6.9492,6.9805,7.0859,7.3047,7.0859,6.9765,7.1133,6.957,6.7383,6.4687,6.4961,6.4062,6.1445,6.2773,6.3047,6.1836,6.2344,6.2461,6.207,6.0937,6.0,5.9219,5.9219,5.9062,5.8867,5.9336,6.0117,6.1015,5.957,5.9492,6.039,6.0781,6.125,6.1992,6.5039,6.6484,6.6914,6.6914,6.7461,6.7851,6.5742,6.5584,6.6244,6.5737,6.5926,6.6343,6.6425,6.6814,6.681,6.5125,6.5441,6.6186,6.5706,6.6373,6.708,6.6838,6.7187,6.7421,6.7226,6.7537,0.0,0.0,0.0,6.9136,7.0191,0.0,7.1206,7.1597,7.1831,7.2612,7.4214,7.4447,7.5071,7.6594,7.6166,7.6244,7.7259,7.6166,7.5814,7.6711,7.675,7.6867,7.7101,7.7101,7.7101,7.7101,7.7101,7.7101,7.7101,7.7101,7.7101,7.7101,7.7101,7.7101,7.7101,7.7101,7.7101,7.7101,7.7101,7.7101,7.7101,7.7101,7.7101,7.7101,7.7101,7.7101,7.7101,6.6836,6.6836,6.6289,6.4648,6.5742,6.6875,6.6914,6.625,6.664,6.918,6.8789,6.957,7.293,7.2461,7.289,7.5469,7.1797,7.0039,7.1562,6.707,6.5039,6.6601,6.3515,6.293,6.539,6.3008,6.2148,6.2969,6.125,6.0,5.9219,5.9219,5.875,5.8008,5.9648,6.1328,6.2851,6.1953,6.3515,6.6523,6.5703,6.6406,6.7656,6.5273,6.543,6.6914,6.6914,6.7461,6.8047,6.7147,6.738,6.781,6.6125,6.6752,6.777,6.6125,6.683,6.7768,6.6037,6.6774,6.763,6.6017,6.6834,6.7849,6.6992,6.8124,6.9098,6.8239,6.9409,7.0309,6.9489,7.0035,7.0348,6.9567,7.0855,0.0,0.0,7.148,7.1714,7.0932,7.3002,7.4837,7.5736,7.5814,7.5463,7.4681,7.4564,7.4915,7.5814,7.5853,7.6244,7.7062,7.7101,7.7101,7.7101,7.7101,7.7101,7.7101,7.7101,7.7101,7.7101,7.7101,7.7101,7.7101,7.7101,7.7101,7.7101,7.7101,7.7101,7.7101,7.7101,7.7101,7.7101,7.7101,7.7101,7.7101,6.6914,6.6914,6.6719,6.6133,6.6523,6.7109,6.7656,6.8945,7.0586,7.2617,7.2617,7.3945,7.7969,7.5586,7.4531,7.6562,7.3828,7.1289,6.9609,6.8398,6.7226,6.6094,6.4922,6.4414,6.4726,6.3867,6.3008,6.2148,6.2148,6.1406,6.0,6.0586,6.0117,5.8828,6.0508,6.1914,6.2969,6.2695,6.3242,6.4336,6.4648,6.6133,6.8086,6.7226,6.6875,6.6914,6.6914,6.7461,6.8164,6.7851,6.7968,6.8201,6.8163,6.777,6.7338,6.7339,6.7728,6.8,6.7409,6.8935,7.0264,6.8531,6.8962,6.9431,6.797,6.8552,6.8983,6.7537,6.9098,7.0268,6.8825,6.9722,7.058,7.0309,7.1245,7.1714,0.0,7.0465,7.0582,7.1441,7.3822,7.5268,7.4954,7.5463,7.5932,7.6203,7.5696,7.5502,7.5775,7.6361,7.6516,7.6244,7.6789,7.7101,7.7101,7.7101,7.7101,7.7101,7.7101,7.7101,7.7101,7.7101,7.7101,7.7101,7.7101,7.7101,7.7101,7.7101,7.7101,7.7101,7.7101,7.7101,7.7101,7.7101,7.7101,7.7101,6.7422,6.7344,6.7265,6.6953,6.7148,6.7656,6.8515,7.0273,7.2148,7.3906,7.414,7.5664,7.9687,7.7109,7.5742,7.75,7.5547,7.289,6.9765,6.9805,6.9062,6.707,6.6406,6.6211,6.6562,6.539,6.4375,6.3555,6.3476,6.2734,6.1328,6.1562,6.0976,5.9687,6.0742,6.2226,6.3945,6.4258,6.4922,6.5742,6.5703,6.6719,6.8203,6.8203,6.8047,6.7734,6.7461,6.789,6.8633,6.8633,6.8828,6.914,6.9375,6.8905,6.8317,6.8592,6.8591,6.8511,6.8197,6.9566,7.0738,6.9283,6.9596,6.9869,6.8446,6.9028,6.9458,6.8014,6.9571,7.0897,7.0087,7.0862,7.152,7.1213,7.1874,7.2065,0.0,7.023,7.027,7.1402,7.3277,7.4565,7.4915,7.519,7.5697,7.6555,7.5814,7.5463,7.5775,7.6322,7.6516,7.6283,7.6828,7.7101,7.7101,7.7101,7.7101,7.7101,7.7101,7.7101,7.7101,7.7101,7.7101,7.7101,7.7101,7.7101,7.7101,7.7101,7.7101,7.7101,7.7101,7.7101,7.7101,7.7101,7.7101,7.7101,6.8476,6.8359,6.8125,6.7344,6.7773,6.8555,6.9414,7.0234,7.1406,7.3203,7.3476,7.4805,7.8203,7.7031,7.6719,7.8359,7.6953,7.4883,7.2344,7.1367,7.0547,6.9805,6.8047,6.8203,7.0664,6.7422,6.6094,6.6836,6.5195,6.3906,6.3047,6.2187,6.1289,6.0469,6.0469,6.2383,6.5664,6.6523,6.8398,7.0625,6.8984,6.8359,6.8398,6.8359,6.8828,6.9414,6.8555,6.875,6.9414,6.9453,7.0,7.0547,6.9765,7.0078,7.0547,6.9765,6.9492,6.9297,6.8514,6.8943,6.9372,6.8508,6.8936,6.9285,6.8417,6.9547,7.0485,6.9586,7.0866,7.2349,7.3032,7.3293,7.3047,7.2162,7.266,7.2571,7.0815,7.0619,7.0659,7.0659,7.1363,7.2847,7.5385,7.4915,7.4798,7.5658,7.4915,7.4837,7.5736,7.5853,7.6205,7.7023,7.7101,7.714,7.7101,7.7101,7.7101,7.7101,7.7101,7.7101,7.7101,7.7101,7.7101,7.7101,7.7101,7.7101,7.7101,7.7101,7.7101,7.7101,7.7101,7.7101,7.7101,7.7101,7.7101,7.7101,6.9961,7.0586,7.1172,7.1562,7.0234,6.9609,7.1094,7.1523,7.2539,7.4922,7.5781,7.6992,7.914,7.8476,7.8008,7.8476,7.75,7.6328,7.5,7.4062,7.3515,7.3281,7.1015,7.0039,7.0703,6.8633,6.6992,6.5937,6.5508,6.4805,6.3945,6.3086,6.2187,6.1367,6.1367,6.293,6.5664,6.6523,6.875,7.1562,7.0508,7.0469,7.0937,7.0312,7.0586,7.1133,6.9687,6.9297,6.957,7.0156,7.0508,7.0781,7.1211,7.1055,7.0664,7.0469,7.039,7.0312,7.0117,7.1132,7.2109,7.1208,7.1168,7.1088,7.0223,7.0885,7.1236,6.9713,7.182,7.342,7.1699,7.2944,7.3758,7.2268,7.1639,7.0776,6.9019,6.9333,6.9723,6.9723,6.9918,7.0817,7.2808,7.3354,7.3939,7.4759,7.4056,7.4251,7.5736,7.64,7.6555,7.6166,7.7376,7.7765,7.7101,7.7101,7.7101,7.7101,7.7101,7.7101,7.7101,7.7101,7.7101,7.7101,7.7101,7.7101,7.7101,7.7101,7.7101,7.7101,7.7101,7.7101,7.7101,7.7101,7.7101,7.7101,7.2226,7.3125,7.3984,7.4844,7.3789,7.289,7.3086,7.3125,7.3672,7.5156,7.6406,7.7578,7.8515,7.8555,7.8515,7.8515,7.7695,7.668,7.539,7.5586,7.539,7.4648,7.3555,7.2773,7.2422,7.0351,6.8828,6.7812,6.6719,6.6094,6.5976,6.3945,6.2734,6.2226,6.1484,6.2578,6.5195,6.7969,7.0234,7.1953,7.1484,7.1328,0.0,7.0898,7.1015,7.1367,7.0781,7.0586,7.0664,7.1133,7.1289,7.1367,7.1836,7.164,7.1289,7.1289,7.1289,7.1289,7.1289,7.1992,7.2617,7.2109,7.1991,7.1756,7.0893,7.1087,7.1165,7.0189,7.1515,7.2568,7.1476,7.2175,7.2556,7.1607,7.1014,7.0229,6.8864,6.9098,6.9412,6.9412,6.9412,7.0076,7.1831,7.2104,7.2806,7.4369,7.4095,7.4408,7.5736,7.6283,7.6477,7.6361,7.6947,7.722,7.7101,7.7101,7.7101,7.7101,7.7101,7.7101,7.7101,7.7101,7.7101,7.7101,7.7101,7.7101,7.7101,7.7101,7.7101,7.7101,7.7101,7.7101,7.7101,7.7101,7.7101,7.7101,7.4922,7.582,7.664,7.7383,7.7617,7.7148,7.5508,7.5195,7.5117,7.5117,7.6523,7.7539,7.7539,7.8203,7.8672,7.8672,7.7969,7.6836,7.5234,7.6523,7.664,7.5,7.5664,7.5664,7.4805,7.2305,7.0976,7.0859,6.832,6.7461,6.8125,6.4883,6.3359,6.3242,6.1523,6.2187,6.4961,6.9765,7.2031,7.2305,7.2109,7.168,7.1172,7.0976,7.0859,7.0976,7.1719,7.1992,7.1992,7.1992,7.1992,7.1992,7.1992,7.1992,7.1992,7.1992,7.207,7.2187,7.2187,7.2187,7.2187,7.2187,7.207,7.1797,7.1053,7.0857,7.0857,7.0857,7.0972,7.1206,7.1718,7.1129,7.0532,7.0525,7.0632,7.0314,6.9221,6.9378,6.9416,6.8945,6.9101,0.0,7.1324,7.0894,7.1558,7.3978,7.3978,7.429,7.5424,7.5463,7.5932,7.6906,7.6322,7.6322,7.7101,7.7101,7.7101,7.7101,7.7101,7.7101,7.7101,7.7101,7.7101,7.7101,7.7101,7.7101,7.7101,7.7101,7.7101,7.7101,7.7101,7.7101,7.7101,7.7101,7.7101,7.7101,7.7656,7.8476,7.9062,7.9258,7.9844,8.0,7.8945,7.8242,7.7812,7.7812,7.8672,7.9258,7.9258,7.9414,7.9492,7.9492,7.9336,7.8867,7.789,7.8086,7.7812,7.6797,7.6875,7.6562,7.5703,7.3828,7.25,7.1758,6.9219,6.8047,6.8164,6.6094,6.5156,6.5078,6.332,6.3984,6.664,6.9648,7.2187,7.4023,7.2578,7.2773,7.375,7.2305,7.1758,7.1797,7.1953,7.1992,7.1992,7.1992,7.1992,7.1992,7.1992,7.1992,7.1992,7.1992,7.25,7.3086,7.3086,7.3086,7.3086,7.3086,7.2539,7.1953,7.1797,7.1758,7.1758,7.1758,7.2343,7.246,7.117,7.0228,6.9636,6.9636,7.022,6.9906,6.7642,6.9164,6.9435,6.6614,6.7473,6.8446,6.8747,6.9294,7.0426,7.23,7.1128,7.1285,7.3625,7.3743,7.4447,7.5971,7.6594,7.6945,7.7101,7.7101,7.7101,7.7101,7.7101,7.7101,7.7101,7.7101,7.7101,7.7101,7.7101,7.7101,7.7101,7.7101,7.7101,7.7101,7.7101,7.7101,7.7101,7.7101,7.7101,7.7101,7.9726,8.0469,8.1054,8.1054,8.1758,8.2031,8.1172,8.1484,8.1015,7.8789,7.9219,7.9687,7.9687,8.0117,8.0351,8.0351,7.9961,7.9531,7.914,7.9101,7.875,7.789,7.7851,7.7265,7.5937,7.4648,7.3555,7.2656,7.0547,6.9297,6.8828,6.7109,6.6015,6.5586,6.5195,6.5976,6.7734,7.0273,7.2344,7.3906,7.3515,7.3867,7.4453,7.3164,7.2656,7.2656,7.2656,7.2656,7.2617,7.2148,7.1992,7.1992,7.1992,7.2305,7.2578,7.2148,7.2617,7.3281,7.3281,7.3281,7.3281,7.3281,7.2969,7.2578,7.2109,7.1992,7.1992,7.1992,7.2344,7.2109,7.039,6.9723,6.9564,6.9994,7.0811,7.1082,7.0341,7.0497,7.0105,6.8422,6.7796,6.7987,6.9305,6.9421,6.9731,7.0583,7.0699,7.1285,7.2573,7.2612,7.3393,7.5073,7.554,7.5969,7.6438,7.6867,7.7101,7.7101,7.7101,7.7101,7.7101,7.7101,7.7101,7.7101,7.7101,7.7101,7.7101,7.7101,7.7101,7.7101,7.7101,7.7101,7.714,7.7609,7.7765,7.7726,8.0976,8.1719,8.2344,8.2539,8.3437,8.3867,8.3008,8.4179,8.3828,8.0078,8.0312,8.0742,8.0547,8.1133,8.1484,8.1289,8.0664,8.0156,8.0,7.9961,7.9609,7.8789,7.875,7.8047,7.6484,7.5586,7.4648,7.3594,7.1836,7.0547,6.9726,6.8008,6.6601,6.5664,6.6719,6.7578,6.8359,7.0937,7.2617,7.3633,7.4336,7.4726,7.4765,7.3906,7.3594,7.3594,7.3594,7.3594,7.3476,7.2773,7.2539,7.2539,7.2539,7.3008,7.3437,7.2734,7.3164,7.3867,7.3867,7.3867,7.3867,7.3867,7.3555,7.3125,7.2422,7.2148,7.1992,7.1992,7.1836,7.1328,7.0,6.957,6.9647,7.0311,7.1167,7.1829,7.2181,7.1205,7.0384,7.0188,6.8077,6.7488,6.9667,6.943,6.9114,6.9103,7.0584,7.1441,7.1441,7.1441,7.2221,7.3939,7.429,7.4915,7.5775,7.6672,7.7101,7.7101,7.7101,7.7101,7.7101,7.7101,7.7101,7.7101,7.7101,7.7101,7.7101,7.7101,7.7101,7.7101,7.7296,7.7375,7.7492,7.835,7.8664,7.8586,8.0859,8.1719,8.2539,8.3359,8.4844,8.5664,8.4804,8.5469,8.5351,8.3398,8.3867,8.4101,8.332,8.332,8.3047,8.2265,8.2109,8.1719,8.0937,8.0898,8.0508,7.9648,7.9609,7.918,7.8281,7.7383,7.6133,7.4492,7.2734,7.1445,7.0547,6.8867,6.7187,6.5664,6.7344,6.8125,6.8359,7.0937,7.2969,7.4492,7.457,7.5078,7.5664,7.4805,7.4492,7.4492,7.4492,7.4492,7.4453,7.4375,7.4375,7.4375,7.4375,7.4414,7.4453,7.4375,7.4961,7.5664,7.5664,7.5664,7.5664,7.5664,7.4453,7.3281,7.3203,7.2578,7.1992,7.1992,7.1367,7.0781,7.0625,7.0,6.9531,6.9609,7.0273,7.0312,6.8867,6.9218,6.9335,6.8513,6.6833,6.6128,6.7178,6.7834,6.8218,6.8217,6.9106,6.9646,6.9646,6.9646,7.0427,7.2182,7.3705,7.4915,7.5775,7.6672,7.7101,7.7101,7.7101,7.7101,7.7101,7.7101,7.7101,7.7101,7.7101,7.7101,7.7101,7.7101,7.7101,7.7179,7.7962,7.8274,7.8391,7.9248,7.96,7.9561,8.3281,8.3633,8.414,8.5,8.5312,8.5469,8.5664,8.5976,8.5937,8.5234,8.5,8.4765,8.4414,8.4375,8.4023,8.3164,8.3086,8.2695,8.1836,8.1797,8.1406,8.0508,8.0469,8.0078,7.9258,7.8398,7.7383,7.6172,7.4922,7.3359,7.1484,7.1328,7.0625,6.9453,7.0156,7.0781,7.1367,7.289,7.4258,7.539,7.539,7.5898,7.6601,7.5703,7.539,7.539,7.539,7.539,7.5469,7.5976,7.5469,7.4609,7.4609,7.4961,7.5273,7.4765,7.5234,7.5898,7.5898,7.5898,7.5898,7.5898,7.4961,7.3945,7.3437,7.2617,7.1992,7.1992,7.1719,7.1328,7.0781,7.043,7.039,7.0937,7.1719,7.2226,7.207,7.1875,7.164,7.1289,6.8828,6.7694,6.9058,6.9012,6.8888,6.8882,7.016,7.0972,7.0972,7.0972,7.1285,7.1987,7.3627,7.4681,7.5032,7.6399,7.7101,7.7101,7.7101,7.7101,7.7101,7.7101,7.7101,7.7101,7.7101,7.7101,7.7101,7.7101,7.7414,7.7921,7.8274,7.8391,7.8586,7.9951,8.0146,7.9756,8.4453,8.4726,8.5156,8.6054,8.5898,8.5859,8.6484,8.6562,8.6562,8.6562,8.6054,8.5586,8.5312,8.5273,8.4922,8.4062,8.375,8.3359,8.2734,8.2422,8.2031,8.1406,8.1367,8.0976,8.0117,7.9258,7.832,7.7187,7.6328,7.4805,7.2773,7.3125,7.2812,7.1992,7.2265,7.2734,7.3359,7.4492,7.5351,7.5937,7.6172,7.664,7.7148,7.6523,7.6289,7.6289,7.6289,7.6289,7.6367,7.6992,7.6367,7.5351,7.5351,7.5781,7.6172,7.5547,7.5781,7.6289,7.6289,7.6289,7.6289,7.6289,7.5625,7.4765,7.3867,7.3008,7.2305,7.2031,7.1992,7.1797,7.1211,7.1289,7.1562,7.1953,7.2969,7.3711,7.3828,7.332,7.293,7.293,6.9883,6.8281,6.9452,6.9018,6.8778,6.9047,7.1104,7.203,7.1286,7.148,7.1753,7.1987,7.3627,7.4603,7.4876,7.636,7.7101,7.7101,7.7101,7.7101,7.7101,7.7101,7.7101,7.7101,7.7101,7.7101,7.7101,7.7101,7.7453,7.804,7.8313,7.8547,7.8977,8.046,8.0771,8.0537,8.3437,8.4297,8.5156,8.6054,8.6914,8.7461,8.7461,8.7461,8.7461,8.7461,8.7461,8.7148,8.6289,8.6172,8.582,8.4961,8.4101,8.3594,8.3594,8.2773,8.2304,8.2265,8.2265,8.1875,8.1015,8.0117,7.8867,7.7187,7.6328,7.543,7.4531,7.3711,7.2812,7.2031,7.289,7.3281,7.3398,7.5156,7.5898,7.5976,7.6836,7.7187,7.7187,7.7187,7.7187,7.7187,7.7187,7.7187,7.7187,7.7187,7.7187,7.7187,7.7187,7.7187,7.7187,7.7187,7.7187,7.7187,7.7187,7.7187,7.7187,7.7187,7.6523,7.5664,7.4765,7.3906,7.3047,7.2187,7.1992,7.1992,7.1992,7.2695,7.3008,7.2148,7.3437,7.3984,7.2265,7.2031,7.2031,7.2031,6.8984,6.6914,6.6953,6.6952,6.7302,6.816,7.1351,7.2156,6.9568,7.027,7.1128,7.1987,7.3627,7.4915,7.5775,7.6672,7.7101,7.7101,7.7101,7.7101,7.7101,7.7101,7.7101,7.7101,7.7101,7.7101,7.7101,7.7101,7.7101,7.7218,7.8079,7.8936,7.9795,8.0654,8.1552,8.2253,8.6211,8.6484,8.6758,8.7031,8.7304,8.75,8.75,8.75,8.75,8.75,8.75,8.7383,8.7109,8.7109,8.6758,8.5859,8.5547,8.4883,8.3672,8.3359,8.2929,8.2344,8.2304,8.2187,8.1875,8.1015,8.0312,7.9805,7.8359,7.7226,7.6328,7.4883,7.4687,7.5547,7.5195,7.539,7.6015,7.6562,7.6797,7.6797,7.7109,7.7187,7.7187,7.7187,7.7187,7.7187,7.7187,7.7187,7.7187,7.7187,7.7187,7.7187,7.7187,7.7187,7.7187,7.7187,7.7187,7.7187,7.7187,7.7187,7.7187,7.7187,7.6523,7.582,7.5547,7.4336,7.3047,7.2187,7.1992,7.2187,7.2773,7.3125,7.3398,7.3711,7.4726,7.4883,7.3125,7.3398,7.3125,7.1328,6.914,6.7539,6.6953,6.7421,6.7419,6.6481,7.0693,7.2949,7.208,7.2851,7.3158,7.2884,7.3939,7.4915,7.5775,7.6672,7.7101,7.7101,7.7101,7.7101,7.7101,7.7101,7.7101,7.7101,7.7101,7.7101,7.7101,7.7101,7.7453,7.8001,7.8274,7.8586,7.8975,8.046,8.081,8.0693,8.75,8.75,8.7617,8.789,8.7969,8.8047,8.8398,8.8437,8.832,8.8008,8.7969,8.7851,8.7539,8.75,8.7265,8.6758,8.6406,8.5742,8.4648,8.4258,8.3711,8.2812,8.2773,8.2656,8.2304,8.1445,8.1015,8.1015,7.9336,7.8203,7.7656,7.625,7.6172,7.7187,7.664,7.668,7.7187,7.7187,7.7187,7.7187,7.7187,7.7187,7.7187,7.7187,7.7187,7.7187,7.7187,7.7187,7.7187,7.7187,7.7187,7.7187,7.7187,7.7187,7.7187,7.7187,7.7187,7.7187,7.7187,7.7187,7.7187,7.7187,7.6797,7.6289,7.5976,7.4531,7.3164,7.2617,7.25,7.2656,7.3203,7.3828,7.4453,7.5,7.582,7.5781,7.4023,7.4258,7.3515,7.0586,6.9297,6.8203,6.6992,6.7695,6.7733,6.6679,7.0737,7.2997,7.2364,7.372,7.4296,7.3783,7.4564,7.5424,7.6283,7.6828,7.7101,7.7101,7.7101,7.7101,7.7101,7.7101,7.7101,7.7101,7.7101,7.7101,7.7101,7.7101,7.7414,7.7921,7.7921,7.8311,7.9014,8.0107,8.0576,8.0849,8.7656,8.7656,8.789,8.8672,8.8789,8.9062,8.9883,9.0,8.9726,8.8906,8.8789,8.8476,8.7656,8.7578,8.7578,8.75,8.6758,8.625,8.6211,8.5429,8.4609,8.3711,8.3672,8.3281,8.2422,8.1601,8.1133,8.1015,7.9453,7.8633,7.8555,7.7734,7.7383,7.7383,7.7383,7.7344,7.7305,7.7305,7.7265,7.7187,7.7187,7.7187,7.7187,7.7187,7.7187,7.7187,7.7187,7.7187,7.7187,7.7187,7.7187,7.7187,7.7187,7.7187,7.7187,7.7187,7.7187,7.7187,7.7187,7.7187,7.7187,7.7187,7.7187,7.6953,7.6094,7.4648,7.3476,7.3398,7.3398,7.3398,7.3476,7.4805,7.5937,7.5976,7.6601,7.6523,7.4844,7.4492,7.3203,6.9883,6.9375,6.8672,6.707,6.7734,6.8281,6.8203,7.1366,7.2534,7.0809,7.3224,7.4619,7.4486,7.5346,7.6205,7.7101,7.7101,7.7101,7.7101,7.7101,7.714,7.7179,7.714,7.714,7.7179,7.714,7.7101,7.7101,7.7101,7.714,7.7179,7.7179,7.8233,7.9717,7.9756,8.081,8.2214,8.9414,8.9414,8.9453,8.9648,8.9687,8.9765,8.9961,9.0,8.9922,8.9726,8.9687,8.9375,8.8515,8.8437,8.8164,8.7539,8.7304,8.6914,8.625,8.6015,8.5508,8.4648,8.4609,8.4179,8.332,8.3086,8.2344,8.1015,8.0586,8.0078,7.9414,7.9219,7.9101,7.9101,7.9101,7.8789,7.8203,7.8203,7.7812,7.7187,7.7187,7.7187,7.7187,7.7187,7.7187,7.7187,7.7187,7.7187,7.7187,7.7187,7.7187,7.7187,7.7187,7.7187,7.7187,7.7187,7.7187,7.7187,7.7187,7.7187,7.7187,7.7187,7.7187,7.6953,7.6094,7.5586,7.5117,7.4414,7.4297,7.4492,7.5156,7.5625,7.6133,7.6797,7.6523,7.582,7.4765,7.3437,7.1836,6.9765,6.8906,6.8086,6.6992,6.8281,6.8906,6.8242,7.1367,7.2537,7.0809,7.3815,7.5252,7.4526,7.5346,7.6205,7.7101,7.7101,7.7101,7.7101,7.7101,7.7453,7.8079,7.7414,7.7453,7.8079,7.7375,7.7101,7.7101,7.7101,7.7492,7.8079,7.8079,7.8741,7.9795,8.0459,8.0966,8.1396,9.0,9.0,9.0117,9.0508,9.0586,9.0742,9.1133,9.1172,9.1054,9.0664,9.0586,9.0117,8.8828,8.8711,8.8398,8.7578,8.75,8.7304,8.6836,8.6797,8.6406,8.5547,8.5508,8.5078,8.4219,8.4179,8.3554,8.2187,8.1406,8.0742,8.0273,7.9883,7.9687,7.9687,7.9687,7.9453,7.9062,7.9062,7.8789,7.8359,7.8359,7.8359,7.8359,7.8359,7.8359,7.8281,7.793,7.7773,7.7734,7.7344,7.7187,7.7187,7.7187,7.7187,7.7187,7.7187,7.7187,7.7187,7.7187,7.7187,7.7187,7.7187,7.7187,7.707,7.6601,7.6172,7.5781,7.5273,7.5195,7.5351,7.582,7.6211,7.664,7.7109,7.6484,7.5586,7.4726,7.3437,7.1953,7.0234,6.9648,6.914,6.8672,6.9492,6.9844,6.9375,7.2187,7.3124,7.1395,7.4559,7.584,7.4526,7.5735,7.6633,7.7101,7.7101,7.7101,7.7101,7.7101,7.757,7.8391,7.7921,7.8155,7.8975,7.8507,7.8272,7.8272,7.8272,7.8585,7.8975,7.8975,7.9522,8.0341,8.0811,8.1239,8.1669,9.039,9.039,9.0625,9.1367,9.1484,9.1758,9.25,9.2617,9.2344,9.1601,9.1484,9.082,8.9101,8.8906,8.8515,8.7578,8.7617,8.7617,8.75,8.75,8.7187,8.6445,8.6406,8.5976,8.5117,8.4844,8.4336,8.3594,8.1992,8.1211,8.1172,8.0429,8.0078,8.0078,8.0078,8.0039,7.9883,7.9883,7.9805,7.9687,7.9687,7.9687,7.9687,7.9687,7.9687,7.9609,7.8945,7.8672,7.8555,7.7812,7.7578,7.7578,7.7578,7.75,7.7383,7.7383,7.7305,7.7187,7.7187,7.7187,7.7187,7.7187,7.7187,7.7187,7.7187,7.664,7.6094,7.6094,7.6094,7.6094,7.6094,7.6719,7.7187,7.7187,7.6484,7.5586,7.4726,7.375,7.2617,7.125,7.0976,7.1015,7.125,7.1289,7.1289,7.1289,7.3359,7.3944,7.2489,7.5262,7.6231,7.4721,7.6242,7.7101,7.7101,7.7101,7.7179,7.7296,7.7296,7.7804,7.8781,7.8664,7.9053,7.9873,7.9756,7.9717,7.9717,7.9717,7.9795,7.9912,7.9912,8.042,8.12,8.12,8.1669,8.2292,9.2187,9.2187,9.2226,9.2383,9.2383,9.2422,9.2578,9.2617,9.2539,9.2422,9.2383,9.1719,9.0,8.9804,8.9179,8.7617,8.8125,8.8242,8.7539,8.75,8.7422,8.7304,8.7304,8.6875,8.6015,8.457,8.375,8.3594,8.2578,8.2109,8.2109,8.1953,8.1914,8.1914,8.1914,8.1484,8.0781,8.0781,8.0351,7.9687,7.9687,7.9687,7.9687,7.9687,7.9687,7.9687,7.957,7.9492,7.9492,7.9375,7.9297,7.9297,7.9297,7.8867,7.8281,7.8281,7.7773,7.7187,7.7187,7.7187,7.7187,7.7187,7.7187,7.7187,7.7187,7.7109,7.6992,7.6992,7.6992,7.6992,7.6992,7.7109,7.7187,7.7187,7.6484,7.5586,7.4726,7.3203,7.2383,7.2851,7.2265,7.2383,7.3867,7.3984,7.3984,7.3984,7.4375,7.4491,7.4208,7.5418,7.5957,7.5621,7.6555,7.7101,7.7101,7.7101,7.7453,7.8196,7.8196,7.9055,8.0577,7.9834,7.9951,8.0771,8.0029,7.9717,7.9717,7.9717,8.0146,8.081,8.081,8.1317,8.2098,8.2098,8.2176,8.2292,9.2617,9.2617,9.2617,9.2617,9.2617,9.2617,9.2617,9.2617,9.2617,9.2617,9.2617,9.2109,9.0859,9.0703,9.0195,8.8945,8.9179,8.9023,8.8203,8.8164,8.7969,8.7539,8.75,8.7304,8.6914,8.5664,8.5,8.5,8.3672,8.3008,8.3008,8.2539,8.2304,8.2304,8.2304,8.207,8.1719,8.1719,8.1484,8.1094,8.1094,8.1094,8.1094,8.1094,8.1094,8.1054,8.0586,8.039,8.0312,7.9844,7.9687,7.9687,7.9687,7.9453,7.914,7.914,7.8203,7.7187,7.7187,7.7187,7.7187,7.7187,7.7187,7.7187,7.7187,7.7187,7.7187,7.7187,7.7187,7.7187,7.7187,7.7187,7.7187,7.7187,7.6055,7.5078,7.4648,7.3515,7.2851,7.3242,7.3359,7.3711,7.4531,7.4609,7.4609,7.4609,7.5039,7.5311,7.5302,7.6083,7.6543,7.6517,7.6906,7.7101,7.7101,7.757,7.8001,7.8391,7.8897,7.9756,8.1007,8.0576,8.0888,8.1669,8.1278,8.1083,8.1083,8.1083,8.1356,8.1708,8.1708,8.1942,8.2292,8.2292,8.2292,8.2292,9.2617,9.2617,9.2617,9.2617,9.2617,9.2617,9.2617,9.2617,9.2617,9.2617,9.2617,9.2265,9.1406,9.1289,9.0937,9.0078,9.0195,8.9922,8.9062,8.8984,8.8554,8.7539,8.75,8.75,8.75,8.664,8.6211,8.6211,8.4648,8.3906,8.3906,8.3203,8.2812,8.2617,8.2617,8.25,8.2304,8.2304,8.2304,8.2304,8.2304,8.2304,8.2304,8.2304,8.2304,8.2226,8.1523,8.1289,8.1211,8.0547,8.0312,8.0312,8.0312,8.0156,8.0,8.0,7.8945,7.7734,7.7539,7.75,7.7461,7.7265,7.7187,7.7187,7.7187,7.7187,7.7187,7.7187,7.7187,7.7187,7.7187,7.7187,7.7187,7.7187,7.6094,7.5117,7.4922,7.4336,7.3906,7.3906,7.4492,7.4961,7.5195,7.5195,7.5195,7.5195,7.582,7.621,7.6162,7.6747,7.709,7.7103,7.7101,7.7101,7.7101,7.7962,7.8508,7.8703,7.96,8.0459,8.1317,8.1317,8.1669,8.2292,8.2292,8.2292,8.2292,8.2292,8.2292,8.2292,8.2292,8.2292,8.2292,8.2292,8.2292,8.2292,9.2617,9.2617,9.2617,9.2617,9.2617,9.2617,9.2617,9.2617,9.2617,9.2617,9.2617,9.2265,9.1406,9.1289,9.0937,9.0078,9.0742,9.082,8.9961,8.9883,8.9179,8.7578,8.75,8.75,8.75,8.664,8.6211,8.6211,8.5273,8.4804,8.4804,8.4726,8.4297,8.3515,8.3515,8.3047,8.2304,8.2304,8.2304,8.2304,8.2304,8.2304,8.2304,8.2304,8.2304,8.2304,8.2226,8.2187,8.2187,8.2148,8.2109,8.2109,8.2109,8.1562,8.0898,8.0898,8.0234,7.9336,7.8594,7.8398,7.8203,7.7383,7.7187,7.7187,7.7187,7.7187,7.7187,7.7187,7.7187,7.7187,7.7187,7.7187,7.7187,7.7187,7.7109,7.6719,7.5937,7.5742,7.5703,7.5703,7.5781,7.6133,7.6914,7.6992,7.6992,7.6992,7.707,7.7069,7.7021,7.7059,7.709,7.7103,7.7101,7.7101,7.7101,7.7962,7.8819,7.96,8.0498,8.1356,8.2214,8.2214,8.2253,8.2292,8.2292,8.2292,8.2292,8.2292,8.2292,8.2292,8.2292,8.2292,8.2292,8.2292,8.2292,8.2292,9.2617,9.2617,9.2617,9.2617,9.2617,9.2617,9.2617,9.2617,9.2617,9.2617,9.2617,9.2461,9.2148,9.2109,9.1953,9.164,9.1914,9.1758,9.0859,9.082,8.9804,8.7617,8.75,8.75,8.75,8.7187,8.6992,8.6992,8.6133,8.5703,8.5703,8.5156,8.4726,8.4414,8.4414,8.4219,8.3906,8.3906,8.3906,8.3906,8.3906,8.3906,8.3906,8.3906,8.3906,8.3828,8.3281,8.3125,8.3008,8.2461,8.2304,8.2304,8.2304,8.207,8.1797,8.1797,8.1562,8.1133,8.0273,7.9297,7.8437,7.8086,7.7617,7.7187,7.7187,7.7187,7.7187,7.7187,7.7187,7.7187,7.7187,7.7187,7.7187,7.7187,7.6758,7.6289,7.5937,7.5898,7.5898,7.5898,7.6367,7.6836,7.7187,7.7187,7.7187,7.7187,7.7187,7.7186,7.7099,7.7087,7.7114,7.7101,7.7609,7.7921,7.7921,7.9328,8.0187,8.0537,8.1396,8.1981,8.2292,8.2292,8.2292,8.2292,8.2292,8.2292,8.2292,8.2292,8.2292,8.2292,8.2292,8.2292,8.2292,8.2292,8.2292,8.2292,9.2617,9.2617,9.2617,9.2617,9.2617,9.2617,9.2617,9.2617,9.2617,9.2617,9.2617,9.2617,9.2617,9.2617,9.2617,9.2617,9.2617,9.2344,9.1758,9.1445,9.039,8.8359,8.8008,8.789,8.789,8.7617,8.75,8.75,8.6914,8.6601,8.6601,8.6015,8.5586,8.5312,8.5312,8.5156,8.4883,8.4883,8.4883,8.4883,8.4883,8.4883,8.4883,8.4883,8.4883,8.4804,8.4219,8.4023,8.3867,8.3008,8.2695,8.2656,8.2383,8.2304,8.2304,8.2304,8.2304,8.2187,8.1562,8.0351,7.9219,7.8945,7.8437,7.8008,7.8008,7.8008,7.789,7.7656,7.7617,7.7539,7.7265,7.7187,7.7187,7.7187,7.6719,7.6328,7.6328,7.6328,7.6328,7.6328,7.6836,7.7187,7.7187,7.7187,7.7187,7.7187,7.7187,7.7304,7.7489,7.7238,7.734,7.7882,7.8507,7.8938,7.9211,8.0382,8.1007,8.1007,8.1864,8.2292,8.2292,8.2292,8.2292,8.2292,8.2292,8.2292,8.2292,8.2292,8.2292,8.2292,8.2292,8.2292,8.2292,8.2292,8.2292,8.2292,9.2617,9.2617,9.2617,9.2617,9.2617,9.2617,9.2617,9.2617,9.2617,9.2617,9.2617,9.2617,9.2617,9.2617,9.2617,9.2617,9.2617,9.2617,9.2617,9.1797,9.0937,9.0078,8.9179,8.8711,8.8711,8.7929,8.75,8.75,8.75,8.75,8.75,8.75,8.7031,8.6211,8.6211,8.5742,8.4922,8.4922,8.4922,8.4922,8.4922,8.4922,8.4922,8.4922,8.4922,8.4922,8.4922,8.4922,8.4765,8.3906,8.3594,8.3476,8.2578,8.2304,8.2304,8.2304,8.2304,8.2304,8.2304,8.1679,8.082,7.9922,7.9726,7.9687,7.9687,7.9687,7.9453,7.8672,7.8515,7.8242,7.7344,7.7226,7.7226,7.7187,7.7187,7.7187,7.7187,7.7187,7.7187,7.7187,7.7187,7.7187,7.7187,7.7187,7.7187,7.7187,7.7226,7.7577,7.8347,7.7597,7.7897,7.9639,7.9717,8.0146,8.1007,8.1007,8.1007,8.1007,8.1903,8.2292,8.2292,8.2292,8.2292,8.2292,8.2292,8.2292,8.2292,8.2292,8.2292,8.2292,8.2292,8.2292,8.2292,8.2292,8.2292,8.2292,9.2617,9.2617,9.2617,9.2617,9.2617,9.2617,9.2617,9.2617,9.2617,9.2617,9.2617,9.2617,9.2617,9.2617,9.2617,9.2617,9.2617,9.2617,9.2617,9.2344,9.2109,9.1836,9.039,8.9336,8.8711,8.8476,8.8086,8.75,8.75,8.75,8.75,8.75,8.7344,8.7109,8.7109,8.6953,8.6719,8.6719,8.6719,8.6719,8.6719,8.6719,8.6719,8.6719,8.6719,8.664,8.6015,8.582,8.5664,8.4804,8.4492,8.4453,8.4219,8.4101,8.4101,8.4101,8.4101,8.3984,8.3398,8.3008,8.2461,8.0976,8.0156,7.9687,7.9687,7.9687,7.9453,7.8672,7.8945,7.8906,7.7461,7.7695,7.789,7.7305,7.7187,7.7187,7.7187,7.7187,7.7187,7.7187,7.7187,7.7187,7.7187,7.7187,7.7187,7.7187,7.7732,7.8156,7.8386,7.8721,7.9175,7.9678,8.0302,8.0732,8.1007,8.1591,8.1903,8.1903,8.2176,8.2292,8.2292,8.2292,8.2292,8.2292,8.2292,8.2292,8.2292,8.2292,8.2292,8.2292,8.2292,8.2292,8.2292,8.2292,8.2292,8.2292,9.2617,9.2617,9.2617,9.2617,9.2617,9.2617,9.2617,9.2617,9.2617,9.2617,9.2617,9.2617,9.2617,9.2617,9.2617,9.2617,9.2617,9.2617,9.2617,9.2617,9.2617,9.2617,9.1601,9.0625,8.9765,8.9062,8.8476,8.7969,8.7656,8.75,8.75,8.75,8.75,8.75,8.75,8.75,8.75,8.75,8.75,8.75,8.75,8.75,8.75,8.75,8.75,8.7422,8.6914,8.6719,8.6562,8.5703,8.5195,8.4883,8.4883,8.4883,8.4883,8.4883,8.4883,8.4804,8.4258,8.4101,8.3867,8.2812,8.164,8.0742,8.0742,8.0742,8.0508,7.9648,7.9883,7.9805,7.8437,7.8633,7.8789,7.8281,7.8203,7.8086,7.7773,7.7695,7.7578,7.7226,7.7187,7.7187,7.7187,7.75,7.7851,7.8164,7.8631,7.9056,7.9402,7.9585,8.0002,8.0693,8.0927,8.1161,8.1513,8.2059,8.2292,8.2292,8.2292,8.2292,8.2292,8.2292,8.2292,8.2292,8.2292,8.2292,8.2292,8.2292,8.2292,8.2292,8.2292,8.2292,8.2292,8.2292,8.2292,8.2292,9.2617,9.2617,9.2617,9.2617,9.2617,9.2617,9.2617,9.2617,9.2617,9.2617,9.2617,9.2617,9.2617,9.2617,9.2617,9.2617,9.2617,9.2617,9.2617,9.2617,9.2617,9.2617,9.2617,9.2226,9.1445,8.9726,8.8789,8.8711,8.789,8.75,8.75,8.75,8.75,8.75,8.75,8.75,8.75,8.75,8.75,8.75,8.75,8.75,8.75,8.75,8.75,8.75,8.75,8.75,8.7383,8.6562,8.5781,8.5117,8.5117,8.5117,8.5117,8.5117,8.5117,8.5117,8.5039,8.5039,8.5,8.4922,8.3711,8.25,8.2422,8.2422,8.2148,8.1211,8.1054,8.082,7.9883,7.9765,7.9805,7.9726,7.9687,7.9453,7.8711,7.8594,7.832,7.7539,7.7422,7.7422,7.7422,7.8125,7.8906,7.9648,7.9765,8.0155,8.0965,8.0338,8.0642,8.2254,8.1513,8.1513,8.2292,8.2292,8.2292,8.2292,8.237,8.237,8.2292,8.237,8.237,8.2292,8.2292,8.2292,8.2292,8.2292,8.2292,8.2292,8.2292,8.2292,8.2292,8.2292,8.2292,8.2292,9.2617,9.2617,9.2617,9.2617,9.2617,9.2617,9.2617,9.2617,9.2617,9.2617,9.2617,9.2617,9.2617,9.2617,9.2617,9.2617,9.2617,9.2617,9.2617,9.2617,9.2617,9.2617,9.2617,9.25,9.2304,9.0625,8.9375,8.8711,8.789,8.75,8.75,8.75,8.75,8.75,8.75,8.75,8.75,8.75,8.75,8.75,8.75,8.75,8.75,8.75,8.75,8.75,8.75,8.75,8.7461,8.7265,8.7109,8.6953,8.6953,8.6953,8.6953,8.6953,8.6953,8.6797,8.6094,8.5937,8.5742,8.5078,8.4609,8.414,8.3476,8.332,8.289,8.1328,8.1523,8.1523,8.0,8.0273,8.0508,7.9805,7.9687,7.9648,7.9453,7.9453,7.9375,7.918,7.914,7.914,7.914,7.9336,7.9492,7.9687,8.0312,8.0816,8.1004,8.1465,8.1921,8.2293,8.2137,8.2098,8.2292,8.2292,8.2292,8.2292,8.2957,8.2918,8.2331,8.2957,8.2918,8.2292,8.2292,8.2292,8.2292,8.2292,8.2292,8.2292,8.2292,8.2292,8.2292,8.2292,8.2292,8.2292,9.2617,9.2617,9.2617,9.2617,9.2617,9.2617,9.2617,9.2617,9.2617,9.2617,9.2617,9.2617,9.2617,9.2617,9.2617,9.2617,9.2617,9.2617,9.2617,9.2617,9.2617,9.2617,9.2617,9.2617,9.2617,9.1289,9.039,8.9922,8.9101,8.8476,8.8086,8.8515,8.8476,8.8086,8.8515,8.8672,8.8672,8.8242,8.832,8.8672,8.8242,8.832,8.8672,8.8672,8.8437,8.8086,8.8086,8.7812,8.75,8.75,8.75,8.75,8.75,8.75,8.75,8.75,8.75,8.7383,8.6953,8.6836,8.6719,8.625,8.6133,8.5781,8.4492,8.4219,8.3828,8.25,8.2617,8.25,8.1172,8.1328,8.1484,8.1015,8.0937,8.0781,8.039,8.0312,8.0156,7.9765,7.9687,7.9844,8.0273,8.0312,8.0508,8.0898,8.1367,8.1638,8.1629,8.2443,8.2901,8.2879,8.3268,8.3502,8.3502,8.3502,8.3502,8.3502,8.3504,8.3504,8.3502,8.3504,8.3269,8.284,8.2489,8.2292,8.2292,8.2292,8.2292,8.2292,8.2292,8.2292,8.2292,8.2292,8.2292,8.2292,9.2617,9.2617,9.2617,9.2617,9.2617,9.2617,9.2617,9.2617,9.2617,9.2617,9.2617,9.2617,9.2617,9.2617,9.2617,9.2617,9.2617,9.2617,9.2617,9.2617,9.2617,9.2617,9.2617,9.2617,9.2617,9.1875,9.1445,9.1289,9.0429,8.9648,8.8945,8.9648,8.9609,8.8945,8.9687,9.0,8.9961,8.9219,8.9336,8.9922,8.9219,8.9375,9.0,9.0,8.9453,8.8711,8.8867,8.8398,8.7695,8.7695,8.7695,8.7695,8.7539,8.7578,8.7695,8.7539,8.75,8.75,8.75,8.75,8.75,8.75,8.75,8.7109,8.5664,8.5234,8.4883,8.3984,8.3828,8.3594,8.289,8.2734,8.2695,8.2539,8.2539,8.2226,8.1328,8.1211,8.0937,8.0234,8.0156,8.0429,8.1133,8.1211,8.1523,8.2265,8.2422,8.2538,8.253,8.3347,8.3807,8.3705,8.4403,8.479,8.479,8.479,8.4868,8.5024,8.4284,8.4245,8.479,8.4206,8.3777,8.3465,8.2801,8.245,8.2292,8.2292,8.2292,8.2292,8.2292,8.2292,8.2292,8.2292,8.2292,8.2292,9.2617,9.2617,9.2617,9.2617,9.2617,9.2617,9.2617,9.2617,9.2617,9.2617,9.2617,9.2617,9.2617,9.2617,9.2617,9.2617,9.2617,9.2617,9.2617,9.2617,9.2617,9.2617,9.2617,9.2617,9.2617,9.2461,9.2031,9.1289,9.0429,8.9922,8.9844,8.9922,8.9922,8.9844,8.9961,9.0,9.0,8.9883,8.9883,9.0,8.9883,8.9883,9.0,9.0,8.9453,8.8789,8.9531,8.9258,8.8554,8.8554,8.8554,8.8437,8.7734,8.7969,8.8398,8.7695,8.75,8.75,8.75,8.75,8.75,8.75,8.75,8.7422,8.7187,8.6562,8.5781,8.4883,8.4726,8.4687,8.457,8.4531,8.4297,8.3554,8.3437,8.3125,8.2265,8.2109,8.207,8.1953,8.1953,8.1992,8.2109,8.2109,8.2187,8.2304,8.3008,8.3437,8.3434,8.4248,8.4708,8.4618,8.472,8.479,8.479,8.479,8.5181,8.5924,8.5807,8.5416,8.4829,8.5456,8.4948,8.3504,8.3386,8.2957,8.2292,8.2292,8.2292,8.2292,8.2292,8.2292,8.2292,8.2292,8.2292,8.2292,9.2617,9.2617,9.2617,9.2617,9.2617,9.2617,9.2617,9.2617,9.2617,9.2617,9.2617,9.2617,9.2617,9.2617,9.2617,9.2617,9.2617,9.2617,9.2617,9.2617,9.2617,9.2617,9.2617,9.2617,9.2617,9.2617,9.2422,9.2031,9.164,9.1211,9.0742,9.1211,9.1172,9.0742,9.125,9.1445,9.1406,9.0937,9.1015,9.1406,9.0937,9.1015,9.1445,9.1445,9.0898,9.0156,9.0039,8.9765,8.9414,8.9414,8.9414,8.9375,8.9023,8.8828,8.8711,8.8867,8.8242,8.7617,8.8047,8.7851,8.75,8.75,8.75,8.75,8.75,8.7187,8.6679,8.582,8.5625,8.5469,8.5,8.4883,8.4765,8.4375,8.4336,8.4023,8.3164,8.3047,8.3047,8.3047,8.3047,8.3203,8.3711,8.375,8.375,8.375,8.3672,8.3828,8.4294,8.4679,8.51,8.5519,8.601,8.6235,8.6235,8.6235,8.6469,8.682,8.682,8.6625,8.6235,8.5649,8.4948,8.4167,8.323,8.2645,8.2292,8.2292,8.2292,8.2292,8.2292,8.2292,8.2292,8.2292,8.2292,8.2292]}]]